<?xml version="1.0" encoding="UTF-8" standalone="no" ?>
<gpx xmlns="http://www.topografix.com/GPX/1/1" xmlns:xsi="http://www.w3.org/2001/XMLSchema-instance" xsi:schemaLocation="http://www.topografix.com/GPX/1/1 http://www.topografix.com/GPX/1/1/gpx.xsd" version="1.1" creator="VisuGPX - https://www.visugpx.com">
  <metadata>
    <name>161102HR3ROBJeunes</name>
    <desc><![CDATA[excellente et tres bonne sortie]]></desc>
  </metadata>
  <trk>
    <name><![CDATA[161102HR3ROBJeunes]]></name>
    <trkseg>
      <trkpt lat="43.41581" lon="6.07038">
        <ele>202.19999694824</ele>
        <time>2016-11-02T13:03:52Z</time>
      </trkpt>
      <trkpt lat="43.41581" lon="6.07037">
        <ele>202</ele>
        <time>2016-11-02T13:03:59Z</time>
      </trkpt>
      <trkpt lat="43.4158" lon="6.07035">
        <ele>201.39999389648</ele>
        <time>2016-11-02T13:04:09Z</time>
      </trkpt>
      <trkpt lat="43.4158" lon="6.07037">
        <ele>201.39999389648</ele>
        <time>2016-11-02T13:04:19Z</time>
      </trkpt>
      <trkpt lat="43.4158" lon="6.07037">
        <ele>201.19999694824</ele>
        <time>2016-11-02T13:04:39Z</time>
      </trkpt>
      <trkpt lat="43.41579" lon="6.07038">
        <ele>202</ele>
        <time>2016-11-02T13:04:49Z</time>
      </trkpt>
      <trkpt lat="43.4158" lon="6.07038">
        <ele>201.60000610352</ele>
        <time>2016-11-02T13:04:59Z</time>
      </trkpt>
      <trkpt lat="43.4158" lon="6.07037">
        <ele>201.60000610352</ele>
        <time>2016-11-02T13:05:09Z</time>
      </trkpt>
      <trkpt lat="43.41579" lon="6.07038">
        <ele>201.60000610352</ele>
        <time>2016-11-02T13:05:24Z</time>
      </trkpt>
      <trkpt lat="43.4158" lon="6.07041">
        <ele>201.60000610352</ele>
        <time>2016-11-02T13:05:29Z</time>
      </trkpt>
      <trkpt lat="43.4158" lon="6.07043">
        <ele>201.60000610352</ele>
        <time>2016-11-02T13:05:31Z</time>
      </trkpt>
      <trkpt lat="43.41581" lon="6.07047">
        <ele>201.60000610352</ele>
        <time>2016-11-02T13:05:33Z</time>
      </trkpt>
      <trkpt lat="43.41584" lon="6.07059">
        <ele>201.80000305176</ele>
        <time>2016-11-02T13:05:39Z</time>
      </trkpt>
      <trkpt lat="43.41585" lon="6.07063">
        <ele>202</ele>
        <time>2016-11-02T13:05:41Z</time>
      </trkpt>
      <trkpt lat="43.41586" lon="6.07069">
        <ele>201.80000305176</ele>
        <time>2016-11-02T13:05:43Z</time>
      </trkpt>
      <trkpt lat="43.41585" lon="6.07091">
        <ele>201.60000610352</ele>
        <time>2016-11-02T13:05:49Z</time>
      </trkpt>
      <trkpt lat="43.41584" lon="6.07099">
        <ele>201.39999389648</ele>
        <time>2016-11-02T13:05:52Z</time>
      </trkpt>
      <trkpt lat="43.41567" lon="6.07112">
        <ele>201.19999694824</ele>
        <time>2016-11-02T13:05:59Z</time>
      </trkpt>
      <trkpt lat="43.4156" lon="6.07113">
        <ele>201.19999694824</ele>
        <time>2016-11-02T13:06:01Z</time>
      </trkpt>
      <trkpt lat="43.41552" lon="6.07112">
        <ele>201.19999694824</ele>
        <time>2016-11-02T13:06:04Z</time>
      </trkpt>
      <trkpt lat="43.41546" lon="6.07095">
        <ele>201</ele>
        <time>2016-11-02T13:06:09Z</time>
      </trkpt>
      <trkpt lat="43.4153" lon="6.07075">
        <ele>200.39999389648</ele>
        <time>2016-11-02T13:06:16Z</time>
      </trkpt>
      <trkpt lat="43.41521" lon="6.07077">
        <ele>200</ele>
        <time>2016-11-02T13:06:18Z</time>
      </trkpt>
      <trkpt lat="43.41516" lon="6.07079">
        <ele>199.80000305176</ele>
        <time>2016-11-02T13:06:19Z</time>
      </trkpt>
      <trkpt lat="43.41503" lon="6.07082">
        <ele>199.60000610352</ele>
        <time>2016-11-02T13:06:22Z</time>
      </trkpt>
      <trkpt lat="43.41495" lon="6.07081">
        <ele>199.39999389648</ele>
        <time>2016-11-02T13:06:24Z</time>
      </trkpt>
      <trkpt lat="43.41476" lon="6.07073">
        <ele>199.39999389648</ele>
        <time>2016-11-02T13:06:29Z</time>
      </trkpt>
      <trkpt lat="43.4147" lon="6.07069">
        <ele>199.39999389648</ele>
        <time>2016-11-02T13:06:32Z</time>
      </trkpt>
      <trkpt lat="43.41469" lon="6.07063">
        <ele>199</ele>
        <time>2016-11-02T13:06:34Z</time>
      </trkpt>
      <trkpt lat="43.41471" lon="6.07054">
        <ele>199.19999694824</ele>
        <time>2016-11-02T13:06:36Z</time>
      </trkpt>
      <trkpt lat="43.41473" lon="6.07048">
        <ele>199.19999694824</ele>
        <time>2016-11-02T13:06:37Z</time>
      </trkpt>
      <trkpt lat="43.41475" lon="6.07043">
        <ele>199</ele>
        <time>2016-11-02T13:06:38Z</time>
      </trkpt>
      <trkpt lat="43.41478" lon="6.07037">
        <ele>199</ele>
        <time>2016-11-02T13:06:39Z</time>
      </trkpt>
      <trkpt lat="43.41491" lon="6.07004">
        <ele>199.19999694824</ele>
        <time>2016-11-02T13:06:45Z</time>
      </trkpt>
      <trkpt lat="43.41493" lon="6.06987">
        <ele>199.39999389648</ele>
        <time>2016-11-02T13:06:48Z</time>
      </trkpt>
      <trkpt lat="43.41492" lon="6.06981">
        <ele>199.60000610352</ele>
        <time>2016-11-02T13:06:49Z</time>
      </trkpt>
      <trkpt lat="43.41491" lon="6.06976">
        <ele>199.80000305176</ele>
        <time>2016-11-02T13:06:50Z</time>
      </trkpt>
      <trkpt lat="43.41481" lon="6.06953">
        <ele>200.60000610352</ele>
        <time>2016-11-02T13:06:55Z</time>
      </trkpt>
      <trkpt lat="43.41473" lon="6.06942">
        <ele>200.80000305176</ele>
        <time>2016-11-02T13:06:58Z</time>
      </trkpt>
      <trkpt lat="43.41471" lon="6.06938">
        <ele>200.80000305176</ele>
        <time>2016-11-02T13:06:59Z</time>
      </trkpt>
      <trkpt lat="43.41467" lon="6.06929">
        <ele>201</ele>
        <time>2016-11-02T13:07:02Z</time>
      </trkpt>
      <trkpt lat="43.41466" lon="6.06927">
        <ele>201</ele>
        <time>2016-11-02T13:07:03Z</time>
      </trkpt>
      <trkpt lat="43.41464" lon="6.06923">
        <ele>201.60000610352</ele>
        <time>2016-11-02T13:07:09Z</time>
      </trkpt>
      <trkpt lat="43.41464" lon="6.06922">
        <ele>201.39999389648</ele>
        <time>2016-11-02T13:07:19Z</time>
      </trkpt>
      <trkpt lat="43.41463" lon="6.06914">
        <ele>201.60000610352</ele>
        <time>2016-11-02T13:07:22Z</time>
      </trkpt>
      <trkpt lat="43.41464" lon="6.06904">
        <ele>201.60000610352</ele>
        <time>2016-11-02T13:07:24Z</time>
      </trkpt>
      <trkpt lat="43.41464" lon="6.06892">
        <ele>201.60000610352</ele>
        <time>2016-11-02T13:07:26Z</time>
      </trkpt>
      <trkpt lat="43.41462" lon="6.0688">
        <ele>201.39999389648</ele>
        <time>2016-11-02T13:07:28Z</time>
      </trkpt>
      <trkpt lat="43.41459" lon="6.06875">
        <ele>201.39999389648</ele>
        <time>2016-11-02T13:07:29Z</time>
      </trkpt>
      <trkpt lat="43.41456" lon="6.0687">
        <ele>201.60000610352</ele>
        <time>2016-11-02T13:07:30Z</time>
      </trkpt>
      <trkpt lat="43.41446" lon="6.06863">
        <ele>201.80000305176</ele>
        <time>2016-11-02T13:07:32Z</time>
      </trkpt>
      <trkpt lat="43.41434" lon="6.06864">
        <ele>202</ele>
        <time>2016-11-02T13:07:34Z</time>
      </trkpt>
      <trkpt lat="43.41425" lon="6.06872">
        <ele>201.80000305176</ele>
        <time>2016-11-02T13:07:36Z</time>
      </trkpt>
      <trkpt lat="43.4142" lon="6.06886">
        <ele>201.60000610352</ele>
        <time>2016-11-02T13:07:38Z</time>
      </trkpt>
      <trkpt lat="43.4142" lon="6.06894">
        <ele>201.60000610352</ele>
        <time>2016-11-02T13:07:39Z</time>
      </trkpt>
      <trkpt lat="43.41426" lon="6.06933">
        <ele>201.60000610352</ele>
        <time>2016-11-02T13:07:44Z</time>
      </trkpt>
      <trkpt lat="43.41421" lon="6.06973">
        <ele>201.19999694824</ele>
        <time>2016-11-02T13:07:49Z</time>
      </trkpt>
      <trkpt lat="43.41411" lon="6.07019">
        <ele>201</ele>
        <time>2016-11-02T13:07:54Z</time>
      </trkpt>
      <trkpt lat="43.41401" lon="6.07066">
        <ele>200.39999389648</ele>
        <time>2016-11-02T13:07:59Z</time>
      </trkpt>
      <trkpt lat="43.41394" lon="6.07103">
        <ele>200.19999694824</ele>
        <time>2016-11-02T13:08:03Z</time>
      </trkpt>
      <trkpt lat="43.41384" lon="6.07155">
        <ele>200.19999694824</ele>
        <time>2016-11-02T13:08:09Z</time>
      </trkpt>
      <trkpt lat="43.41379" lon="6.07181">
        <ele>200</ele>
        <time>2016-11-02T13:08:12Z</time>
      </trkpt>
      <trkpt lat="43.41372" lon="6.07215">
        <ele>199.39999389648</ele>
        <time>2016-11-02T13:08:16Z</time>
      </trkpt>
      <trkpt lat="43.41366" lon="6.07244">
        <ele>199</ele>
        <time>2016-11-02T13:08:19Z</time>
      </trkpt>
      <trkpt lat="43.41352" lon="6.07312">
        <ele>198</ele>
        <time>2016-11-02T13:08:26Z</time>
      </trkpt>
      <trkpt lat="43.41346" lon="6.07341">
        <ele>197.80000305176</ele>
        <time>2016-11-02T13:08:29Z</time>
      </trkpt>
      <trkpt lat="43.41334" lon="6.07399">
        <ele>198</ele>
        <time>2016-11-02T13:08:35Z</time>
      </trkpt>
      <trkpt lat="43.41327" lon="6.07436">
        <ele>198</ele>
        <time>2016-11-02T13:08:39Z</time>
      </trkpt>
      <trkpt lat="43.4131" lon="6.07516">
        <ele>197.19999694824</ele>
        <time>2016-11-02T13:08:48Z</time>
      </trkpt>
      <trkpt lat="43.41299" lon="6.07562">
        <ele>196.80000305176</ele>
        <time>2016-11-02T13:08:53Z</time>
      </trkpt>
      <trkpt lat="43.41283" lon="6.07614">
        <ele>196.80000305176</ele>
        <time>2016-11-02T13:08:59Z</time>
      </trkpt>
      <trkpt lat="43.41258" lon="6.07682">
        <ele>196.60000610352</ele>
        <time>2016-11-02T13:09:07Z</time>
      </trkpt>
      <trkpt lat="43.41251" lon="6.07698">
        <ele>196.60000610352</ele>
        <time>2016-11-02T13:09:09Z</time>
      </trkpt>
      <trkpt lat="43.41233" lon="6.07738">
        <ele>196.80000305176</ele>
        <time>2016-11-02T13:09:14Z</time>
      </trkpt>
      <trkpt lat="43.41218" lon="6.07769">
        <ele>197.19999694824</ele>
        <time>2016-11-02T13:09:18Z</time>
      </trkpt>
      <trkpt lat="43.41182" lon="6.07832">
        <ele>197.60000610352</ele>
        <time>2016-11-02T13:09:27Z</time>
      </trkpt>
      <trkpt lat="43.41173" lon="6.07846">
        <ele>197.80000305176</ele>
        <time>2016-11-02T13:09:29Z</time>
      </trkpt>
      <trkpt lat="43.41168" lon="6.07852">
        <ele>198</ele>
        <time>2016-11-02T13:09:30Z</time>
      </trkpt>
      <trkpt lat="43.41145" lon="6.07887">
        <ele>198</ele>
        <time>2016-11-02T13:09:35Z</time>
      </trkpt>
      <trkpt lat="43.41124" lon="6.07914">
        <ele>198</ele>
        <time>2016-11-02T13:09:39Z</time>
      </trkpt>
      <trkpt lat="43.4108" lon="6.07964">
        <ele>197</ele>
        <time>2016-11-02T13:09:47Z</time>
      </trkpt>
      <trkpt lat="43.41069" lon="6.07976">
        <ele>197</ele>
        <time>2016-11-02T13:09:49Z</time>
      </trkpt>
      <trkpt lat="43.41021" lon="6.08018">
        <ele>197.19999694824</ele>
        <time>2016-11-02T13:09:58Z</time>
      </trkpt>
      <trkpt lat="43.41016" lon="6.08022">
        <ele>197.19999694824</ele>
        <time>2016-11-02T13:09:59Z</time>
      </trkpt>
      <trkpt lat="43.4097" lon="6.08057">
        <ele>197.39999389648</ele>
        <time>2016-11-02T13:10:07Z</time>
      </trkpt>
      <trkpt lat="43.40958" lon="6.08066">
        <ele>197.80000305176</ele>
        <time>2016-11-02T13:10:09Z</time>
      </trkpt>
      <trkpt lat="43.40903" lon="6.08098">
        <ele>198.39999389648</ele>
        <time>2016-11-02T13:10:18Z</time>
      </trkpt>
      <trkpt lat="43.40837" lon="6.08135">
        <ele>199</ele>
        <time>2016-11-02T13:10:29Z</time>
      </trkpt>
      <trkpt lat="43.40797" lon="6.08157">
        <ele>200.19999694824</ele>
        <time>2016-11-02T13:10:36Z</time>
      </trkpt>
      <trkpt lat="43.40779" lon="6.08165">
        <ele>200.60000610352</ele>
        <time>2016-11-02T13:10:39Z</time>
      </trkpt>
      <trkpt lat="43.40757" lon="6.08174">
        <ele>201.19999694824</ele>
        <time>2016-11-02T13:10:43Z</time>
      </trkpt>
      <trkpt lat="43.40721" lon="6.08181">
        <ele>201.60000610352</ele>
        <time>2016-11-02T13:10:49Z</time>
      </trkpt>
      <trkpt lat="43.40697" lon="6.08183">
        <ele>202.19999694824</ele>
        <time>2016-11-02T13:10:53Z</time>
      </trkpt>
      <trkpt lat="43.40663" lon="6.0818">
        <ele>203</ele>
        <time>2016-11-02T13:10:59Z</time>
      </trkpt>
      <trkpt lat="43.40645" lon="6.08176">
        <ele>203.39999389648</ele>
        <time>2016-11-02T13:11:02Z</time>
      </trkpt>
      <trkpt lat="43.40607" lon="6.08166">
        <ele>204</ele>
        <time>2016-11-02T13:11:09Z</time>
      </trkpt>
      <trkpt lat="43.40565" lon="6.0815">
        <ele>205</ele>
        <time>2016-11-02T13:11:18Z</time>
      </trkpt>
      <trkpt lat="43.40561" lon="6.08147">
        <ele>205.19999694824</ele>
        <time>2016-11-02T13:11:19Z</time>
      </trkpt>
      <trkpt lat="43.40557" lon="6.08142">
        <ele>205.39999389648</ele>
        <time>2016-11-02T13:11:20Z</time>
      </trkpt>
      <trkpt lat="43.40552" lon="6.08131">
        <ele>205.39999389648</ele>
        <time>2016-11-02T13:11:22Z</time>
      </trkpt>
      <trkpt lat="43.40549" lon="6.08125">
        <ele>205.39999389648</ele>
        <time>2016-11-02T13:11:23Z</time>
      </trkpt>
      <trkpt lat="43.40541" lon="6.08116">
        <ele>205.39999389648</ele>
        <time>2016-11-02T13:11:25Z</time>
      </trkpt>
      <trkpt lat="43.40531" lon="6.08113">
        <ele>205.39999389648</ele>
        <time>2016-11-02T13:11:27Z</time>
      </trkpt>
      <trkpt lat="43.4052" lon="6.08116">
        <ele>205.60000610352</ele>
        <time>2016-11-02T13:11:29Z</time>
      </trkpt>
      <trkpt lat="43.405" lon="6.08133">
        <ele>205.39999389648</ele>
        <time>2016-11-02T13:11:33Z</time>
      </trkpt>
      <trkpt lat="43.40489" lon="6.08136">
        <ele>205.39999389648</ele>
        <time>2016-11-02T13:11:35Z</time>
      </trkpt>
      <trkpt lat="43.40469" lon="6.08134">
        <ele>206</ele>
        <time>2016-11-02T13:11:39Z</time>
      </trkpt>
      <trkpt lat="43.4046" lon="6.08133">
        <ele>206.60000610352</ele>
        <time>2016-11-02T13:11:41Z</time>
      </trkpt>
      <trkpt lat="43.40448" lon="6.08131">
        <ele>207.60000610352</ele>
        <time>2016-11-02T13:11:44Z</time>
      </trkpt>
      <trkpt lat="43.40437" lon="6.0813">
        <ele>208.60000610352</ele>
        <time>2016-11-02T13:11:47Z</time>
      </trkpt>
      <trkpt lat="43.4043" lon="6.0813">
        <ele>209.19999694824</ele>
        <time>2016-11-02T13:11:49Z</time>
      </trkpt>
      <trkpt lat="43.40417" lon="6.08128">
        <ele>209.80000305176</ele>
        <time>2016-11-02T13:11:53Z</time>
      </trkpt>
      <trkpt lat="43.40405" lon="6.08127">
        <ele>211</ele>
        <time>2016-11-02T13:11:57Z</time>
      </trkpt>
      <trkpt lat="43.40398" lon="6.08126">
        <ele>211.39999389648</ele>
        <time>2016-11-02T13:11:59Z</time>
      </trkpt>
      <trkpt lat="43.40385" lon="6.08124">
        <ele>212</ele>
        <time>2016-11-02T13:12:03Z</time>
      </trkpt>
      <trkpt lat="43.40366" lon="6.08122">
        <ele>213</ele>
        <time>2016-11-02T13:12:09Z</time>
      </trkpt>
      <trkpt lat="43.40342" lon="6.08123">
        <ele>214.19999694824</ele>
        <time>2016-11-02T13:12:16Z</time>
      </trkpt>
      <trkpt lat="43.40332" lon="6.08125">
        <ele>214.19999694824</ele>
        <time>2016-11-02T13:12:19Z</time>
      </trkpt>
      <trkpt lat="43.40319" lon="6.08128">
        <ele>214.19999694824</ele>
        <time>2016-11-02T13:12:23Z</time>
      </trkpt>
      <trkpt lat="43.403" lon="6.08135">
        <ele>214.60000610352</ele>
        <time>2016-11-02T13:12:29Z</time>
      </trkpt>
      <trkpt lat="43.40277" lon="6.08146">
        <ele>215.39999389648</ele>
        <time>2016-11-02T13:12:36Z</time>
      </trkpt>
      <trkpt lat="43.40269" lon="6.08153">
        <ele>216</ele>
        <time>2016-11-02T13:12:39Z</time>
      </trkpt>
      <trkpt lat="43.40242" lon="6.08178">
        <ele>217.19999694824</ele>
        <time>2016-11-02T13:12:49Z</time>
      </trkpt>
      <trkpt lat="43.40237" lon="6.08183">
        <ele>217.60000610352</ele>
        <time>2016-11-02T13:12:51Z</time>
      </trkpt>
      <trkpt lat="43.40222" lon="6.082">
        <ele>219</ele>
        <time>2016-11-02T13:12:57Z</time>
      </trkpt>
      <trkpt lat="43.40203" lon="6.08224">
        <ele>221.19999694824</ele>
        <time>2016-11-02T13:13:05Z</time>
      </trkpt>
      <trkpt lat="43.40194" lon="6.08236">
        <ele>222.39999389648</ele>
        <time>2016-11-02T13:13:09Z</time>
      </trkpt>
      <trkpt lat="43.40181" lon="6.08251">
        <ele>223.39999389648</ele>
        <time>2016-11-02T13:13:16Z</time>
      </trkpt>
      <trkpt lat="43.40177" lon="6.08254">
        <ele>224</ele>
        <time>2016-11-02T13:13:19Z</time>
      </trkpt>
      <trkpt lat="43.40178" lon="6.08257">
        <ele>224.19999694824</ele>
        <time>2016-11-02T13:13:24Z</time>
      </trkpt>
      <trkpt lat="43.40179" lon="6.08259">
        <ele>224.39999389648</ele>
        <time>2016-11-02T13:13:26Z</time>
      </trkpt>
      <trkpt lat="43.40182" lon="6.08264">
        <ele>224.39999389648</ele>
        <time>2016-11-02T13:13:28Z</time>
      </trkpt>
      <trkpt lat="43.40183" lon="6.08267">
        <ele>224.39999389648</ele>
        <time>2016-11-02T13:13:29Z</time>
      </trkpt>
      <trkpt lat="43.40183" lon="6.08279">
        <ele>224.39999389648</ele>
        <time>2016-11-02T13:13:32Z</time>
      </trkpt>
      <trkpt lat="43.4018" lon="6.08312">
        <ele>224.80000305176</ele>
        <time>2016-11-02T13:13:39Z</time>
      </trkpt>
      <trkpt lat="43.40178" lon="6.08358">
        <ele>224.60000610352</ele>
        <time>2016-11-02T13:13:48Z</time>
      </trkpt>
      <trkpt lat="43.40178" lon="6.08363">
        <ele>224.60000610352</ele>
        <time>2016-11-02T13:13:49Z</time>
      </trkpt>
      <trkpt lat="43.40176" lon="6.08416">
        <ele>225.39999389648</ele>
        <time>2016-11-02T13:13:59Z</time>
      </trkpt>
      <trkpt lat="43.40173" lon="6.08451">
        <ele>225.60000610352</ele>
        <time>2016-11-02T13:14:05Z</time>
      </trkpt>
      <trkpt lat="43.40171" lon="6.08472">
        <ele>225.60000610352</ele>
        <time>2016-11-02T13:14:09Z</time>
      </trkpt>
      <trkpt lat="43.40168" lon="6.08494">
        <ele>225.60000610352</ele>
        <time>2016-11-02T13:14:13Z</time>
      </trkpt>
      <trkpt lat="43.40167" lon="6.08523">
        <ele>225.19999694824</ele>
        <time>2016-11-02T13:14:18Z</time>
      </trkpt>
      <trkpt lat="43.40167" lon="6.08528">
        <ele>225</ele>
        <time>2016-11-02T13:14:19Z</time>
      </trkpt>
      <trkpt lat="43.40168" lon="6.08545">
        <ele>224.39999389648</ele>
        <time>2016-11-02T13:14:22Z</time>
      </trkpt>
      <trkpt lat="43.40169" lon="6.08558">
        <ele>224.19999694824</ele>
        <time>2016-11-02T13:14:24Z</time>
      </trkpt>
      <trkpt lat="43.40166" lon="6.08569">
        <ele>224</ele>
        <time>2016-11-02T13:14:26Z</time>
      </trkpt>
      <trkpt lat="43.40159" lon="6.08576">
        <ele>224.19999694824</ele>
        <time>2016-11-02T13:14:28Z</time>
      </trkpt>
      <trkpt lat="43.40151" lon="6.08581">
        <ele>224.19999694824</ele>
        <time>2016-11-02T13:14:30Z</time>
      </trkpt>
      <trkpt lat="43.40119" lon="6.0861">
        <ele>224.39999389648</ele>
        <time>2016-11-02T13:14:39Z</time>
      </trkpt>
      <trkpt lat="43.40098" lon="6.08639">
        <ele>225.39999389648</ele>
        <time>2016-11-02T13:14:47Z</time>
      </trkpt>
      <trkpt lat="43.40097" lon="6.08648">
        <ele>225.39999389648</ele>
        <time>2016-11-02T13:14:49Z</time>
      </trkpt>
      <trkpt lat="43.401" lon="6.08669">
        <ele>226.60000610352</ele>
        <time>2016-11-02T13:14:54Z</time>
      </trkpt>
      <trkpt lat="43.40101" lon="6.0868">
        <ele>227.19999694824</ele>
        <time>2016-11-02T13:14:57Z</time>
      </trkpt>
      <trkpt lat="43.40102" lon="6.08688">
        <ele>227.80000305176</ele>
        <time>2016-11-02T13:14:59Z</time>
      </trkpt>
      <trkpt lat="43.40097" lon="6.08729">
        <ele>228.39999389648</ele>
        <time>2016-11-02T13:15:09Z</time>
      </trkpt>
      <trkpt lat="43.40094" lon="6.08742">
        <ele>228.60000610352</ele>
        <time>2016-11-02T13:15:12Z</time>
      </trkpt>
      <trkpt lat="43.40086" lon="6.08769">
        <ele>228.80000305176</ele>
        <time>2016-11-02T13:15:19Z</time>
      </trkpt>
      <trkpt lat="43.4007" lon="6.08816">
        <ele>229</ele>
        <time>2016-11-02T13:15:29Z</time>
      </trkpt>
      <trkpt lat="43.40061" lon="6.08837">
        <ele>228.60000610352</ele>
        <time>2016-11-02T13:15:33Z</time>
      </trkpt>
      <trkpt lat="43.40058" lon="6.08847">
        <ele>228.60000610352</ele>
        <time>2016-11-02T13:15:35Z</time>
      </trkpt>
      <trkpt lat="43.40051" lon="6.08869">
        <ele>228.80000305176</ele>
        <time>2016-11-02T13:15:39Z</time>
      </trkpt>
      <trkpt lat="43.40034" lon="6.08925">
        <ele>229</ele>
        <time>2016-11-02T13:15:49Z</time>
      </trkpt>
      <trkpt lat="43.40026" lon="6.08947">
        <ele>228.80000305176</ele>
        <time>2016-11-02T13:15:53Z</time>
      </trkpt>
      <trkpt lat="43.4002" lon="6.08956">
        <ele>228.80000305176</ele>
        <time>2016-11-02T13:15:55Z</time>
      </trkpt>
      <trkpt lat="43.40003" lon="6.08965">
        <ele>228.60000610352</ele>
        <time>2016-11-02T13:15:59Z</time>
      </trkpt>
      <trkpt lat="43.3998" lon="6.08971">
        <ele>229.19999694824</ele>
        <time>2016-11-02T13:16:04Z</time>
      </trkpt>
      <trkpt lat="43.3997" lon="6.08972">
        <ele>229.19999694824</ele>
        <time>2016-11-02T13:16:06Z</time>
      </trkpt>
      <trkpt lat="43.39955" lon="6.08975">
        <ele>229.39999389648</ele>
        <time>2016-11-02T13:16:09Z</time>
      </trkpt>
      <trkpt lat="43.39942" lon="6.08978">
        <ele>229.80000305176</ele>
        <time>2016-11-02T13:16:12Z</time>
      </trkpt>
      <trkpt lat="43.3993" lon="6.08981">
        <ele>230.80000305176</ele>
        <time>2016-11-02T13:16:15Z</time>
      </trkpt>
      <trkpt lat="43.39927" lon="6.08982">
        <ele>231.19999694824</ele>
        <time>2016-11-02T13:16:16Z</time>
      </trkpt>
      <trkpt lat="43.39916" lon="6.08981">
        <ele>232.60000610352</ele>
        <time>2016-11-02T13:16:19Z</time>
      </trkpt>
      <trkpt lat="43.39907" lon="6.08981">
        <ele>233.19999694824</ele>
        <time>2016-11-02T13:16:22Z</time>
      </trkpt>
      <trkpt lat="43.39894" lon="6.08985">
        <ele>233.60000610352</ele>
        <time>2016-11-02T13:16:26Z</time>
      </trkpt>
      <trkpt lat="43.39884" lon="6.08991">
        <ele>233.60000610352</ele>
        <time>2016-11-02T13:16:29Z</time>
      </trkpt>
      <trkpt lat="43.39873" lon="6.08999">
        <ele>234.39999389648</ele>
        <time>2016-11-02T13:16:33Z</time>
      </trkpt>
      <trkpt lat="43.39858" lon="6.09017">
        <ele>235</ele>
        <time>2016-11-02T13:16:39Z</time>
      </trkpt>
      <trkpt lat="43.39853" lon="6.09023">
        <ele>235.39999389648</ele>
        <time>2016-11-02T13:16:41Z</time>
      </trkpt>
      <trkpt lat="43.39833" lon="6.09041">
        <ele>236.39999389648</ele>
        <time>2016-11-02T13:16:48Z</time>
      </trkpt>
      <trkpt lat="43.39831" lon="6.09044">
        <ele>236.60000610352</ele>
        <time>2016-11-02T13:16:49Z</time>
      </trkpt>
      <trkpt lat="43.39817" lon="6.09075">
        <ele>237.60000610352</ele>
        <time>2016-11-02T13:16:58Z</time>
      </trkpt>
      <trkpt lat="43.39815" lon="6.0908">
        <ele>237.60000610352</ele>
        <time>2016-11-02T13:16:59Z</time>
      </trkpt>
      <trkpt lat="43.39808" lon="6.09102">
        <ele>237.60000610352</ele>
        <time>2016-11-02T13:17:04Z</time>
      </trkpt>
      <trkpt lat="43.39803" lon="6.09119">
        <ele>237.39999389648</ele>
        <time>2016-11-02T13:17:07Z</time>
      </trkpt>
      <trkpt lat="43.39801" lon="6.0913">
        <ele>237</ele>
        <time>2016-11-02T13:17:09Z</time>
      </trkpt>
      <trkpt lat="43.398" lon="6.09143">
        <ele>236.39999389648</ele>
        <time>2016-11-02T13:17:11Z</time>
      </trkpt>
      <trkpt lat="43.39798" lon="6.09176">
        <ele>235.80000305176</ele>
        <time>2016-11-02T13:17:16Z</time>
      </trkpt>
      <trkpt lat="43.39798" lon="6.09184">
        <ele>235.60000610352</ele>
        <time>2016-11-02T13:17:17Z</time>
      </trkpt>
      <trkpt lat="43.39798" lon="6.09192">
        <ele>235.39999389648</ele>
        <time>2016-11-02T13:17:18Z</time>
      </trkpt>
      <trkpt lat="43.39798" lon="6.092">
        <ele>235.19999694824</ele>
        <time>2016-11-02T13:17:19Z</time>
      </trkpt>
      <trkpt lat="43.39797" lon="6.09223">
        <ele>235</ele>
        <time>2016-11-02T13:17:22Z</time>
      </trkpt>
      <trkpt lat="43.39791" lon="6.09258">
        <ele>234.39999389648</ele>
        <time>2016-11-02T13:17:27Z</time>
      </trkpt>
      <trkpt lat="43.39789" lon="6.09272">
        <ele>234.19999694824</ele>
        <time>2016-11-02T13:17:29Z</time>
      </trkpt>
      <trkpt lat="43.39783" lon="6.09291">
        <ele>234</ele>
        <time>2016-11-02T13:17:32Z</time>
      </trkpt>
      <trkpt lat="43.3978" lon="6.09302">
        <ele>234</ele>
        <time>2016-11-02T13:17:34Z</time>
      </trkpt>
      <trkpt lat="43.39774" lon="6.0932">
        <ele>233.80000305176</ele>
        <time>2016-11-02T13:17:38Z</time>
      </trkpt>
      <trkpt lat="43.39774" lon="6.09322">
        <ele>233.80000305176</ele>
        <time>2016-11-02T13:17:39Z</time>
      </trkpt>
      <trkpt lat="43.39776" lon="6.09327">
        <ele>234.19999694824</ele>
        <time>2016-11-02T13:17:48Z</time>
      </trkpt>
      <trkpt lat="43.39776" lon="6.09327">
        <ele>234.19999694824</ele>
        <time>2016-11-02T13:17:49Z</time>
      </trkpt>
      <trkpt lat="43.39776" lon="6.09327">
        <ele>234.19999694824</ele>
        <time>2016-11-02T13:17:59Z</time>
      </trkpt>
      <trkpt lat="43.39775" lon="6.09328">
        <ele>233.80000305176</ele>
        <time>2016-11-02T13:18:19Z</time>
      </trkpt>
      <trkpt lat="43.39775" lon="6.09328">
        <ele>234</ele>
        <time>2016-11-02T13:18:29Z</time>
      </trkpt>
      <trkpt lat="43.39776" lon="6.09328">
        <ele>234.60000610352</ele>
        <time>2016-11-02T13:18:39Z</time>
      </trkpt>
      <trkpt lat="43.39776" lon="6.09328">
        <ele>233.80000305176</ele>
        <time>2016-11-02T13:18:49Z</time>
      </trkpt>
      <trkpt lat="43.39776" lon="6.09328">
        <ele>233.80000305176</ele>
        <time>2016-11-02T13:19:29Z</time>
      </trkpt>
      <trkpt lat="43.39777" lon="6.09329">
        <ele>233.80000305176</ele>
        <time>2016-11-02T13:19:44Z</time>
      </trkpt>
      <trkpt lat="43.3978" lon="6.09332">
        <ele>233.19999694824</ele>
        <time>2016-11-02T13:19:47Z</time>
      </trkpt>
      <trkpt lat="43.39784" lon="6.09335">
        <ele>232.80000305176</ele>
        <time>2016-11-02T13:19:49Z</time>
      </trkpt>
      <trkpt lat="43.39794" lon="6.09361">
        <ele>232.39999389648</ele>
        <time>2016-11-02T13:19:56Z</time>
      </trkpt>
      <trkpt lat="43.39801" lon="6.09362">
        <ele>232.19999694824</ele>
        <time>2016-11-02T13:19:59Z</time>
      </trkpt>
      <trkpt lat="43.39803" lon="6.09362">
        <ele>232.39999389648</ele>
        <time>2016-11-02T13:20:00Z</time>
      </trkpt>
      <trkpt lat="43.39805" lon="6.09373">
        <ele>232.39999389648</ele>
        <time>2016-11-02T13:20:03Z</time>
      </trkpt>
      <trkpt lat="43.39804" lon="6.09382">
        <ele>232.39999389648</ele>
        <time>2016-11-02T13:20:05Z</time>
      </trkpt>
      <trkpt lat="43.39804" lon="6.09391">
        <ele>232.39999389648</ele>
        <time>2016-11-02T13:20:07Z</time>
      </trkpt>
      <trkpt lat="43.39806" lon="6.09399">
        <ele>233</ele>
        <time>2016-11-02T13:20:09Z</time>
      </trkpt>
      <trkpt lat="43.3981" lon="6.09414">
        <ele>234.60000610352</ele>
        <time>2016-11-02T13:20:13Z</time>
      </trkpt>
      <trkpt lat="43.39814" lon="6.09424">
        <ele>235.19999694824</ele>
        <time>2016-11-02T13:20:16Z</time>
      </trkpt>
      <trkpt lat="43.39821" lon="6.0944">
        <ele>235.80000305176</ele>
        <time>2016-11-02T13:20:21Z</time>
      </trkpt>
      <trkpt lat="43.39824" lon="6.09451">
        <ele>236.80000305176</ele>
        <time>2016-11-02T13:20:24Z</time>
      </trkpt>
      <trkpt lat="43.39826" lon="6.09465">
        <ele>237.39999389648</ele>
        <time>2016-11-02T13:20:28Z</time>
      </trkpt>
      <trkpt lat="43.3983" lon="6.09475">
        <ele>237.80000305176</ele>
        <time>2016-11-02T13:20:31Z</time>
      </trkpt>
      <trkpt lat="43.39832" lon="6.09484">
        <ele>238.60000610352</ele>
        <time>2016-11-02T13:20:34Z</time>
      </trkpt>
      <trkpt lat="43.39833" lon="6.09495">
        <ele>239.80000305176</ele>
        <time>2016-11-02T13:20:38Z</time>
      </trkpt>
      <trkpt lat="43.39833" lon="6.09497">
        <ele>240</ele>
        <time>2016-11-02T13:20:39Z</time>
      </trkpt>
      <trkpt lat="43.39834" lon="6.09505">
        <ele>240.39999389648</ele>
        <time>2016-11-02T13:20:42Z</time>
      </trkpt>
      <trkpt lat="43.39833" lon="6.09515">
        <ele>241.19999694824</ele>
        <time>2016-11-02T13:20:46Z</time>
      </trkpt>
      <trkpt lat="43.39831" lon="6.09521">
        <ele>242.39999389648</ele>
        <time>2016-11-02T13:20:49Z</time>
      </trkpt>
      <trkpt lat="43.39832" lon="6.09537">
        <ele>243.39999389648</ele>
        <time>2016-11-02T13:20:57Z</time>
      </trkpt>
      <trkpt lat="43.39833" lon="6.09541">
        <ele>243.60000610352</ele>
        <time>2016-11-02T13:20:59Z</time>
      </trkpt>
      <trkpt lat="43.39842" lon="6.09557">
        <ele>245.39999389648</ele>
        <time>2016-11-02T13:21:09Z</time>
      </trkpt>
      <trkpt lat="43.39843" lon="6.09558">
        <ele>245.60000610352</ele>
        <time>2016-11-02T13:21:10Z</time>
      </trkpt>
      <trkpt lat="43.39847" lon="6.09566">
        <ele>247</ele>
        <time>2016-11-02T13:21:15Z</time>
      </trkpt>
      <trkpt lat="43.39849" lon="6.09572">
        <ele>248.19999694824</ele>
        <time>2016-11-02T13:21:19Z</time>
      </trkpt>
      <trkpt lat="43.39853" lon="6.0958">
        <ele>249.19999694824</ele>
        <time>2016-11-02T13:21:26Z</time>
      </trkpt>
      <trkpt lat="43.39856" lon="6.09586">
        <ele>250.19999694824</ele>
        <time>2016-11-02T13:21:31Z</time>
      </trkpt>
      <trkpt lat="43.39861" lon="6.09593">
        <ele>251.19999694824</ele>
        <time>2016-11-02T13:21:38Z</time>
      </trkpt>
      <trkpt lat="43.39862" lon="6.09598">
        <ele>252.39999389648</ele>
        <time>2016-11-02T13:21:42Z</time>
      </trkpt>
      <trkpt lat="43.39866" lon="6.09605">
        <ele>253.60000610352</ele>
        <time>2016-11-02T13:21:49Z</time>
      </trkpt>
      <trkpt lat="43.39869" lon="6.09614">
        <ele>254.60000610352</ele>
        <time>2016-11-02T13:21:57Z</time>
      </trkpt>
      <trkpt lat="43.3987" lon="6.09617">
        <ele>254.80000305176</ele>
        <time>2016-11-02T13:21:59Z</time>
      </trkpt>
      <trkpt lat="43.39871" lon="6.09627">
        <ele>255.80000305176</ele>
        <time>2016-11-02T13:22:06Z</time>
      </trkpt>
      <trkpt lat="43.39872" lon="6.09636">
        <ele>256.39999389648</ele>
        <time>2016-11-02T13:22:13Z</time>
      </trkpt>
      <trkpt lat="43.39873" lon="6.09639">
        <ele>257</ele>
        <time>2016-11-02T13:22:16Z</time>
      </trkpt>
      <trkpt lat="43.39874" lon="6.09645">
        <ele>257.79998779297</ele>
        <time>2016-11-02T13:22:20Z</time>
      </trkpt>
      <trkpt lat="43.39875" lon="6.09648">
        <ele>258.20001220703</ele>
        <time>2016-11-02T13:22:22Z</time>
      </trkpt>
      <trkpt lat="43.3988" lon="6.09656">
        <ele>259.79998779297</ele>
        <time>2016-11-02T13:22:29Z</time>
      </trkpt>
      <trkpt lat="43.39887" lon="6.09667">
        <ele>260.39999389648</ele>
        <time>2016-11-02T13:22:39Z</time>
      </trkpt>
      <trkpt lat="43.3989" lon="6.09682">
        <ele>261.39999389648</ele>
        <time>2016-11-02T13:22:49Z</time>
      </trkpt>
      <trkpt lat="43.3989" lon="6.09684">
        <ele>261.60000610352</ele>
        <time>2016-11-02T13:22:52Z</time>
      </trkpt>
      <trkpt lat="43.3989" lon="6.09684">
        <ele>261.79998779297</ele>
        <time>2016-11-02T13:22:55Z</time>
      </trkpt>
      <trkpt lat="43.3989" lon="6.09684">
        <ele>261.79998779297</ele>
        <time>2016-11-02T13:22:59Z</time>
      </trkpt>
      <trkpt lat="43.3989" lon="6.09684">
        <ele>261.60000610352</ele>
        <time>2016-11-02T13:23:03Z</time>
      </trkpt>
      <trkpt lat="43.3989" lon="6.09683">
        <ele>261.60000610352</ele>
        <time>2016-11-02T13:23:09Z</time>
      </trkpt>
      <trkpt lat="43.3989" lon="6.09683">
        <ele>261.79998779297</ele>
        <time>2016-11-02T13:23:15Z</time>
      </trkpt>
      <trkpt lat="43.3989" lon="6.09683">
        <ele>261.79998779297</ele>
        <time>2016-11-02T13:23:19Z</time>
      </trkpt>
      <trkpt lat="43.3989" lon="6.09683">
        <ele>261.79998779297</ele>
        <time>2016-11-02T13:23:21Z</time>
      </trkpt>
      <trkpt lat="43.3989" lon="6.09687">
        <ele>261.60000610352</ele>
        <time>2016-11-02T13:23:27Z</time>
      </trkpt>
      <trkpt lat="43.3989" lon="6.09692">
        <ele>261.60000610352</ele>
        <time>2016-11-02T13:23:29Z</time>
      </trkpt>
      <trkpt lat="43.39899" lon="6.09727">
        <ele>261.60000610352</ele>
        <time>2016-11-02T13:23:39Z</time>
      </trkpt>
      <trkpt lat="43.39903" lon="6.09755">
        <ele>260.39999389648</ele>
        <time>2016-11-02T13:23:44Z</time>
      </trkpt>
      <trkpt lat="43.39906" lon="6.09781">
        <ele>259.79998779297</ele>
        <time>2016-11-02T13:23:48Z</time>
      </trkpt>
      <trkpt lat="43.39905" lon="6.09794">
        <ele>259.79998779297</ele>
        <time>2016-11-02T13:23:50Z</time>
      </trkpt>
      <trkpt lat="43.39906" lon="6.09816">
        <ele>259.20001220703</ele>
        <time>2016-11-02T13:23:53Z</time>
      </trkpt>
      <trkpt lat="43.39905" lon="6.09839">
        <ele>258.39999389648</ele>
        <time>2016-11-02T13:23:56Z</time>
      </trkpt>
      <trkpt lat="43.39904" lon="6.09864">
        <ele>256.79998779297</ele>
        <time>2016-11-02T13:23:59Z</time>
      </trkpt>
      <trkpt lat="43.39904" lon="6.09872">
        <ele>256</ele>
        <time>2016-11-02T13:24:00Z</time>
      </trkpt>
      <trkpt lat="43.39903" lon="6.0988">
        <ele>255.39999389648</ele>
        <time>2016-11-02T13:24:01Z</time>
      </trkpt>
      <trkpt lat="43.39902" lon="6.09888">
        <ele>255</ele>
        <time>2016-11-02T13:24:02Z</time>
      </trkpt>
      <trkpt lat="43.399" lon="6.09905">
        <ele>254.19999694824</ele>
        <time>2016-11-02T13:24:04Z</time>
      </trkpt>
      <trkpt lat="43.39902" lon="6.09933">
        <ele>253</ele>
        <time>2016-11-02T13:24:07Z</time>
      </trkpt>
      <trkpt lat="43.39904" lon="6.09951">
        <ele>252</ele>
        <time>2016-11-02T13:24:09Z</time>
      </trkpt>
      <trkpt lat="43.39906" lon="6.09969">
        <ele>251</ele>
        <time>2016-11-02T13:24:11Z</time>
      </trkpt>
      <trkpt lat="43.39905" lon="6.09977">
        <ele>250.60000610352</ele>
        <time>2016-11-02T13:24:12Z</time>
      </trkpt>
      <trkpt lat="43.39906" lon="6.09983">
        <ele>250.39999389648</ele>
        <time>2016-11-02T13:24:13Z</time>
      </trkpt>
      <trkpt lat="43.39907" lon="6.09995">
        <ele>250</ele>
        <time>2016-11-02T13:24:15Z</time>
      </trkpt>
      <trkpt lat="43.39902" lon="6.10006">
        <ele>250.19999694824</ele>
        <time>2016-11-02T13:24:17Z</time>
      </trkpt>
      <trkpt lat="43.39899" lon="6.10018">
        <ele>250</ele>
        <time>2016-11-02T13:24:19Z</time>
      </trkpt>
      <trkpt lat="43.39901" lon="6.10043">
        <ele>249.60000610352</ele>
        <time>2016-11-02T13:24:23Z</time>
      </trkpt>
      <trkpt lat="43.39902" lon="6.10056">
        <ele>248.80000305176</ele>
        <time>2016-11-02T13:24:25Z</time>
      </trkpt>
      <trkpt lat="43.39903" lon="6.10064">
        <ele>248.39999389648</ele>
        <time>2016-11-02T13:24:26Z</time>
      </trkpt>
      <trkpt lat="43.39904" lon="6.10082">
        <ele>248.19999694824</ele>
        <time>2016-11-02T13:24:29Z</time>
      </trkpt>
      <trkpt lat="43.39909" lon="6.10096">
        <ele>247.80000305176</ele>
        <time>2016-11-02T13:24:32Z</time>
      </trkpt>
      <trkpt lat="43.39909" lon="6.10108">
        <ele>247.60000610352</ele>
        <time>2016-11-02T13:24:34Z</time>
      </trkpt>
      <trkpt lat="43.39907" lon="6.10121">
        <ele>247.19999694824</ele>
        <time>2016-11-02T13:24:36Z</time>
      </trkpt>
      <trkpt lat="43.39906" lon="6.1014">
        <ele>247</ele>
        <time>2016-11-02T13:24:39Z</time>
      </trkpt>
      <trkpt lat="43.39904" lon="6.10157">
        <ele>247.39999389648</ele>
        <time>2016-11-02T13:24:42Z</time>
      </trkpt>
      <trkpt lat="43.39899" lon="6.10179">
        <ele>247.80000305176</ele>
        <time>2016-11-02T13:24:46Z</time>
      </trkpt>
      <trkpt lat="43.399" lon="6.10199">
        <ele>248.39999389648</ele>
        <time>2016-11-02T13:24:50Z</time>
      </trkpt>
      <trkpt lat="43.39901" lon="6.10218">
        <ele>249.39999389648</ele>
        <time>2016-11-02T13:24:54Z</time>
      </trkpt>
      <trkpt lat="43.39902" lon="6.1023">
        <ele>250.39999389648</ele>
        <time>2016-11-02T13:24:57Z</time>
      </trkpt>
      <trkpt lat="43.39907" lon="6.1025">
        <ele>251.39999389648</ele>
        <time>2016-11-02T13:25:02Z</time>
      </trkpt>
      <trkpt lat="43.39908" lon="6.10254">
        <ele>251.39999389648</ele>
        <time>2016-11-02T13:25:03Z</time>
      </trkpt>
      <trkpt lat="43.39909" lon="6.10265">
        <ele>252.60000610352</ele>
        <time>2016-11-02T13:25:06Z</time>
      </trkpt>
      <trkpt lat="43.39911" lon="6.10274">
        <ele>253.60000610352</ele>
        <time>2016-11-02T13:25:09Z</time>
      </trkpt>
      <trkpt lat="43.39922" lon="6.10309">
        <ele>253.80000305176</ele>
        <time>2016-11-02T13:25:19Z</time>
      </trkpt>
      <trkpt lat="43.39925" lon="6.10325">
        <ele>253.80000305176</ele>
        <time>2016-11-02T13:25:23Z</time>
      </trkpt>
      <trkpt lat="43.3993" lon="6.10347">
        <ele>253.19999694824</ele>
        <time>2016-11-02T13:25:28Z</time>
      </trkpt>
      <trkpt lat="43.39931" lon="6.10352">
        <ele>253.19999694824</ele>
        <time>2016-11-02T13:25:29Z</time>
      </trkpt>
      <trkpt lat="43.39931" lon="6.10365">
        <ele>253</ele>
        <time>2016-11-02T13:25:32Z</time>
      </trkpt>
      <trkpt lat="43.39933" lon="6.10399">
        <ele>253</ele>
        <time>2016-11-02T13:25:39Z</time>
      </trkpt>
      <trkpt lat="43.39933" lon="6.10416">
        <ele>252.80000305176</ele>
        <time>2016-11-02T13:25:43Z</time>
      </trkpt>
      <trkpt lat="43.39934" lon="6.10421">
        <ele>252.60000610352</ele>
        <time>2016-11-02T13:25:44Z</time>
      </trkpt>
      <trkpt lat="43.39937" lon="6.10436">
        <ele>252.19999694824</ele>
        <time>2016-11-02T13:25:47Z</time>
      </trkpt>
      <trkpt lat="43.39938" lon="6.10446">
        <ele>252</ele>
        <time>2016-11-02T13:25:49Z</time>
      </trkpt>
      <trkpt lat="43.39939" lon="6.10462">
        <ele>251.60000610352</ele>
        <time>2016-11-02T13:25:52Z</time>
      </trkpt>
      <trkpt lat="43.39939" lon="6.10503">
        <ele>251.19999694824</ele>
        <time>2016-11-02T13:25:59Z</time>
      </trkpt>
      <trkpt lat="43.39941" lon="6.10536">
        <ele>251.39999389648</ele>
        <time>2016-11-02T13:26:06Z</time>
      </trkpt>
      <trkpt lat="43.39942" lon="6.10545">
        <ele>251.19999694824</ele>
        <time>2016-11-02T13:26:09Z</time>
      </trkpt>
      <trkpt lat="43.39944" lon="6.10584">
        <ele>250.19999694824</ele>
        <time>2016-11-02T13:26:17Z</time>
      </trkpt>
      <trkpt lat="43.39943" lon="6.10592">
        <ele>249.80000305176</ele>
        <time>2016-11-02T13:26:18Z</time>
      </trkpt>
      <trkpt lat="43.39942" lon="6.10601">
        <ele>249.19999694824</ele>
        <time>2016-11-02T13:26:19Z</time>
      </trkpt>
      <trkpt lat="43.39941" lon="6.1061">
        <ele>248.80000305176</ele>
        <time>2016-11-02T13:26:20Z</time>
      </trkpt>
      <trkpt lat="43.39941" lon="6.10629">
        <ele>247.39999389648</ele>
        <time>2016-11-02T13:26:22Z</time>
      </trkpt>
      <trkpt lat="43.39941" lon="6.10663">
        <ele>246.19999694824</ele>
        <time>2016-11-02T13:26:26Z</time>
      </trkpt>
      <trkpt lat="43.39942" lon="6.10687">
        <ele>246.19999694824</ele>
        <time>2016-11-02T13:26:29Z</time>
      </trkpt>
      <trkpt lat="43.39942" lon="6.10717">
        <ele>246.39999389648</ele>
        <time>2016-11-02T13:26:33Z</time>
      </trkpt>
      <trkpt lat="43.3994" lon="6.10744">
        <ele>247.60000610352</ele>
        <time>2016-11-02T13:26:37Z</time>
      </trkpt>
      <trkpt lat="43.39939" lon="6.10756">
        <ele>247.80000305176</ele>
        <time>2016-11-02T13:26:39Z</time>
      </trkpt>
      <trkpt lat="43.39938" lon="6.10775">
        <ele>248</ele>
        <time>2016-11-02T13:26:42Z</time>
      </trkpt>
      <trkpt lat="43.3994" lon="6.10797">
        <ele>247.39999389648</ele>
        <time>2016-11-02T13:26:45Z</time>
      </trkpt>
      <trkpt lat="43.39944" lon="6.10826">
        <ele>246.39999389648</ele>
        <time>2016-11-02T13:26:49Z</time>
      </trkpt>
      <trkpt lat="43.39952" lon="6.10865">
        <ele>246.80000305176</ele>
        <time>2016-11-02T13:26:55Z</time>
      </trkpt>
      <trkpt lat="43.39956" lon="6.1089">
        <ele>247.39999389648</ele>
        <time>2016-11-02T13:26:59Z</time>
      </trkpt>
      <trkpt lat="43.39959" lon="6.10927">
        <ele>248.19999694824</ele>
        <time>2016-11-02T13:27:05Z</time>
      </trkpt>
      <trkpt lat="43.39959" lon="6.10938">
        <ele>248.60000610352</ele>
        <time>2016-11-02T13:27:07Z</time>
      </trkpt>
      <trkpt lat="43.3996" lon="6.10948">
        <ele>249</ele>
        <time>2016-11-02T13:27:09Z</time>
      </trkpt>
      <trkpt lat="43.39961" lon="6.10962">
        <ele>249.60000610352</ele>
        <time>2016-11-02T13:27:12Z</time>
      </trkpt>
      <trkpt lat="43.39963" lon="6.10985">
        <ele>250.19999694824</ele>
        <time>2016-11-02T13:27:16Z</time>
      </trkpt>
      <trkpt lat="43.39964" lon="6.10991">
        <ele>250.19999694824</ele>
        <time>2016-11-02T13:27:17Z</time>
      </trkpt>
      <trkpt lat="43.39965" lon="6.11002">
        <ele>250.39999389648</ele>
        <time>2016-11-02T13:27:19Z</time>
      </trkpt>
      <trkpt lat="43.39965" lon="6.1104">
        <ele>252</ele>
        <time>2016-11-02T13:27:27Z</time>
      </trkpt>
      <trkpt lat="43.39966" lon="6.11048">
        <ele>252.39999389648</ele>
        <time>2016-11-02T13:27:29Z</time>
      </trkpt>
      <trkpt lat="43.39965" lon="6.11093">
        <ele>253</ele>
        <time>2016-11-02T13:27:39Z</time>
      </trkpt>
      <trkpt lat="43.39958" lon="6.11178">
        <ele>252.80000305176</ele>
        <time>2016-11-02T13:27:56Z</time>
      </trkpt>
      <trkpt lat="43.39958" lon="6.11194">
        <ele>252.80000305176</ele>
        <time>2016-11-02T13:27:59Z</time>
      </trkpt>
      <trkpt lat="43.39952" lon="6.11302">
        <ele>253.39999389648</ele>
        <time>2016-11-02T13:28:19Z</time>
      </trkpt>
      <trkpt lat="43.39951" lon="6.11333">
        <ele>253.60000610352</ele>
        <time>2016-11-02T13:28:25Z</time>
      </trkpt>
      <trkpt lat="43.39951" lon="6.11354">
        <ele>254</ele>
        <time>2016-11-02T13:28:29Z</time>
      </trkpt>
      <trkpt lat="43.39948" lon="6.11393">
        <ele>254.39999389648</ele>
        <time>2016-11-02T13:28:36Z</time>
      </trkpt>
      <trkpt lat="43.39946" lon="6.11408">
        <ele>255</ele>
        <time>2016-11-02T13:28:39Z</time>
      </trkpt>
      <trkpt lat="43.39945" lon="6.11427">
        <ele>255.60000610352</ele>
        <time>2016-11-02T13:28:43Z</time>
      </trkpt>
      <trkpt lat="43.39943" lon="6.11456">
        <ele>256.20001220703</ele>
        <time>2016-11-02T13:28:49Z</time>
      </trkpt>
      <trkpt lat="43.39942" lon="6.11474">
        <ele>256.20001220703</ele>
        <time>2016-11-02T13:28:54Z</time>
      </trkpt>
      <trkpt lat="43.39943" lon="6.11483">
        <ele>256.20001220703</ele>
        <time>2016-11-02T13:28:59Z</time>
      </trkpt>
      <trkpt lat="43.39942" lon="6.11496">
        <ele>256.20001220703</ele>
        <time>2016-11-02T13:29:04Z</time>
      </trkpt>
      <trkpt lat="43.39942" lon="6.11517">
        <ele>255.80000305176</ele>
        <time>2016-11-02T13:29:09Z</time>
      </trkpt>
      <trkpt lat="43.39943" lon="6.11539">
        <ele>256.79998779297</ele>
        <time>2016-11-02T13:29:14Z</time>
      </trkpt>
      <trkpt lat="43.39937" lon="6.1156">
        <ele>257.20001220703</ele>
        <time>2016-11-02T13:29:19Z</time>
      </trkpt>
      <trkpt lat="43.39924" lon="6.11603">
        <ele>257.39999389648</ele>
        <time>2016-11-02T13:29:29Z</time>
      </trkpt>
      <trkpt lat="43.39926" lon="6.11626">
        <ele>258</ele>
        <time>2016-11-02T13:29:34Z</time>
      </trkpt>
      <trkpt lat="43.39926" lon="6.11642">
        <ele>259</ele>
        <time>2016-11-02T13:29:38Z</time>
      </trkpt>
      <trkpt lat="43.39925" lon="6.11646">
        <ele>259.20001220703</ele>
        <time>2016-11-02T13:29:39Z</time>
      </trkpt>
      <trkpt lat="43.39923" lon="6.11671">
        <ele>260.20001220703</ele>
        <time>2016-11-02T13:29:45Z</time>
      </trkpt>
      <trkpt lat="43.3992" lon="6.11684">
        <ele>260.60000610352</ele>
        <time>2016-11-02T13:29:49Z</time>
      </trkpt>
      <trkpt lat="43.39913" lon="6.11712">
        <ele>261.60000610352</ele>
        <time>2016-11-02T13:29:57Z</time>
      </trkpt>
      <trkpt lat="43.39911" lon="6.11719">
        <ele>262</ele>
        <time>2016-11-02T13:29:59Z</time>
      </trkpt>
      <trkpt lat="43.39908" lon="6.11727">
        <ele>262.60000610352</ele>
        <time>2016-11-02T13:30:02Z</time>
      </trkpt>
      <trkpt lat="43.39904" lon="6.11753">
        <ele>263.39999389648</ele>
        <time>2016-11-02T13:30:09Z</time>
      </trkpt>
      <trkpt lat="43.39902" lon="6.11771">
        <ele>264.60000610352</ele>
        <time>2016-11-02T13:30:15Z</time>
      </trkpt>
      <trkpt lat="43.39902" lon="6.11781">
        <ele>265</ele>
        <time>2016-11-02T13:30:19Z</time>
      </trkpt>
      <trkpt lat="43.39902" lon="6.11783">
        <ele>265</ele>
        <time>2016-11-02T13:30:20Z</time>
      </trkpt>
      <trkpt lat="43.39899" lon="6.11794">
        <ele>265.39999389648</ele>
        <time>2016-11-02T13:30:26Z</time>
      </trkpt>
      <trkpt lat="43.39899" lon="6.11799">
        <ele>265.79998779297</ele>
        <time>2016-11-02T13:30:29Z</time>
      </trkpt>
      <trkpt lat="43.39895" lon="6.11811">
        <ele>266.60000610352</ele>
        <time>2016-11-02T13:30:38Z</time>
      </trkpt>
      <trkpt lat="43.39895" lon="6.11812">
        <ele>266.79998779297</ele>
        <time>2016-11-02T13:30:39Z</time>
      </trkpt>
      <trkpt lat="43.39889" lon="6.11828">
        <ele>267.79998779297</ele>
        <time>2016-11-02T13:30:50Z</time>
      </trkpt>
      <trkpt lat="43.39878" lon="6.11834">
        <ele>268.79998779297</ele>
        <time>2016-11-02T13:30:59Z</time>
      </trkpt>
      <trkpt lat="43.39865" lon="6.11831">
        <ele>269.39999389648</ele>
        <time>2016-11-02T13:31:09Z</time>
      </trkpt>
      <trkpt lat="43.39854" lon="6.11822">
        <ele>270</ele>
        <time>2016-11-02T13:31:19Z</time>
      </trkpt>
      <trkpt lat="43.39845" lon="6.11819">
        <ele>272</ele>
        <time>2016-11-02T13:31:26Z</time>
      </trkpt>
      <trkpt lat="43.39841" lon="6.11819">
        <ele>272.39999389648</ele>
        <time>2016-11-02T13:31:29Z</time>
      </trkpt>
      <trkpt lat="43.3983" lon="6.11822">
        <ele>273.20001220703</ele>
        <time>2016-11-02T13:31:38Z</time>
      </trkpt>
      <trkpt lat="43.39829" lon="6.11823">
        <ele>273.39999389648</ele>
        <time>2016-11-02T13:31:39Z</time>
      </trkpt>
      <trkpt lat="43.39822" lon="6.11826">
        <ele>274.20001220703</ele>
        <time>2016-11-02T13:31:45Z</time>
      </trkpt>
      <trkpt lat="43.39818" lon="6.11827">
        <ele>274.79998779297</ele>
        <time>2016-11-02T13:31:49Z</time>
      </trkpt>
      <trkpt lat="43.39817" lon="6.11826">
        <ele>275.39999389648</ele>
        <time>2016-11-02T13:31:55Z</time>
      </trkpt>
      <trkpt lat="43.39816" lon="6.11827">
        <ele>275.79998779297</ele>
        <time>2016-11-02T13:31:59Z</time>
      </trkpt>
      <trkpt lat="43.39815" lon="6.11827">
        <ele>275.79998779297</ele>
        <time>2016-11-02T13:32:04Z</time>
      </trkpt>
      <trkpt lat="43.39814" lon="6.11828">
        <ele>276</ele>
        <time>2016-11-02T13:32:08Z</time>
      </trkpt>
      <trkpt lat="43.39814" lon="6.11828">
        <ele>276</ele>
        <time>2016-11-02T13:32:09Z</time>
      </trkpt>
      <trkpt lat="43.39814" lon="6.11826">
        <ele>275.79998779297</ele>
        <time>2016-11-02T13:32:19Z</time>
      </trkpt>
      <trkpt lat="43.39812" lon="6.11827">
        <ele>276.20001220703</ele>
        <time>2016-11-02T13:32:29Z</time>
      </trkpt>
      <trkpt lat="43.39811" lon="6.11826">
        <ele>276.39999389648</ele>
        <time>2016-11-02T13:32:35Z</time>
      </trkpt>
      <trkpt lat="43.3981" lon="6.11825">
        <ele>276.39999389648</ele>
        <time>2016-11-02T13:32:39Z</time>
      </trkpt>
      <trkpt lat="43.39808" lon="6.11825">
        <ele>276.20001220703</ele>
        <time>2016-11-02T13:32:42Z</time>
      </trkpt>
      <trkpt lat="43.39806" lon="6.11829">
        <ele>276.60000610352</ele>
        <time>2016-11-02T13:32:49Z</time>
      </trkpt>
      <trkpt lat="43.39806" lon="6.11829">
        <ele>276.79998779297</ele>
        <time>2016-11-02T13:32:55Z</time>
      </trkpt>
      <trkpt lat="43.39803" lon="6.1183">
        <ele>277.60000610352</ele>
        <time>2016-11-02T13:33:05Z</time>
      </trkpt>
      <trkpt lat="43.39802" lon="6.11831">
        <ele>277.39999389648</ele>
        <time>2016-11-02T13:33:07Z</time>
      </trkpt>
      <trkpt lat="43.398" lon="6.11831">
        <ele>277</ele>
        <time>2016-11-02T13:33:09Z</time>
      </trkpt>
      <trkpt lat="43.39795" lon="6.11833">
        <ele>278</ele>
        <time>2016-11-02T13:33:13Z</time>
      </trkpt>
      <trkpt lat="43.39793" lon="6.11835">
        <ele>278.60000610352</ele>
        <time>2016-11-02T13:33:15Z</time>
      </trkpt>
      <trkpt lat="43.39789" lon="6.11838">
        <ele>279.39999389648</ele>
        <time>2016-11-02T13:33:19Z</time>
      </trkpt>
      <trkpt lat="43.39787" lon="6.1184">
        <ele>279.79998779297</ele>
        <time>2016-11-02T13:33:23Z</time>
      </trkpt>
      <trkpt lat="43.39787" lon="6.1184">
        <ele>280</ele>
        <time>2016-11-02T13:33:29Z</time>
      </trkpt>
      <trkpt lat="43.39787" lon="6.1184">
        <ele>280.79998779297</ele>
        <time>2016-11-02T13:33:39Z</time>
      </trkpt>
      <trkpt lat="43.39786" lon="6.1184">
        <ele>281</ele>
        <time>2016-11-02T13:33:49Z</time>
      </trkpt>
      <trkpt lat="43.39787" lon="6.11839">
        <ele>280.79998779297</ele>
        <time>2016-11-02T13:33:55Z</time>
      </trkpt>
      <trkpt lat="43.39787" lon="6.11839">
        <ele>280.39999389648</ele>
        <time>2016-11-02T13:33:59Z</time>
      </trkpt>
      <trkpt lat="43.39787" lon="6.11839">
        <ele>280.60000610352</ele>
        <time>2016-11-02T13:34:09Z</time>
      </trkpt>
      <trkpt lat="43.39787" lon="6.11839">
        <ele>280.20001220703</ele>
        <time>2016-11-02T13:34:29Z</time>
      </trkpt>
      <trkpt lat="43.39787" lon="6.11839">
        <ele>280.20001220703</ele>
        <time>2016-11-02T13:34:39Z</time>
      </trkpt>
      <trkpt lat="43.39787" lon="6.11839">
        <ele>280.79998779297</ele>
        <time>2016-11-02T13:34:49Z</time>
      </trkpt>
      <trkpt lat="43.39787" lon="6.11839">
        <ele>280.39999389648</ele>
        <time>2016-11-02T13:35:19Z</time>
      </trkpt>
      <trkpt lat="43.39787" lon="6.11837">
        <ele>280.20001220703</ele>
        <time>2016-11-02T13:35:26Z</time>
      </trkpt>
      <trkpt lat="43.39787" lon="6.11834">
        <ele>280.39999389648</ele>
        <time>2016-11-02T13:35:28Z</time>
      </trkpt>
      <trkpt lat="43.39787" lon="6.11832">
        <ele>280.39999389648</ele>
        <time>2016-11-02T13:35:29Z</time>
      </trkpt>
      <trkpt lat="43.39787" lon="6.11824">
        <ele>281.20001220703</ele>
        <time>2016-11-02T13:35:33Z</time>
      </trkpt>
      <trkpt lat="43.39788" lon="6.11821">
        <ele>282.20001220703</ele>
        <time>2016-11-02T13:35:35Z</time>
      </trkpt>
      <trkpt lat="43.39788" lon="6.11819">
        <ele>282.60000610352</ele>
        <time>2016-11-02T13:35:36Z</time>
      </trkpt>
      <trkpt lat="43.39788" lon="6.11817">
        <ele>283.20001220703</ele>
        <time>2016-11-02T13:35:39Z</time>
      </trkpt>
      <trkpt lat="43.39787" lon="6.11816">
        <ele>283.39999389648</ele>
        <time>2016-11-02T13:35:41Z</time>
      </trkpt>
      <trkpt lat="43.39786" lon="6.11815">
        <ele>284.20001220703</ele>
        <time>2016-11-02T13:35:49Z</time>
      </trkpt>
      <trkpt lat="43.39785" lon="6.11814">
        <ele>284.20001220703</ele>
        <time>2016-11-02T13:35:51Z</time>
      </trkpt>
      <trkpt lat="43.39784" lon="6.11814">
        <ele>284.20001220703</ele>
        <time>2016-11-02T13:35:59Z</time>
      </trkpt>
      <trkpt lat="43.39788" lon="6.11811">
        <ele>283.79998779297</ele>
        <time>2016-11-02T13:36:09Z</time>
      </trkpt>
      <trkpt lat="43.39789" lon="6.1181">
        <ele>284.39999389648</ele>
        <time>2016-11-02T13:36:19Z</time>
      </trkpt>
      <trkpt lat="43.3979" lon="6.11808">
        <ele>284.60000610352</ele>
        <time>2016-11-02T13:36:21Z</time>
      </trkpt>
      <trkpt lat="43.39789" lon="6.11805">
        <ele>285</ele>
        <time>2016-11-02T13:36:23Z</time>
      </trkpt>
      <trkpt lat="43.39787" lon="6.11803">
        <ele>285.39999389648</ele>
        <time>2016-11-02T13:36:25Z</time>
      </trkpt>
      <trkpt lat="43.39785" lon="6.11798">
        <ele>286.39999389648</ele>
        <time>2016-11-02T13:36:28Z</time>
      </trkpt>
      <trkpt lat="43.39784" lon="6.11796">
        <ele>286.60000610352</ele>
        <time>2016-11-02T13:36:29Z</time>
      </trkpt>
      <trkpt lat="43.39782" lon="6.1179">
        <ele>287.79998779297</ele>
        <time>2016-11-02T13:36:32Z</time>
      </trkpt>
      <trkpt lat="43.3978" lon="6.11781">
        <ele>289</ele>
        <time>2016-11-02T13:36:36Z</time>
      </trkpt>
      <trkpt lat="43.39776" lon="6.1177">
        <ele>290.20001220703</ele>
        <time>2016-11-02T13:36:43Z</time>
      </trkpt>
      <trkpt lat="43.39775" lon="6.11765">
        <ele>291.20001220703</ele>
        <time>2016-11-02T13:36:46Z</time>
      </trkpt>
      <trkpt lat="43.39774" lon="6.1176">
        <ele>292.39999389648</ele>
        <time>2016-11-02T13:36:50Z</time>
      </trkpt>
      <trkpt lat="43.39772" lon="6.11756">
        <ele>293.39999389648</ele>
        <time>2016-11-02T13:36:54Z</time>
      </trkpt>
      <trkpt lat="43.39769" lon="6.11748">
        <ele>294</ele>
        <time>2016-11-02T13:36:59Z</time>
      </trkpt>
      <trkpt lat="43.39767" lon="6.11741">
        <ele>294.60000610352</ele>
        <time>2016-11-02T13:37:04Z</time>
      </trkpt>
      <trkpt lat="43.39764" lon="6.11736">
        <ele>295.60000610352</ele>
        <time>2016-11-02T13:37:08Z</time>
      </trkpt>
      <trkpt lat="43.39759" lon="6.11726">
        <ele>296.79998779297</ele>
        <time>2016-11-02T13:37:16Z</time>
      </trkpt>
      <trkpt lat="43.39757" lon="6.11722">
        <ele>297</ele>
        <time>2016-11-02T13:37:19Z</time>
      </trkpt>
      <trkpt lat="43.39755" lon="6.11717">
        <ele>298</ele>
        <time>2016-11-02T13:37:23Z</time>
      </trkpt>
      <trkpt lat="43.39748" lon="6.11703">
        <ele>299</ele>
        <time>2016-11-02T13:37:35Z</time>
      </trkpt>
      <trkpt lat="43.39746" lon="6.11698">
        <ele>299.79998779297</ele>
        <time>2016-11-02T13:37:39Z</time>
      </trkpt>
      <trkpt lat="43.39746" lon="6.11696">
        <ele>300</ele>
        <time>2016-11-02T13:37:41Z</time>
      </trkpt>
      <trkpt lat="43.39744" lon="6.11691">
        <ele>300.79998779297</ele>
        <time>2016-11-02T13:37:48Z</time>
      </trkpt>
      <trkpt lat="43.39744" lon="6.11691">
        <ele>300.60000610352</ele>
        <time>2016-11-02T13:37:56Z</time>
      </trkpt>
      <trkpt lat="43.39744" lon="6.11691">
        <ele>300.79998779297</ele>
        <time>2016-11-02T13:38:15Z</time>
      </trkpt>
      <trkpt lat="43.39745" lon="6.1169">
        <ele>300.79998779297</ele>
        <time>2016-11-02T13:38:19Z</time>
      </trkpt>
      <trkpt lat="43.39745" lon="6.11691">
        <ele>300.79998779297</ele>
        <time>2016-11-02T13:38:36Z</time>
      </trkpt>
      <trkpt lat="43.39745" lon="6.11691">
        <ele>300.79998779297</ele>
        <time>2016-11-02T13:38:39Z</time>
      </trkpt>
      <trkpt lat="43.39744" lon="6.1169">
        <ele>301</ele>
        <time>2016-11-02T13:38:44Z</time>
      </trkpt>
      <trkpt lat="43.39744" lon="6.1169">
        <ele>300.79998779297</ele>
        <time>2016-11-02T13:38:49Z</time>
      </trkpt>
      <trkpt lat="43.39743" lon="6.1169">
        <ele>300.79998779297</ele>
        <time>2016-11-02T13:38:59Z</time>
      </trkpt>
      <trkpt lat="43.39743" lon="6.11689">
        <ele>300.79998779297</ele>
        <time>2016-11-02T13:39:01Z</time>
      </trkpt>
      <trkpt lat="43.39742" lon="6.11688">
        <ele>300.79998779297</ele>
        <time>2016-11-02T13:39:03Z</time>
      </trkpt>
      <trkpt lat="43.39738" lon="6.11686">
        <ele>301.39999389648</ele>
        <time>2016-11-02T13:39:06Z</time>
      </trkpt>
      <trkpt lat="43.39736" lon="6.11685">
        <ele>301.79998779297</ele>
        <time>2016-11-02T13:39:07Z</time>
      </trkpt>
      <trkpt lat="43.39733" lon="6.11683">
        <ele>301.79998779297</ele>
        <time>2016-11-02T13:39:09Z</time>
      </trkpt>
      <trkpt lat="43.39722" lon="6.11675">
        <ele>302.39999389648</ele>
        <time>2016-11-02T13:39:15Z</time>
      </trkpt>
      <trkpt lat="43.39716" lon="6.1167">
        <ele>303</ele>
        <time>2016-11-02T13:39:19Z</time>
      </trkpt>
      <trkpt lat="43.3971" lon="6.11667">
        <ele>303.60000610352</ele>
        <time>2016-11-02T13:39:22Z</time>
      </trkpt>
      <trkpt lat="43.39697" lon="6.11657">
        <ele>304</ele>
        <time>2016-11-02T13:39:29Z</time>
      </trkpt>
      <trkpt lat="43.39683" lon="6.11619">
        <ele>303.20001220703</ele>
        <time>2016-11-02T13:39:39Z</time>
      </trkpt>
      <trkpt lat="43.39661" lon="6.11597">
        <ele>302.60000610352</ele>
        <time>2016-11-02T13:39:45Z</time>
      </trkpt>
      <trkpt lat="43.39656" lon="6.11594">
        <ele>302.39999389648</ele>
        <time>2016-11-02T13:39:46Z</time>
      </trkpt>
      <trkpt lat="43.39645" lon="6.11588">
        <ele>301.39999389648</ele>
        <time>2016-11-02T13:39:48Z</time>
      </trkpt>
      <trkpt lat="43.39641" lon="6.11586">
        <ele>300.79998779297</ele>
        <time>2016-11-02T13:39:49Z</time>
      </trkpt>
      <trkpt lat="43.39637" lon="6.11582">
        <ele>300.20001220703</ele>
        <time>2016-11-02T13:39:50Z</time>
      </trkpt>
      <trkpt lat="43.39628" lon="6.11573">
        <ele>299</ele>
        <time>2016-11-02T13:39:52Z</time>
      </trkpt>
      <trkpt lat="43.39619" lon="6.11566">
        <ele>298</ele>
        <time>2016-11-02T13:39:54Z</time>
      </trkpt>
      <trkpt lat="43.39601" lon="6.11552">
        <ele>296.79998779297</ele>
        <time>2016-11-02T13:39:58Z</time>
      </trkpt>
      <trkpt lat="43.39597" lon="6.11549">
        <ele>296.39999389648</ele>
        <time>2016-11-02T13:39:59Z</time>
      </trkpt>
      <trkpt lat="43.3957" lon="6.11531">
        <ele>296.20001220703</ele>
        <time>2016-11-02T13:40:05Z</time>
      </trkpt>
      <trkpt lat="43.39561" lon="6.11528">
        <ele>296.20001220703</ele>
        <time>2016-11-02T13:40:09Z</time>
      </trkpt>
      <trkpt lat="43.39537" lon="6.11523">
        <ele>296.60000610352</ele>
        <time>2016-11-02T13:40:19Z</time>
      </trkpt>
      <trkpt lat="43.39507" lon="6.11504">
        <ele>296.20001220703</ele>
        <time>2016-11-02T13:40:26Z</time>
      </trkpt>
      <trkpt lat="43.39499" lon="6.11491">
        <ele>296</ele>
        <time>2016-11-02T13:40:29Z</time>
      </trkpt>
      <trkpt lat="43.39497" lon="6.11479">
        <ele>296.20001220703</ele>
        <time>2016-11-02T13:40:31Z</time>
      </trkpt>
      <trkpt lat="43.39498" lon="6.11456">
        <ele>296.79998779297</ele>
        <time>2016-11-02T13:40:35Z</time>
      </trkpt>
      <trkpt lat="43.395" lon="6.11429">
        <ele>298</ele>
        <time>2016-11-02T13:40:40Z</time>
      </trkpt>
      <trkpt lat="43.39503" lon="6.11409">
        <ele>298.60000610352</ele>
        <time>2016-11-02T13:40:44Z</time>
      </trkpt>
      <trkpt lat="43.39506" lon="6.11393">
        <ele>298.79998779297</ele>
        <time>2016-11-02T13:40:47Z</time>
      </trkpt>
      <trkpt lat="43.39507" lon="6.11383">
        <ele>299</ele>
        <time>2016-11-02T13:40:49Z</time>
      </trkpt>
      <trkpt lat="43.39513" lon="6.11321">
        <ele>299</ele>
        <time>2016-11-02T13:40:59Z</time>
      </trkpt>
      <trkpt lat="43.39521" lon="6.11265">
        <ele>299.79998779297</ele>
        <time>2016-11-02T13:41:09Z</time>
      </trkpt>
      <trkpt lat="43.39523" lon="6.11255">
        <ele>300.20001220703</ele>
        <time>2016-11-02T13:41:11Z</time>
      </trkpt>
      <trkpt lat="43.39523" lon="6.11242">
        <ele>300.39999389648</ele>
        <time>2016-11-02T13:41:14Z</time>
      </trkpt>
      <trkpt lat="43.39516" lon="6.11237">
        <ele>300.20001220703</ele>
        <time>2016-11-02T13:41:16Z</time>
      </trkpt>
      <trkpt lat="43.39506" lon="6.11235">
        <ele>299.79998779297</ele>
        <time>2016-11-02T13:41:18Z</time>
      </trkpt>
      <trkpt lat="43.39495" lon="6.11236">
        <ele>299.60000610352</ele>
        <time>2016-11-02T13:41:20Z</time>
      </trkpt>
      <trkpt lat="43.39482" lon="6.11238">
        <ele>299.20001220703</ele>
        <time>2016-11-02T13:41:22Z</time>
      </trkpt>
      <trkpt lat="43.39468" lon="6.11239">
        <ele>297.60000610352</ele>
        <time>2016-11-02T13:41:24Z</time>
      </trkpt>
      <trkpt lat="43.3946" lon="6.11238">
        <ele>296.79998779297</ele>
        <time>2016-11-02T13:41:25Z</time>
      </trkpt>
      <trkpt lat="43.39452" lon="6.11237">
        <ele>296.39999389648</ele>
        <time>2016-11-02T13:41:26Z</time>
      </trkpt>
      <trkpt lat="43.39437" lon="6.11233">
        <ele>295</ele>
        <time>2016-11-02T13:41:28Z</time>
      </trkpt>
      <trkpt lat="43.39429" lon="6.11229">
        <ele>294.20001220703</ele>
        <time>2016-11-02T13:41:29Z</time>
      </trkpt>
      <trkpt lat="43.39423" lon="6.11225">
        <ele>293.79998779297</ele>
        <time>2016-11-02T13:41:30Z</time>
      </trkpt>
      <trkpt lat="43.39417" lon="6.11219">
        <ele>293.39999389648</ele>
        <time>2016-11-02T13:41:31Z</time>
      </trkpt>
      <trkpt lat="43.39404" lon="6.11208">
        <ele>292.79998779297</ele>
        <time>2016-11-02T13:41:33Z</time>
      </trkpt>
      <trkpt lat="43.39388" lon="6.11204">
        <ele>291.60000610352</ele>
        <time>2016-11-02T13:41:35Z</time>
      </trkpt>
      <trkpt lat="43.3938" lon="6.11204">
        <ele>291.20001220703</ele>
        <time>2016-11-02T13:41:36Z</time>
      </trkpt>
      <trkpt lat="43.39371" lon="6.11205">
        <ele>290.60000610352</ele>
        <time>2016-11-02T13:41:37Z</time>
      </trkpt>
      <trkpt lat="43.39363" lon="6.11208">
        <ele>289.79998779297</ele>
        <time>2016-11-02T13:41:38Z</time>
      </trkpt>
      <trkpt lat="43.39355" lon="6.11211">
        <ele>289.39999389648</ele>
        <time>2016-11-02T13:41:39Z</time>
      </trkpt>
      <trkpt lat="43.39347" lon="6.11212">
        <ele>288.79998779297</ele>
        <time>2016-11-02T13:41:40Z</time>
      </trkpt>
      <trkpt lat="43.3931" lon="6.11215">
        <ele>286.60000610352</ele>
        <time>2016-11-02T13:41:45Z</time>
      </trkpt>
      <trkpt lat="43.39284" lon="6.11213">
        <ele>286.60000610352</ele>
        <time>2016-11-02T13:41:49Z</time>
      </trkpt>
      <trkpt lat="43.39273" lon="6.11214">
        <ele>286.79998779297</ele>
        <time>2016-11-02T13:41:51Z</time>
      </trkpt>
      <trkpt lat="43.39262" lon="6.11215">
        <ele>286.79998779297</ele>
        <time>2016-11-02T13:41:53Z</time>
      </trkpt>
      <trkpt lat="43.39252" lon="6.11209">
        <ele>286.79998779297</ele>
        <time>2016-11-02T13:41:56Z</time>
      </trkpt>
      <trkpt lat="43.3925" lon="6.11196">
        <ele>286.60000610352</ele>
        <time>2016-11-02T13:41:59Z</time>
      </trkpt>
      <trkpt lat="43.39255" lon="6.11169">
        <ele>286.60000610352</ele>
        <time>2016-11-02T13:42:03Z</time>
      </trkpt>
      <trkpt lat="43.39259" lon="6.11122">
        <ele>285.79998779297</ele>
        <time>2016-11-02T13:42:09Z</time>
      </trkpt>
      <trkpt lat="43.3926" lon="6.11066">
        <ele>284.20001220703</ele>
        <time>2016-11-02T13:42:16Z</time>
      </trkpt>
      <trkpt lat="43.3926" lon="6.11038">
        <ele>283</ele>
        <time>2016-11-02T13:42:19Z</time>
      </trkpt>
      <trkpt lat="43.3926" lon="6.11028">
        <ele>282.20001220703</ele>
        <time>2016-11-02T13:42:20Z</time>
      </trkpt>
      <trkpt lat="43.3926" lon="6.11017">
        <ele>281.60000610352</ele>
        <time>2016-11-02T13:42:21Z</time>
      </trkpt>
      <trkpt lat="43.39259" lon="6.10994">
        <ele>280.39999389648</ele>
        <time>2016-11-02T13:42:23Z</time>
      </trkpt>
      <trkpt lat="43.39258" lon="6.10969">
        <ele>279</ele>
        <time>2016-11-02T13:42:25Z</time>
      </trkpt>
      <trkpt lat="43.39257" lon="6.10943">
        <ele>277.39999389648</ele>
        <time>2016-11-02T13:42:27Z</time>
      </trkpt>
      <trkpt lat="43.39255" lon="6.10916">
        <ele>275.79998779297</ele>
        <time>2016-11-02T13:42:29Z</time>
      </trkpt>
      <trkpt lat="43.39253" lon="6.1089">
        <ele>274.60000610352</ele>
        <time>2016-11-02T13:42:31Z</time>
      </trkpt>
      <trkpt lat="43.3925" lon="6.10829">
        <ele>273.39999389648</ele>
        <time>2016-11-02T13:42:36Z</time>
      </trkpt>
      <trkpt lat="43.39246" lon="6.10797">
        <ele>272.79998779297</ele>
        <time>2016-11-02T13:42:39Z</time>
      </trkpt>
      <trkpt lat="43.39241" lon="6.10778">
        <ele>272</ele>
        <time>2016-11-02T13:42:41Z</time>
      </trkpt>
      <trkpt lat="43.39236" lon="6.10759">
        <ele>270.60000610352</ele>
        <time>2016-11-02T13:42:43Z</time>
      </trkpt>
      <trkpt lat="43.39229" lon="6.1074">
        <ele>269.39999389648</ele>
        <time>2016-11-02T13:42:46Z</time>
      </trkpt>
      <trkpt lat="43.39225" lon="6.10735">
        <ele>268.60000610352</ele>
        <time>2016-11-02T13:42:48Z</time>
      </trkpt>
      <trkpt lat="43.39223" lon="6.10735">
        <ele>268.39999389648</ele>
        <time>2016-11-02T13:42:49Z</time>
      </trkpt>
      <trkpt lat="43.39222" lon="6.10735">
        <ele>268.20001220703</ele>
        <time>2016-11-02T13:42:50Z</time>
      </trkpt>
      <trkpt lat="43.39219" lon="6.10737">
        <ele>268.20001220703</ele>
        <time>2016-11-02T13:42:59Z</time>
      </trkpt>
      <trkpt lat="43.39219" lon="6.10739">
        <ele>268</ele>
        <time>2016-11-02T13:43:08Z</time>
      </trkpt>
      <trkpt lat="43.39219" lon="6.10741">
        <ele>268</ele>
        <time>2016-11-02T13:43:09Z</time>
      </trkpt>
      <trkpt lat="43.39218" lon="6.10749">
        <ele>268</ele>
        <time>2016-11-02T13:43:11Z</time>
      </trkpt>
      <trkpt lat="43.39222" lon="6.10775">
        <ele>267.39999389648</ele>
        <time>2016-11-02T13:43:17Z</time>
      </trkpt>
      <trkpt lat="43.39221" lon="6.10786">
        <ele>267.20001220703</ele>
        <time>2016-11-02T13:43:19Z</time>
      </trkpt>
      <trkpt lat="43.39223" lon="6.1081">
        <ele>266.79998779297</ele>
        <time>2016-11-02T13:43:24Z</time>
      </trkpt>
      <trkpt lat="43.39225" lon="6.10819">
        <ele>267.20001220703</ele>
        <time>2016-11-02T13:43:27Z</time>
      </trkpt>
      <trkpt lat="43.39226" lon="6.10823">
        <ele>268</ele>
        <time>2016-11-02T13:43:29Z</time>
      </trkpt>
      <trkpt lat="43.39226" lon="6.10823">
        <ele>268.20001220703</ele>
        <time>2016-11-02T13:43:30Z</time>
      </trkpt>
      <trkpt lat="43.39227" lon="6.10833">
        <ele>268.60000610352</ele>
        <time>2016-11-02T13:43:38Z</time>
      </trkpt>
      <trkpt lat="43.39229" lon="6.10838">
        <ele>268.79998779297</ele>
        <time>2016-11-02T13:43:40Z</time>
      </trkpt>
      <trkpt lat="43.39231" lon="6.10847">
        <ele>269.39999389648</ele>
        <time>2016-11-02T13:43:44Z</time>
      </trkpt>
      <trkpt lat="43.3923" lon="6.10869">
        <ele>269</ele>
        <time>2016-11-02T13:43:49Z</time>
      </trkpt>
      <trkpt lat="43.39213" lon="6.10907">
        <ele>269</ele>
        <time>2016-11-02T13:43:59Z</time>
      </trkpt>
      <trkpt lat="43.39211" lon="6.10909">
        <ele>269</ele>
        <time>2016-11-02T13:44:00Z</time>
      </trkpt>
      <trkpt lat="43.39204" lon="6.10921">
        <ele>269</ele>
        <time>2016-11-02T13:44:05Z</time>
      </trkpt>
      <trkpt lat="43.392" lon="6.10922">
        <ele>269</ele>
        <time>2016-11-02T13:44:07Z</time>
      </trkpt>
      <trkpt lat="43.39198" lon="6.10923">
        <ele>269</ele>
        <time>2016-11-02T13:44:09Z</time>
      </trkpt>
      <trkpt lat="43.3919" lon="6.10927">
        <ele>269</ele>
        <time>2016-11-02T13:44:16Z</time>
      </trkpt>
      <trkpt lat="43.39186" lon="6.10932">
        <ele>269.20001220703</ele>
        <time>2016-11-02T13:44:19Z</time>
      </trkpt>
      <trkpt lat="43.3917" lon="6.10963">
        <ele>269.60000610352</ele>
        <time>2016-11-02T13:44:29Z</time>
      </trkpt>
      <trkpt lat="43.39158" lon="6.10975">
        <ele>271.39999389648</ele>
        <time>2016-11-02T13:44:35Z</time>
      </trkpt>
      <trkpt lat="43.39151" lon="6.10984">
        <ele>272.20001220703</ele>
        <time>2016-11-02T13:44:39Z</time>
      </trkpt>
      <trkpt lat="43.39153" lon="6.11024">
        <ele>272.20001220703</ele>
        <time>2016-11-02T13:44:49Z</time>
      </trkpt>
      <trkpt lat="43.39146" lon="6.11061">
        <ele>273</ele>
        <time>2016-11-02T13:44:58Z</time>
      </trkpt>
      <trkpt lat="43.39147" lon="6.11065">
        <ele>273.20001220703</ele>
        <time>2016-11-02T13:44:59Z</time>
      </trkpt>
      <trkpt lat="43.39144" lon="6.111">
        <ele>273.39999389648</ele>
        <time>2016-11-02T13:45:09Z</time>
      </trkpt>
      <trkpt lat="43.39143" lon="6.11119">
        <ele>274.20001220703</ele>
        <time>2016-11-02T13:45:14Z</time>
      </trkpt>
      <trkpt lat="43.39142" lon="6.11138">
        <ele>274.60000610352</ele>
        <time>2016-11-02T13:45:19Z</time>
      </trkpt>
      <trkpt lat="43.39138" lon="6.1116">
        <ele>275.20001220703</ele>
        <time>2016-11-02T13:45:26Z</time>
      </trkpt>
      <trkpt lat="43.39135" lon="6.11163">
        <ele>275.79998779297</ele>
        <time>2016-11-02T13:45:29Z</time>
      </trkpt>
      <trkpt lat="43.39134" lon="6.11163">
        <ele>276.20001220703</ele>
        <time>2016-11-02T13:45:35Z</time>
      </trkpt>
      <trkpt lat="43.39133" lon="6.11165">
        <ele>276.60000610352</ele>
        <time>2016-11-02T13:45:39Z</time>
      </trkpt>
      <trkpt lat="43.39131" lon="6.11167">
        <ele>276.79998779297</ele>
        <time>2016-11-02T13:45:41Z</time>
      </trkpt>
      <trkpt lat="43.39127" lon="6.11168">
        <ele>277</ele>
        <time>2016-11-02T13:45:44Z</time>
      </trkpt>
      <trkpt lat="43.39124" lon="6.11169">
        <ele>277.39999389648</ele>
        <time>2016-11-02T13:45:47Z</time>
      </trkpt>
      <trkpt lat="43.39124" lon="6.1117">
        <ele>277.79998779297</ele>
        <time>2016-11-02T13:45:49Z</time>
      </trkpt>
      <trkpt lat="43.39122" lon="6.11171">
        <ele>278.60000610352</ele>
        <time>2016-11-02T13:45:53Z</time>
      </trkpt>
      <trkpt lat="43.3912" lon="6.1117">
        <ele>279.60000610352</ele>
        <time>2016-11-02T13:45:59Z</time>
      </trkpt>
      <trkpt lat="43.39116" lon="6.11169">
        <ele>280.39999389648</ele>
        <time>2016-11-02T13:46:07Z</time>
      </trkpt>
      <trkpt lat="43.39115" lon="6.11171">
        <ele>280.39999389648</ele>
        <time>2016-11-02T13:46:09Z</time>
      </trkpt>
      <trkpt lat="43.39114" lon="6.11171">
        <ele>280.20001220703</ele>
        <time>2016-11-02T13:46:16Z</time>
      </trkpt>
      <trkpt lat="43.39114" lon="6.11171">
        <ele>280.20001220703</ele>
        <time>2016-11-02T13:46:19Z</time>
      </trkpt>
      <trkpt lat="43.39112" lon="6.11174">
        <ele>280.20001220703</ele>
        <time>2016-11-02T13:46:21Z</time>
      </trkpt>
      <trkpt lat="43.39112" lon="6.11179">
        <ele>280.20001220703</ele>
        <time>2016-11-02T13:46:23Z</time>
      </trkpt>
      <trkpt lat="43.39112" lon="6.11193">
        <ele>280.60000610352</ele>
        <time>2016-11-02T13:46:29Z</time>
      </trkpt>
      <trkpt lat="43.39112" lon="6.11195">
        <ele>280.79998779297</ele>
        <time>2016-11-02T13:46:30Z</time>
      </trkpt>
      <trkpt lat="43.39109" lon="6.11214">
        <ele>281.79998779297</ele>
        <time>2016-11-02T13:46:38Z</time>
      </trkpt>
      <trkpt lat="43.39109" lon="6.11217">
        <ele>282</ele>
        <time>2016-11-02T13:46:39Z</time>
      </trkpt>
      <trkpt lat="43.39105" lon="6.11251">
        <ele>282</ele>
        <time>2016-11-02T13:46:49Z</time>
      </trkpt>
      <trkpt lat="43.39103" lon="6.11264">
        <ele>281.39999389648</ele>
        <time>2016-11-02T13:46:52Z</time>
      </trkpt>
      <trkpt lat="43.39094" lon="6.1129">
        <ele>281.20001220703</ele>
        <time>2016-11-02T13:46:59Z</time>
      </trkpt>
      <trkpt lat="43.39085" lon="6.11297">
        <ele>282.60000610352</ele>
        <time>2016-11-02T13:47:05Z</time>
      </trkpt>
      <trkpt lat="43.39083" lon="6.11298">
        <ele>282.79998779297</ele>
        <time>2016-11-02T13:47:08Z</time>
      </trkpt>
      <trkpt lat="43.39082" lon="6.11298">
        <ele>282.79998779297</ele>
        <time>2016-11-02T13:47:09Z</time>
      </trkpt>
      <trkpt lat="43.39082" lon="6.11298">
        <ele>283</ele>
        <time>2016-11-02T13:47:29Z</time>
      </trkpt>
      <trkpt lat="43.39082" lon="6.11298">
        <ele>283.39999389648</ele>
        <time>2016-11-02T13:48:19Z</time>
      </trkpt>
      <trkpt lat="43.39082" lon="6.11298">
        <ele>283</ele>
        <time>2016-11-02T13:48:29Z</time>
      </trkpt>
      <trkpt lat="43.39082" lon="6.11298">
        <ele>283</ele>
        <time>2016-11-02T13:48:39Z</time>
      </trkpt>
      <trkpt lat="43.39081" lon="6.11296">
        <ele>283</ele>
        <time>2016-11-02T13:48:47Z</time>
      </trkpt>
      <trkpt lat="43.39079" lon="6.1129">
        <ele>283</ele>
        <time>2016-11-02T13:48:49Z</time>
      </trkpt>
      <trkpt lat="43.39077" lon="6.11287">
        <ele>283</ele>
        <time>2016-11-02T13:48:50Z</time>
      </trkpt>
      <trkpt lat="43.39064" lon="6.11264">
        <ele>283.39999389648</ele>
        <time>2016-11-02T13:48:57Z</time>
      </trkpt>
      <trkpt lat="43.3906" lon="6.11258">
        <ele>283.79998779297</ele>
        <time>2016-11-02T13:48:59Z</time>
      </trkpt>
      <trkpt lat="43.39058" lon="6.11254">
        <ele>283.79998779297</ele>
        <time>2016-11-02T13:49:00Z</time>
      </trkpt>
      <trkpt lat="43.39043" lon="6.11234">
        <ele>283.79998779297</ele>
        <time>2016-11-02T13:49:05Z</time>
      </trkpt>
      <trkpt lat="43.39032" lon="6.1121">
        <ele>283</ele>
        <time>2016-11-02T13:49:09Z</time>
      </trkpt>
      <trkpt lat="43.39029" lon="6.11205">
        <ele>282.79998779297</ele>
        <time>2016-11-02T13:49:10Z</time>
      </trkpt>
      <trkpt lat="43.39025" lon="6.112">
        <ele>282.39999389648</ele>
        <time>2016-11-02T13:49:11Z</time>
      </trkpt>
      <trkpt lat="43.39016" lon="6.11194">
        <ele>281.39999389648</ele>
        <time>2016-11-02T13:49:13Z</time>
      </trkpt>
      <trkpt lat="43.39006" lon="6.1119">
        <ele>280.39999389648</ele>
        <time>2016-11-02T13:49:15Z</time>
      </trkpt>
      <trkpt lat="43.38995" lon="6.11191">
        <ele>279.39999389648</ele>
        <time>2016-11-02T13:49:17Z</time>
      </trkpt>
      <trkpt lat="43.38982" lon="6.11193">
        <ele>278.39999389648</ele>
        <time>2016-11-02T13:49:19Z</time>
      </trkpt>
      <trkpt lat="43.38967" lon="6.11195">
        <ele>276.39999389648</ele>
        <time>2016-11-02T13:49:21Z</time>
      </trkpt>
      <trkpt lat="43.38959" lon="6.11196">
        <ele>275</ele>
        <time>2016-11-02T13:49:22Z</time>
      </trkpt>
      <trkpt lat="43.38951" lon="6.11196">
        <ele>273.60000610352</ele>
        <time>2016-11-02T13:49:23Z</time>
      </trkpt>
      <trkpt lat="43.38942" lon="6.11194">
        <ele>272.39999389648</ele>
        <time>2016-11-02T13:49:24Z</time>
      </trkpt>
      <trkpt lat="43.38926" lon="6.11187">
        <ele>271.39999389648</ele>
        <time>2016-11-02T13:49:26Z</time>
      </trkpt>
      <trkpt lat="43.38904" lon="6.1118">
        <ele>271.60000610352</ele>
        <time>2016-11-02T13:49:29Z</time>
      </trkpt>
      <trkpt lat="43.3887" lon="6.11173">
        <ele>272.60000610352</ele>
        <time>2016-11-02T13:49:35Z</time>
      </trkpt>
      <trkpt lat="43.38855" lon="6.11169">
        <ele>273.39999389648</ele>
        <time>2016-11-02T13:49:38Z</time>
      </trkpt>
      <trkpt lat="43.3885" lon="6.11168">
        <ele>273.60000610352</ele>
        <time>2016-11-02T13:49:39Z</time>
      </trkpt>
      <trkpt lat="43.38846" lon="6.11166">
        <ele>273.60000610352</ele>
        <time>2016-11-02T13:49:40Z</time>
      </trkpt>
      <trkpt lat="43.38831" lon="6.11159">
        <ele>274.20001220703</ele>
        <time>2016-11-02T13:49:43Z</time>
      </trkpt>
      <trkpt lat="43.38818" lon="6.1115">
        <ele>274.79998779297</ele>
        <time>2016-11-02T13:49:46Z</time>
      </trkpt>
      <trkpt lat="43.38805" lon="6.11141">
        <ele>275</ele>
        <time>2016-11-02T13:49:49Z</time>
      </trkpt>
      <trkpt lat="43.3878" lon="6.11124">
        <ele>275.79998779297</ele>
        <time>2016-11-02T13:49:55Z</time>
      </trkpt>
      <trkpt lat="43.38757" lon="6.11117">
        <ele>276.79998779297</ele>
        <time>2016-11-02T13:50:00Z</time>
      </trkpt>
      <trkpt lat="43.38721" lon="6.11105">
        <ele>277</ele>
        <time>2016-11-02T13:50:09Z</time>
      </trkpt>
      <trkpt lat="43.38713" lon="6.111">
        <ele>277.20001220703</ele>
        <time>2016-11-02T13:50:12Z</time>
      </trkpt>
      <trkpt lat="43.38707" lon="6.11068">
        <ele>277.20001220703</ele>
        <time>2016-11-02T13:50:19Z</time>
      </trkpt>
      <trkpt lat="43.38695" lon="6.11058">
        <ele>277.79998779297</ele>
        <time>2016-11-02T13:50:24Z</time>
      </trkpt>
      <trkpt lat="43.3868" lon="6.11045">
        <ele>278.60000610352</ele>
        <time>2016-11-02T13:50:29Z</time>
      </trkpt>
      <trkpt lat="43.38666" lon="6.11034">
        <ele>278.79998779297</ele>
        <time>2016-11-02T13:50:34Z</time>
      </trkpt>
      <trkpt lat="43.38653" lon="6.11022">
        <ele>279.79998779297</ele>
        <time>2016-11-02T13:50:39Z</time>
      </trkpt>
      <trkpt lat="43.38645" lon="6.11015">
        <ele>280.60000610352</ele>
        <time>2016-11-02T13:50:42Z</time>
      </trkpt>
      <trkpt lat="43.38638" lon="6.1101">
        <ele>281.20001220703</ele>
        <time>2016-11-02T13:50:45Z</time>
      </trkpt>
      <trkpt lat="43.3863" lon="6.11003">
        <ele>282.20001220703</ele>
        <time>2016-11-02T13:50:49Z</time>
      </trkpt>
      <trkpt lat="43.38629" lon="6.11001">
        <ele>282.39999389648</ele>
        <time>2016-11-02T13:50:50Z</time>
      </trkpt>
      <trkpt lat="43.38609" lon="6.10986">
        <ele>282.79998779297</ele>
        <time>2016-11-02T13:50:59Z</time>
      </trkpt>
      <trkpt lat="43.38595" lon="6.10985">
        <ele>282.20001220703</ele>
        <time>2016-11-02T13:51:03Z</time>
      </trkpt>
      <trkpt lat="43.38568" lon="6.10986">
        <ele>280.39999389648</ele>
        <time>2016-11-02T13:51:09Z</time>
      </trkpt>
      <trkpt lat="43.38563" lon="6.10985">
        <ele>280</ele>
        <time>2016-11-02T13:51:10Z</time>
      </trkpt>
      <trkpt lat="43.38527" lon="6.10971">
        <ele>279.20001220703</ele>
        <time>2016-11-02T13:51:16Z</time>
      </trkpt>
      <trkpt lat="43.3852" lon="6.10969">
        <ele>278.79998779297</ele>
        <time>2016-11-02T13:51:17Z</time>
      </trkpt>
      <trkpt lat="43.38505" lon="6.10965">
        <ele>277.20001220703</ele>
        <time>2016-11-02T13:51:19Z</time>
      </trkpt>
      <trkpt lat="43.38491" lon="6.10961">
        <ele>275.20001220703</ele>
        <time>2016-11-02T13:51:21Z</time>
      </trkpt>
      <trkpt lat="43.3848" lon="6.10958">
        <ele>273.60000610352</ele>
        <time>2016-11-02T13:51:23Z</time>
      </trkpt>
      <trkpt lat="43.38474" lon="6.10955">
        <ele>273.20001220703</ele>
        <time>2016-11-02T13:51:26Z</time>
      </trkpt>
      <trkpt lat="43.38466" lon="6.10954">
        <ele>273.20001220703</ele>
        <time>2016-11-02T13:51:29Z</time>
      </trkpt>
      <trkpt lat="43.38448" lon="6.10954">
        <ele>272.60000610352</ele>
        <time>2016-11-02T13:51:34Z</time>
      </trkpt>
      <trkpt lat="43.38424" lon="6.10949">
        <ele>272.20001220703</ele>
        <time>2016-11-02T13:51:39Z</time>
      </trkpt>
      <trkpt lat="43.38388" lon="6.10941">
        <ele>271.20001220703</ele>
        <time>2016-11-02T13:51:45Z</time>
      </trkpt>
      <trkpt lat="43.38364" lon="6.10934">
        <ele>270</ele>
        <time>2016-11-02T13:51:49Z</time>
      </trkpt>
      <trkpt lat="43.38303" lon="6.10914">
        <ele>269.79998779297</ele>
        <time>2016-11-02T13:51:59Z</time>
      </trkpt>
      <trkpt lat="43.3825" lon="6.10899">
        <ele>269.39999389648</ele>
        <time>2016-11-02T13:52:08Z</time>
      </trkpt>
      <trkpt lat="43.38244" lon="6.10898">
        <ele>269.20001220703</ele>
        <time>2016-11-02T13:52:09Z</time>
      </trkpt>
      <trkpt lat="43.38203" lon="6.10885">
        <ele>269.79998779297</ele>
        <time>2016-11-02T13:52:17Z</time>
      </trkpt>
      <trkpt lat="43.38195" lon="6.1088">
        <ele>270</ele>
        <time>2016-11-02T13:52:19Z</time>
      </trkpt>
      <trkpt lat="43.38176" lon="6.10876">
        <ele>271.20001220703</ele>
        <time>2016-11-02T13:52:24Z</time>
      </trkpt>
      <trkpt lat="43.38157" lon="6.10876">
        <ele>271.60000610352</ele>
        <time>2016-11-02T13:52:29Z</time>
      </trkpt>
      <trkpt lat="43.38128" lon="6.10877">
        <ele>272.20001220703</ele>
        <time>2016-11-02T13:52:36Z</time>
      </trkpt>
      <trkpt lat="43.38116" lon="6.10874">
        <ele>272.20001220703</ele>
        <time>2016-11-02T13:52:39Z</time>
      </trkpt>
      <trkpt lat="43.38098" lon="6.10877">
        <ele>272.60000610352</ele>
        <time>2016-11-02T13:52:44Z</time>
      </trkpt>
      <trkpt lat="43.38095" lon="6.1088">
        <ele>272.79998779297</ele>
        <time>2016-11-02T13:52:45Z</time>
      </trkpt>
      <trkpt lat="43.38093" lon="6.109">
        <ele>272.79998779297</ele>
        <time>2016-11-02T13:52:49Z</time>
      </trkpt>
      <trkpt lat="43.38094" lon="6.10925">
        <ele>273.39999389648</ele>
        <time>2016-11-02T13:52:55Z</time>
      </trkpt>
      <trkpt lat="43.38093" lon="6.10936">
        <ele>274.20001220703</ele>
        <time>2016-11-02T13:52:59Z</time>
      </trkpt>
      <trkpt lat="43.38092" lon="6.10939">
        <ele>274.60000610352</ele>
        <time>2016-11-02T13:53:00Z</time>
      </trkpt>
      <trkpt lat="43.38091" lon="6.10942">
        <ele>274.79998779297</ele>
        <time>2016-11-02T13:53:01Z</time>
      </trkpt>
      <trkpt lat="43.38091" lon="6.10952">
        <ele>275.60000610352</ele>
        <time>2016-11-02T13:53:04Z</time>
      </trkpt>
      <trkpt lat="43.3809" lon="6.10965">
        <ele>276.60000610352</ele>
        <time>2016-11-02T13:53:09Z</time>
      </trkpt>
      <trkpt lat="43.38089" lon="6.10999">
        <ele>277</ele>
        <time>2016-11-02T13:53:19Z</time>
      </trkpt>
      <trkpt lat="43.38087" lon="6.11031">
        <ele>278</ele>
        <time>2016-11-02T13:53:29Z</time>
      </trkpt>
      <trkpt lat="43.38087" lon="6.11053">
        <ele>278.60000610352</ele>
        <time>2016-11-02T13:53:36Z</time>
      </trkpt>
      <trkpt lat="43.38088" lon="6.11065">
        <ele>279</ele>
        <time>2016-11-02T13:53:40Z</time>
      </trkpt>
      <trkpt lat="43.38089" lon="6.11099">
        <ele>279</ele>
        <time>2016-11-02T13:53:49Z</time>
      </trkpt>
      <trkpt lat="43.3809" lon="6.11138">
        <ele>279.20001220703</ele>
        <time>2016-11-02T13:53:59Z</time>
      </trkpt>
      <trkpt lat="43.38091" lon="6.11159">
        <ele>279.60000610352</ele>
        <time>2016-11-02T13:54:05Z</time>
      </trkpt>
      <trkpt lat="43.38091" lon="6.11167">
        <ele>280.20001220703</ele>
        <time>2016-11-02T13:54:09Z</time>
      </trkpt>
      <trkpt lat="43.3809" lon="6.1117">
        <ele>280.60000610352</ele>
        <time>2016-11-02T13:54:14Z</time>
      </trkpt>
      <trkpt lat="43.3809" lon="6.1117">
        <ele>280.39999389648</ele>
        <time>2016-11-02T13:54:25Z</time>
      </trkpt>
      <trkpt lat="43.3809" lon="6.1117">
        <ele>280.39999389648</ele>
        <time>2016-11-02T13:54:40Z</time>
      </trkpt>
      <trkpt lat="43.38093" lon="6.11169">
        <ele>280.39999389648</ele>
        <time>2016-11-02T13:54:43Z</time>
      </trkpt>
      <trkpt lat="43.38095" lon="6.11167">
        <ele>280.39999389648</ele>
        <time>2016-11-02T13:54:44Z</time>
      </trkpt>
      <trkpt lat="43.38106" lon="6.11156">
        <ele>279.20001220703</ele>
        <time>2016-11-02T13:54:49Z</time>
      </trkpt>
      <trkpt lat="43.38113" lon="6.11149">
        <ele>278.20001220703</ele>
        <time>2016-11-02T13:54:52Z</time>
      </trkpt>
      <trkpt lat="43.38117" lon="6.11153">
        <ele>277.79998779297</ele>
        <time>2016-11-02T13:54:54Z</time>
      </trkpt>
      <trkpt lat="43.3812" lon="6.11172">
        <ele>278</ele>
        <time>2016-11-02T13:54:59Z</time>
      </trkpt>
      <trkpt lat="43.38121" lon="6.11204">
        <ele>279</ele>
        <time>2016-11-02T13:55:06Z</time>
      </trkpt>
      <trkpt lat="43.38122" lon="6.11217">
        <ele>279.39999389648</ele>
        <time>2016-11-02T13:55:09Z</time>
      </trkpt>
      <trkpt lat="43.38121" lon="6.1124">
        <ele>280</ele>
        <time>2016-11-02T13:55:14Z</time>
      </trkpt>
      <trkpt lat="43.38121" lon="6.11267">
        <ele>281</ele>
        <time>2016-11-02T13:55:20Z</time>
      </trkpt>
      <trkpt lat="43.38119" lon="6.11297">
        <ele>282.20001220703</ele>
        <time>2016-11-02T13:55:27Z</time>
      </trkpt>
      <trkpt lat="43.38118" lon="6.11307">
        <ele>282.60000610352</ele>
        <time>2016-11-02T13:55:29Z</time>
      </trkpt>
      <trkpt lat="43.38115" lon="6.11334">
        <ele>282.79998779297</ele>
        <time>2016-11-02T13:55:35Z</time>
      </trkpt>
      <trkpt lat="43.38113" lon="6.11353">
        <ele>283.20001220703</ele>
        <time>2016-11-02T13:55:39Z</time>
      </trkpt>
      <trkpt lat="43.3811" lon="6.11374">
        <ele>283.39999389648</ele>
        <time>2016-11-02T13:55:44Z</time>
      </trkpt>
      <trkpt lat="43.38105" lon="6.11401">
        <ele>284.39999389648</ele>
        <time>2016-11-02T13:55:51Z</time>
      </trkpt>
      <trkpt lat="43.38098" lon="6.11433">
        <ele>285.20001220703</ele>
        <time>2016-11-02T13:55:59Z</time>
      </trkpt>
      <trkpt lat="43.38096" lon="6.11441">
        <ele>285.79998779297</ele>
        <time>2016-11-02T13:56:01Z</time>
      </trkpt>
      <trkpt lat="43.3809" lon="6.11477">
        <ele>286.39999389648</ele>
        <time>2016-11-02T13:56:09Z</time>
      </trkpt>
      <trkpt lat="43.38089" lon="6.11491">
        <ele>286.79998779297</ele>
        <time>2016-11-02T13:56:12Z</time>
      </trkpt>
      <trkpt lat="43.38087" lon="6.11523">
        <ele>287.39999389648</ele>
        <time>2016-11-02T13:56:19Z</time>
      </trkpt>
      <trkpt lat="43.38087" lon="6.11535">
        <ele>287.79998779297</ele>
        <time>2016-11-02T13:56:22Z</time>
      </trkpt>
      <trkpt lat="43.38084" lon="6.11573">
        <ele>288.79998779297</ele>
        <time>2016-11-02T13:56:31Z</time>
      </trkpt>
      <trkpt lat="43.38083" lon="6.11609">
        <ele>289.79998779297</ele>
        <time>2016-11-02T13:56:40Z</time>
      </trkpt>
      <trkpt lat="43.38081" lon="6.11644">
        <ele>291</ele>
        <time>2016-11-02T13:56:49Z</time>
      </trkpt>
      <trkpt lat="43.38078" lon="6.11663">
        <ele>292.20001220703</ele>
        <time>2016-11-02T13:56:55Z</time>
      </trkpt>
      <trkpt lat="43.38075" lon="6.11676">
        <ele>292.79998779297</ele>
        <time>2016-11-02T13:56:59Z</time>
      </trkpt>
      <trkpt lat="43.38073" lon="6.11697">
        <ele>293.20001220703</ele>
        <time>2016-11-02T13:57:05Z</time>
      </trkpt>
      <trkpt lat="43.38072" lon="6.11712">
        <ele>293.60000610352</ele>
        <time>2016-11-02T13:57:09Z</time>
      </trkpt>
      <trkpt lat="43.3807" lon="6.11733">
        <ele>294.39999389648</ele>
        <time>2016-11-02T13:57:15Z</time>
      </trkpt>
      <trkpt lat="43.3807" lon="6.11746">
        <ele>294.79998779297</ele>
        <time>2016-11-02T13:57:19Z</time>
      </trkpt>
      <trkpt lat="43.3807" lon="6.11763">
        <ele>295.39999389648</ele>
        <time>2016-11-02T13:57:24Z</time>
      </trkpt>
      <trkpt lat="43.38073" lon="6.11777">
        <ele>296.20001220703</ele>
        <time>2016-11-02T13:57:29Z</time>
      </trkpt>
      <trkpt lat="43.38076" lon="6.11785">
        <ele>296.60000610352</ele>
        <time>2016-11-02T13:57:32Z</time>
      </trkpt>
      <trkpt lat="43.38079" lon="6.11804">
        <ele>297</ele>
        <time>2016-11-02T13:57:39Z</time>
      </trkpt>
      <trkpt lat="43.38079" lon="6.11826">
        <ele>297.60000610352</ele>
        <time>2016-11-02T13:57:46Z</time>
      </trkpt>
      <trkpt lat="43.38079" lon="6.11852">
        <ele>298.60000610352</ele>
        <time>2016-11-02T13:57:55Z</time>
      </trkpt>
      <trkpt lat="43.38081" lon="6.11862">
        <ele>299</ele>
        <time>2016-11-02T13:57:59Z</time>
      </trkpt>
      <trkpt lat="43.38082" lon="6.1188">
        <ele>299.79998779297</ele>
        <time>2016-11-02T13:58:07Z</time>
      </trkpt>
      <trkpt lat="43.38081" lon="6.11885">
        <ele>299.79998779297</ele>
        <time>2016-11-02T13:58:09Z</time>
      </trkpt>
      <trkpt lat="43.38081" lon="6.11903">
        <ele>300.79998779297</ele>
        <time>2016-11-02T13:58:18Z</time>
      </trkpt>
      <trkpt lat="43.38081" lon="6.11905">
        <ele>301</ele>
        <time>2016-11-02T13:58:19Z</time>
      </trkpt>
      <trkpt lat="43.38078" lon="6.11928">
        <ele>302.39999389648</ele>
        <time>2016-11-02T13:58:29Z</time>
      </trkpt>
      <trkpt lat="43.38078" lon="6.11935">
        <ele>303</ele>
        <time>2016-11-02T13:58:32Z</time>
      </trkpt>
      <trkpt lat="43.38077" lon="6.11951">
        <ele>303.79998779297</ele>
        <time>2016-11-02T13:58:39Z</time>
      </trkpt>
      <trkpt lat="43.38076" lon="6.11969">
        <ele>305</ele>
        <time>2016-11-02T13:58:48Z</time>
      </trkpt>
      <trkpt lat="43.38074" lon="6.11982">
        <ele>306.20001220703</ele>
        <time>2016-11-02T13:58:55Z</time>
      </trkpt>
      <trkpt lat="43.38072" lon="6.11989">
        <ele>306.79998779297</ele>
        <time>2016-11-02T13:58:59Z</time>
      </trkpt>
      <trkpt lat="43.38071" lon="6.11994">
        <ele>307.20001220703</ele>
        <time>2016-11-02T13:59:02Z</time>
      </trkpt>
      <trkpt lat="43.38068" lon="6.12002">
        <ele>308.39999389648</ele>
        <time>2016-11-02T13:59:06Z</time>
      </trkpt>
      <trkpt lat="43.38068" lon="6.12008">
        <ele>309.20001220703</ele>
        <time>2016-11-02T13:59:09Z</time>
      </trkpt>
      <trkpt lat="43.38068" lon="6.1201">
        <ele>309.39999389648</ele>
        <time>2016-11-02T13:59:10Z</time>
      </trkpt>
      <trkpt lat="43.38068" lon="6.12025">
        <ele>310.79998779297</ele>
        <time>2016-11-02T13:59:19Z</time>
      </trkpt>
      <trkpt lat="43.38069" lon="6.12029">
        <ele>311.60000610352</ele>
        <time>2016-11-02T13:59:22Z</time>
      </trkpt>
      <trkpt lat="43.38068" lon="6.12042">
        <ele>312.39999389648</ele>
        <time>2016-11-02T13:59:29Z</time>
      </trkpt>
      <trkpt lat="43.38068" lon="6.12052">
        <ele>312.60000610352</ele>
        <time>2016-11-02T13:59:33Z</time>
      </trkpt>
      <trkpt lat="43.38066" lon="6.12063">
        <ele>313.20001220703</ele>
        <time>2016-11-02T13:59:39Z</time>
      </trkpt>
      <trkpt lat="43.38063" lon="6.12074">
        <ele>313.79998779297</ele>
        <time>2016-11-02T13:59:45Z</time>
      </trkpt>
      <trkpt lat="43.3806" lon="6.12082">
        <ele>314.20001220703</ele>
        <time>2016-11-02T13:59:49Z</time>
      </trkpt>
      <trkpt lat="43.3806" lon="6.12101">
        <ele>314.79998779297</ele>
        <time>2016-11-02T13:59:59Z</time>
      </trkpt>
      <trkpt lat="43.38052" lon="6.12122">
        <ele>315.79998779297</ele>
        <time>2016-11-02T14:00:09Z</time>
      </trkpt>
      <trkpt lat="43.38044" lon="6.12137">
        <ele>317.39999389648</ele>
        <time>2016-11-02T14:00:19Z</time>
      </trkpt>
      <trkpt lat="43.38042" lon="6.12143">
        <ele>318</ele>
        <time>2016-11-02T14:00:23Z</time>
      </trkpt>
      <trkpt lat="43.38039" lon="6.12152">
        <ele>319</ele>
        <time>2016-11-02T14:00:29Z</time>
      </trkpt>
      <trkpt lat="43.38039" lon="6.12161">
        <ele>319.20001220703</ele>
        <time>2016-11-02T14:00:33Z</time>
      </trkpt>
      <trkpt lat="43.38038" lon="6.12177">
        <ele>319.39999389648</ele>
        <time>2016-11-02T14:00:39Z</time>
      </trkpt>
      <trkpt lat="43.38039" lon="6.12198">
        <ele>320.20001220703</ele>
        <time>2016-11-02T14:00:48Z</time>
      </trkpt>
      <trkpt lat="43.38039" lon="6.122">
        <ele>320.20001220703</ele>
        <time>2016-11-02T14:00:49Z</time>
      </trkpt>
      <trkpt lat="43.38041" lon="6.1222">
        <ele>321</ele>
        <time>2016-11-02T14:00:58Z</time>
      </trkpt>
      <trkpt lat="43.38042" lon="6.12222">
        <ele>321</ele>
        <time>2016-11-02T14:00:59Z</time>
      </trkpt>
      <trkpt lat="43.38044" lon="6.12231">
        <ele>321.39999389648</ele>
        <time>2016-11-02T14:01:03Z</time>
      </trkpt>
      <trkpt lat="43.38047" lon="6.12263">
        <ele>322</ele>
        <time>2016-11-02T14:01:16Z</time>
      </trkpt>
      <trkpt lat="43.38047" lon="6.1227">
        <ele>322.39999389648</ele>
        <time>2016-11-02T14:01:19Z</time>
      </trkpt>
      <trkpt lat="43.3805" lon="6.12283">
        <ele>323.60000610352</ele>
        <time>2016-11-02T14:01:25Z</time>
      </trkpt>
      <trkpt lat="43.38052" lon="6.12291">
        <ele>324.60000610352</ele>
        <time>2016-11-02T14:01:29Z</time>
      </trkpt>
      <trkpt lat="43.38053" lon="6.12308">
        <ele>325.79998779297</ele>
        <time>2016-11-02T14:01:37Z</time>
      </trkpt>
      <trkpt lat="43.38053" lon="6.12312">
        <ele>326</ele>
        <time>2016-11-02T14:01:39Z</time>
      </trkpt>
      <trkpt lat="43.38052" lon="6.12323">
        <ele>326.79998779297</ele>
        <time>2016-11-02T14:01:44Z</time>
      </trkpt>
      <trkpt lat="43.38048" lon="6.12335">
        <ele>327</ele>
        <time>2016-11-02T14:01:49Z</time>
      </trkpt>
      <trkpt lat="43.3805" lon="6.12354">
        <ele>327.79998779297</ele>
        <time>2016-11-02T14:01:59Z</time>
      </trkpt>
      <trkpt lat="43.3805" lon="6.12356">
        <ele>327.79998779297</ele>
        <time>2016-11-02T14:02:00Z</time>
      </trkpt>
      <trkpt lat="43.38053" lon="6.12369">
        <ele>329</ele>
        <time>2016-11-02T14:02:06Z</time>
      </trkpt>
      <trkpt lat="43.38055" lon="6.12381">
        <ele>329.39999389648</ele>
        <time>2016-11-02T14:02:12Z</time>
      </trkpt>
      <trkpt lat="43.38055" lon="6.12387">
        <ele>330</ele>
        <time>2016-11-02T14:02:15Z</time>
      </trkpt>
      <trkpt lat="43.38057" lon="6.12395">
        <ele>330.79998779297</ele>
        <time>2016-11-02T14:02:19Z</time>
      </trkpt>
      <trkpt lat="43.3806" lon="6.12408">
        <ele>332.20001220703</ele>
        <time>2016-11-02T14:02:27Z</time>
      </trkpt>
      <trkpt lat="43.38061" lon="6.1241">
        <ele>332.60000610352</ele>
        <time>2016-11-02T14:02:29Z</time>
      </trkpt>
      <trkpt lat="43.38062" lon="6.12416">
        <ele>333.39999389648</ele>
        <time>2016-11-02T14:02:33Z</time>
      </trkpt>
      <trkpt lat="43.38062" lon="6.12425">
        <ele>334</ele>
        <time>2016-11-02T14:02:39Z</time>
      </trkpt>
      <trkpt lat="43.38062" lon="6.1243">
        <ele>334.39999389648</ele>
        <time>2016-11-02T14:02:42Z</time>
      </trkpt>
      <trkpt lat="43.38063" lon="6.12441">
        <ele>335.39999389648</ele>
        <time>2016-11-02T14:02:49Z</time>
      </trkpt>
      <trkpt lat="43.38064" lon="6.12445">
        <ele>336</ele>
        <time>2016-11-02T14:02:51Z</time>
      </trkpt>
      <trkpt lat="43.38063" lon="6.12459">
        <ele>336.60000610352</ele>
        <time>2016-11-02T14:02:59Z</time>
      </trkpt>
      <trkpt lat="43.38064" lon="6.1248">
        <ele>337</ele>
        <time>2016-11-02T14:03:09Z</time>
      </trkpt>
      <trkpt lat="43.38065" lon="6.12481">
        <ele>337.20001220703</ele>
        <time>2016-11-02T14:03:10Z</time>
      </trkpt>
      <trkpt lat="43.38066" lon="6.12485">
        <ele>337.60000610352</ele>
        <time>2016-11-02T14:03:12Z</time>
      </trkpt>
      <trkpt lat="43.38066" lon="6.12488">
        <ele>337.79998779297</ele>
        <time>2016-11-02T14:03:14Z</time>
      </trkpt>
      <trkpt lat="43.38066" lon="6.12493">
        <ele>338</ele>
        <time>2016-11-02T14:03:17Z</time>
      </trkpt>
      <trkpt lat="43.38067" lon="6.12497">
        <ele>338.39999389648</ele>
        <time>2016-11-02T14:03:19Z</time>
      </trkpt>
      <trkpt lat="43.38068" lon="6.12508">
        <ele>338.79998779297</ele>
        <time>2016-11-02T14:03:24Z</time>
      </trkpt>
      <trkpt lat="43.38067" lon="6.12517">
        <ele>339.60000610352</ele>
        <time>2016-11-02T14:03:29Z</time>
      </trkpt>
      <trkpt lat="43.38067" lon="6.12523">
        <ele>340</ele>
        <time>2016-11-02T14:03:32Z</time>
      </trkpt>
      <trkpt lat="43.38066" lon="6.12538">
        <ele>340.20001220703</ele>
        <time>2016-11-02T14:03:39Z</time>
      </trkpt>
      <trkpt lat="43.38066" lon="6.12549">
        <ele>341</ele>
        <time>2016-11-02T14:03:45Z</time>
      </trkpt>
      <trkpt lat="43.38064" lon="6.12559">
        <ele>341.20001220703</ele>
        <time>2016-11-02T14:03:49Z</time>
      </trkpt>
      <trkpt lat="43.38063" lon="6.12565">
        <ele>342</ele>
        <time>2016-11-02T14:03:52Z</time>
      </trkpt>
      <trkpt lat="43.38058" lon="6.12577">
        <ele>343</ele>
        <time>2016-11-02T14:03:59Z</time>
      </trkpt>
      <trkpt lat="43.38057" lon="6.1258">
        <ele>343.20001220703</ele>
        <time>2016-11-02T14:04:01Z</time>
      </trkpt>
      <trkpt lat="43.38053" lon="6.126">
        <ele>345.20001220703</ele>
        <time>2016-11-02T14:04:12Z</time>
      </trkpt>
      <trkpt lat="43.3805" lon="6.12612">
        <ele>345.20001220703</ele>
        <time>2016-11-02T14:04:19Z</time>
      </trkpt>
      <trkpt lat="43.38049" lon="6.12616">
        <ele>345.39999389648</ele>
        <time>2016-11-02T14:04:21Z</time>
      </trkpt>
      <trkpt lat="43.38046" lon="6.12631">
        <ele>346.60000610352</ele>
        <time>2016-11-02T14:04:29Z</time>
      </trkpt>
      <trkpt lat="43.38041" lon="6.12653">
        <ele>347.39999389648</ele>
        <time>2016-11-02T14:04:39Z</time>
      </trkpt>
      <trkpt lat="43.38041" lon="6.12655">
        <ele>347.60000610352</ele>
        <time>2016-11-02T14:04:40Z</time>
      </trkpt>
      <trkpt lat="43.38038" lon="6.12668">
        <ele>348.60000610352</ele>
        <time>2016-11-02T14:04:46Z</time>
      </trkpt>
      <trkpt lat="43.38034" lon="6.12673">
        <ele>349.20001220703</ele>
        <time>2016-11-02T14:04:49Z</time>
      </trkpt>
      <trkpt lat="43.3803" lon="6.12681">
        <ele>349.60000610352</ele>
        <time>2016-11-02T14:04:54Z</time>
      </trkpt>
      <trkpt lat="43.38028" lon="6.1269">
        <ele>350.39999389648</ele>
        <time>2016-11-02T14:04:59Z</time>
      </trkpt>
      <trkpt lat="43.38025" lon="6.12699">
        <ele>350.79998779297</ele>
        <time>2016-11-02T14:05:04Z</time>
      </trkpt>
      <trkpt lat="43.38023" lon="6.12708">
        <ele>351.60000610352</ele>
        <time>2016-11-02T14:05:09Z</time>
      </trkpt>
      <trkpt lat="43.3802" lon="6.12718">
        <ele>351.79998779297</ele>
        <time>2016-11-02T14:05:14Z</time>
      </trkpt>
      <trkpt lat="43.38018" lon="6.12727">
        <ele>352.20001220703</ele>
        <time>2016-11-02T14:05:18Z</time>
      </trkpt>
      <trkpt lat="43.38018" lon="6.12729">
        <ele>352.39999389648</ele>
        <time>2016-11-02T14:05:19Z</time>
      </trkpt>
      <trkpt lat="43.38015" lon="6.12742">
        <ele>352.79998779297</ele>
        <time>2016-11-02T14:05:25Z</time>
      </trkpt>
      <trkpt lat="43.38013" lon="6.1275">
        <ele>353.39999389648</ele>
        <time>2016-11-02T14:05:29Z</time>
      </trkpt>
      <trkpt lat="43.38012" lon="6.1276">
        <ele>354</ele>
        <time>2016-11-02T14:05:34Z</time>
      </trkpt>
      <trkpt lat="43.3801" lon="6.12769">
        <ele>354.39999389648</ele>
        <time>2016-11-02T14:05:39Z</time>
      </trkpt>
      <trkpt lat="43.38006" lon="6.12784">
        <ele>355</ele>
        <time>2016-11-02T14:05:46Z</time>
      </trkpt>
      <trkpt lat="43.38005" lon="6.1279">
        <ele>355.39999389648</ele>
        <time>2016-11-02T14:05:49Z</time>
      </trkpt>
      <trkpt lat="43.38" lon="6.12807">
        <ele>356</ele>
        <time>2016-11-02T14:05:57Z</time>
      </trkpt>
      <trkpt lat="43.37999" lon="6.12809">
        <ele>356.20001220703</ele>
        <time>2016-11-02T14:05:58Z</time>
      </trkpt>
      <trkpt lat="43.37999" lon="6.12811">
        <ele>356.20001220703</ele>
        <time>2016-11-02T14:05:59Z</time>
      </trkpt>
      <trkpt lat="43.37998" lon="6.12816">
        <ele>356.60000610352</ele>
        <time>2016-11-02T14:06:02Z</time>
      </trkpt>
      <trkpt lat="43.37996" lon="6.12825">
        <ele>357.20001220703</ele>
        <time>2016-11-02T14:06:07Z</time>
      </trkpt>
      <trkpt lat="43.37995" lon="6.1283">
        <ele>357.39999389648</ele>
        <time>2016-11-02T14:06:09Z</time>
      </trkpt>
      <trkpt lat="43.37993" lon="6.12842">
        <ele>358.20001220703</ele>
        <time>2016-11-02T14:06:15Z</time>
      </trkpt>
      <trkpt lat="43.37992" lon="6.12851">
        <ele>358.39999389648</ele>
        <time>2016-11-02T14:06:19Z</time>
      </trkpt>
      <trkpt lat="43.37991" lon="6.12853">
        <ele>358.60000610352</ele>
        <time>2016-11-02T14:06:20Z</time>
      </trkpt>
      <trkpt lat="43.3799" lon="6.1286">
        <ele>359.39999389648</ele>
        <time>2016-11-02T14:06:24Z</time>
      </trkpt>
      <trkpt lat="43.37987" lon="6.12872">
        <ele>360.39999389648</ele>
        <time>2016-11-02T14:06:30Z</time>
      </trkpt>
      <trkpt lat="43.37985" lon="6.12881">
        <ele>361.60000610352</ele>
        <time>2016-11-02T14:06:35Z</time>
      </trkpt>
      <trkpt lat="43.37984" lon="6.12889">
        <ele>362.39999389648</ele>
        <time>2016-11-02T14:06:39Z</time>
      </trkpt>
      <trkpt lat="43.3798" lon="6.12908">
        <ele>362.79998779297</ele>
        <time>2016-11-02T14:06:48Z</time>
      </trkpt>
      <trkpt lat="43.3798" lon="6.12911">
        <ele>363</ele>
        <time>2016-11-02T14:06:50Z</time>
      </trkpt>
      <trkpt lat="43.37977" lon="6.12921">
        <ele>363.60000610352</ele>
        <time>2016-11-02T14:06:55Z</time>
      </trkpt>
      <trkpt lat="43.37975" lon="6.12923">
        <ele>363.79998779297</ele>
        <time>2016-11-02T14:06:57Z</time>
      </trkpt>
      <trkpt lat="43.37973" lon="6.12926">
        <ele>364.39999389648</ele>
        <time>2016-11-02T14:06:59Z</time>
      </trkpt>
      <trkpt lat="43.3797" lon="6.12932">
        <ele>364.79998779297</ele>
        <time>2016-11-02T14:07:03Z</time>
      </trkpt>
      <trkpt lat="43.37965" lon="6.12942">
        <ele>365</ele>
        <time>2016-11-02T14:07:09Z</time>
      </trkpt>
      <trkpt lat="43.37961" lon="6.12952">
        <ele>365.79998779297</ele>
        <time>2016-11-02T14:07:14Z</time>
      </trkpt>
      <trkpt lat="43.3796" lon="6.12953">
        <ele>366</ele>
        <time>2016-11-02T14:07:15Z</time>
      </trkpt>
      <trkpt lat="43.3796" lon="6.12961">
        <ele>366.60000610352</ele>
        <time>2016-11-02T14:07:19Z</time>
      </trkpt>
      <trkpt lat="43.3796" lon="6.12966">
        <ele>367</ele>
        <time>2016-11-02T14:07:21Z</time>
      </trkpt>
      <trkpt lat="43.3796" lon="6.12981">
        <ele>367.60000610352</ele>
        <time>2016-11-02T14:07:28Z</time>
      </trkpt>
      <trkpt lat="43.3796" lon="6.12983">
        <ele>367.60000610352</ele>
        <time>2016-11-02T14:07:29Z</time>
      </trkpt>
      <trkpt lat="43.37957" lon="6.12991">
        <ele>368</ele>
        <time>2016-11-02T14:07:33Z</time>
      </trkpt>
      <trkpt lat="43.37952" lon="6.13002">
        <ele>368.60000610352</ele>
        <time>2016-11-02T14:07:39Z</time>
      </trkpt>
      <trkpt lat="43.37946" lon="6.13011">
        <ele>369</ele>
        <time>2016-11-02T14:07:45Z</time>
      </trkpt>
      <trkpt lat="43.37941" lon="6.13018">
        <ele>369.60000610352</ele>
        <time>2016-11-02T14:07:49Z</time>
      </trkpt>
      <trkpt lat="43.37933" lon="6.13028">
        <ele>370.20001220703</ele>
        <time>2016-11-02T14:07:54Z</time>
      </trkpt>
      <trkpt lat="43.37928" lon="6.13037">
        <ele>370.60000610352</ele>
        <time>2016-11-02T14:07:59Z</time>
      </trkpt>
      <trkpt lat="43.37921" lon="6.13049">
        <ele>371.20001220703</ele>
        <time>2016-11-02T14:08:05Z</time>
      </trkpt>
      <trkpt lat="43.3792" lon="6.13054">
        <ele>371.60000610352</ele>
        <time>2016-11-02T14:08:07Z</time>
      </trkpt>
      <trkpt lat="43.37917" lon="6.13063">
        <ele>372.60000610352</ele>
        <time>2016-11-02T14:08:11Z</time>
      </trkpt>
      <trkpt lat="43.37916" lon="6.1308">
        <ele>373.60000610352</ele>
        <time>2016-11-02T14:08:17Z</time>
      </trkpt>
      <trkpt lat="43.37916" lon="6.13086">
        <ele>373.79998779297</ele>
        <time>2016-11-02T14:08:19Z</time>
      </trkpt>
      <trkpt lat="43.37908" lon="6.13131">
        <ele>375.79998779297</ele>
        <time>2016-11-02T14:08:37Z</time>
      </trkpt>
      <trkpt lat="43.37907" lon="6.13136">
        <ele>376.20001220703</ele>
        <time>2016-11-02T14:08:39Z</time>
      </trkpt>
      <trkpt lat="43.37905" lon="6.13149">
        <ele>376.79998779297</ele>
        <time>2016-11-02T14:08:45Z</time>
      </trkpt>
      <trkpt lat="43.37903" lon="6.13159">
        <ele>377.39999389648</ele>
        <time>2016-11-02T14:08:49Z</time>
      </trkpt>
      <trkpt lat="43.37903" lon="6.13165">
        <ele>377.79998779297</ele>
        <time>2016-11-02T14:08:52Z</time>
      </trkpt>
      <trkpt lat="43.37901" lon="6.13178">
        <ele>379</ele>
        <time>2016-11-02T14:08:58Z</time>
      </trkpt>
      <trkpt lat="43.37901" lon="6.13181">
        <ele>379</ele>
        <time>2016-11-02T14:08:59Z</time>
      </trkpt>
      <trkpt lat="43.37897" lon="6.13203">
        <ele>380.60000610352</ele>
        <time>2016-11-02T14:09:09Z</time>
      </trkpt>
      <trkpt lat="43.37898" lon="6.13209">
        <ele>381</ele>
        <time>2016-11-02T14:09:12Z</time>
      </trkpt>
      <trkpt lat="43.37897" lon="6.13211">
        <ele>381</ele>
        <time>2016-11-02T14:09:13Z</time>
      </trkpt>
      <trkpt lat="43.37894" lon="6.13223">
        <ele>381.60000610352</ele>
        <time>2016-11-02T14:09:19Z</time>
      </trkpt>
      <trkpt lat="43.37891" lon="6.13231">
        <ele>382.20001220703</ele>
        <time>2016-11-02T14:09:24Z</time>
      </trkpt>
      <trkpt lat="43.3789" lon="6.13237">
        <ele>382.60000610352</ele>
        <time>2016-11-02T14:09:28Z</time>
      </trkpt>
      <trkpt lat="43.3789" lon="6.13239">
        <ele>382.60000610352</ele>
        <time>2016-11-02T14:09:29Z</time>
      </trkpt>
      <trkpt lat="43.37889" lon="6.13244">
        <ele>383.20001220703</ele>
        <time>2016-11-02T14:09:32Z</time>
      </trkpt>
      <trkpt lat="43.37888" lon="6.13247">
        <ele>383.39999389648</ele>
        <time>2016-11-02T14:09:33Z</time>
      </trkpt>
      <trkpt lat="43.37887" lon="6.13253">
        <ele>383.79998779297</ele>
        <time>2016-11-02T14:09:36Z</time>
      </trkpt>
      <trkpt lat="43.37887" lon="6.13259">
        <ele>384.39999389648</ele>
        <time>2016-11-02T14:09:39Z</time>
      </trkpt>
      <trkpt lat="43.37887" lon="6.13273">
        <ele>385.60000610352</ele>
        <time>2016-11-02T14:09:45Z</time>
      </trkpt>
      <trkpt lat="43.37887" lon="6.13281">
        <ele>386.39999389648</ele>
        <time>2016-11-02T14:09:49Z</time>
      </trkpt>
      <trkpt lat="43.37888" lon="6.13286">
        <ele>386.79998779297</ele>
        <time>2016-11-02T14:09:51Z</time>
      </trkpt>
      <trkpt lat="43.37884" lon="6.13297">
        <ele>388</ele>
        <time>2016-11-02T14:09:56Z</time>
      </trkpt>
      <trkpt lat="43.3788" lon="6.13306">
        <ele>389</ele>
        <time>2016-11-02T14:10:01Z</time>
      </trkpt>
      <trkpt lat="43.37878" lon="6.13313">
        <ele>389.39999389648</ele>
        <time>2016-11-02T14:10:04Z</time>
      </trkpt>
      <trkpt lat="43.37877" lon="6.13317">
        <ele>390.20001220703</ele>
        <time>2016-11-02T14:10:07Z</time>
      </trkpt>
      <trkpt lat="43.37877" lon="6.1332">
        <ele>390.60000610352</ele>
        <time>2016-11-02T14:10:09Z</time>
      </trkpt>
      <trkpt lat="43.37877" lon="6.13325">
        <ele>391</ele>
        <time>2016-11-02T14:10:12Z</time>
      </trkpt>
      <trkpt lat="43.37876" lon="6.13333">
        <ele>391.20001220703</ele>
        <time>2016-11-02T14:10:16Z</time>
      </trkpt>
      <trkpt lat="43.37876" lon="6.13339">
        <ele>391.79998779297</ele>
        <time>2016-11-02T14:10:20Z</time>
      </trkpt>
      <trkpt lat="43.37875" lon="6.1335">
        <ele>392.39999389648</ele>
        <time>2016-11-02T14:10:27Z</time>
      </trkpt>
      <trkpt lat="43.37875" lon="6.13353">
        <ele>392.39999389648</ele>
        <time>2016-11-02T14:10:29Z</time>
      </trkpt>
      <trkpt lat="43.37872" lon="6.13374">
        <ele>393</ele>
        <time>2016-11-02T14:10:39Z</time>
      </trkpt>
      <trkpt lat="43.37867" lon="6.13399">
        <ele>393</ele>
        <time>2016-11-02T14:10:48Z</time>
      </trkpt>
      <trkpt lat="43.37867" lon="6.13402">
        <ele>393</ele>
        <time>2016-11-02T14:10:49Z</time>
      </trkpt>
      <trkpt lat="43.37864" lon="6.13418">
        <ele>393.39999389648</ele>
        <time>2016-11-02T14:10:55Z</time>
      </trkpt>
      <trkpt lat="43.37863" lon="6.1343">
        <ele>393.60000610352</ele>
        <time>2016-11-02T14:10:59Z</time>
      </trkpt>
      <trkpt lat="43.3786" lon="6.13451">
        <ele>394.39999389648</ele>
        <time>2016-11-02T14:11:07Z</time>
      </trkpt>
      <trkpt lat="43.3786" lon="6.13456">
        <ele>394.60000610352</ele>
        <time>2016-11-02T14:11:09Z</time>
      </trkpt>
      <trkpt lat="43.37863" lon="6.13473">
        <ele>395.39999389648</ele>
        <time>2016-11-02T14:11:17Z</time>
      </trkpt>
      <trkpt lat="43.37864" lon="6.13477">
        <ele>396</ele>
        <time>2016-11-02T14:11:19Z</time>
      </trkpt>
      <trkpt lat="43.37864" lon="6.13481">
        <ele>396.39999389648</ele>
        <time>2016-11-02T14:11:21Z</time>
      </trkpt>
      <trkpt lat="43.37864" lon="6.13483">
        <ele>396.60000610352</ele>
        <time>2016-11-02T14:11:22Z</time>
      </trkpt>
      <trkpt lat="43.37864" lon="6.13489">
        <ele>397</ele>
        <time>2016-11-02T14:11:25Z</time>
      </trkpt>
      <trkpt lat="43.37862" lon="6.13498">
        <ele>397.39999389648</ele>
        <time>2016-11-02T14:11:29Z</time>
      </trkpt>
      <trkpt lat="43.37861" lon="6.13518">
        <ele>398.79998779297</ele>
        <time>2016-11-02T14:11:39Z</time>
      </trkpt>
      <trkpt lat="43.3786" lon="6.13528">
        <ele>399</ele>
        <time>2016-11-02T14:11:44Z</time>
      </trkpt>
      <trkpt lat="43.37857" lon="6.13538">
        <ele>399.60000610352</ele>
        <time>2016-11-02T14:11:49Z</time>
      </trkpt>
      <trkpt lat="43.37855" lon="6.13545">
        <ele>399.79998779297</ele>
        <time>2016-11-02T14:11:53Z</time>
      </trkpt>
      <trkpt lat="43.37851" lon="6.13553">
        <ele>399.60000610352</ele>
        <time>2016-11-02T14:11:58Z</time>
      </trkpt>
      <trkpt lat="43.37851" lon="6.13556">
        <ele>399.39999389648</ele>
        <time>2016-11-02T14:11:59Z</time>
      </trkpt>
      <trkpt lat="43.3785" lon="6.13562">
        <ele>399.39999389648</ele>
        <time>2016-11-02T14:12:01Z</time>
      </trkpt>
      <trkpt lat="43.3784" lon="6.13569">
        <ele>399.39999389648</ele>
        <time>2016-11-02T14:12:09Z</time>
      </trkpt>
      <trkpt lat="43.37839" lon="6.13569">
        <ele>399.60000610352</ele>
        <time>2016-11-02T14:12:13Z</time>
      </trkpt>
      <trkpt lat="43.37838" lon="6.13569">
        <ele>399.39999389648</ele>
        <time>2016-11-02T14:12:19Z</time>
      </trkpt>
      <trkpt lat="43.37838" lon="6.13569">
        <ele>400</ele>
        <time>2016-11-02T14:12:23Z</time>
      </trkpt>
      <trkpt lat="43.37838" lon="6.13568">
        <ele>399.79998779297</ele>
        <time>2016-11-02T14:13:07Z</time>
      </trkpt>
      <trkpt lat="43.37838" lon="6.13568">
        <ele>399.79998779297</ele>
        <time>2016-11-02T14:13:09Z</time>
      </trkpt>
      <trkpt lat="43.37838" lon="6.13568">
        <ele>399.60000610352</ele>
        <time>2016-11-02T14:13:19Z</time>
      </trkpt>
      <trkpt lat="43.37838" lon="6.13567">
        <ele>399.60000610352</ele>
        <time>2016-11-02T14:13:39Z</time>
      </trkpt>
      <trkpt lat="43.37838" lon="6.13567">
        <ele>399.60000610352</ele>
        <time>2016-11-02T14:13:43Z</time>
      </trkpt>
      <trkpt lat="43.37838" lon="6.13567">
        <ele>399.60000610352</ele>
        <time>2016-11-02T14:13:49Z</time>
      </trkpt>
      <trkpt lat="43.37837" lon="6.13567">
        <ele>399.60000610352</ele>
        <time>2016-11-02T14:14:04Z</time>
      </trkpt>
      <trkpt lat="43.37838" lon="6.13567">
        <ele>399.60000610352</ele>
        <time>2016-11-02T14:14:09Z</time>
      </trkpt>
      <trkpt lat="43.37837" lon="6.13567">
        <ele>399.60000610352</ele>
        <time>2016-11-02T14:14:19Z</time>
      </trkpt>
      <trkpt lat="43.37837" lon="6.13567">
        <ele>399.60000610352</ele>
        <time>2016-11-02T14:14:22Z</time>
      </trkpt>
      <trkpt lat="43.37836" lon="6.13568">
        <ele>399.60000610352</ele>
        <time>2016-11-02T14:14:39Z</time>
      </trkpt>
      <trkpt lat="43.37835" lon="6.13569">
        <ele>399.60000610352</ele>
        <time>2016-11-02T14:14:49Z</time>
      </trkpt>
      <trkpt lat="43.37834" lon="6.13568">
        <ele>399.60000610352</ele>
        <time>2016-11-02T14:14:59Z</time>
      </trkpt>
      <trkpt lat="43.37831" lon="6.13569">
        <ele>399.39999389648</ele>
        <time>2016-11-02T14:15:07Z</time>
      </trkpt>
      <trkpt lat="43.3783" lon="6.13569">
        <ele>399.20001220703</ele>
        <time>2016-11-02T14:15:08Z</time>
      </trkpt>
      <trkpt lat="43.37827" lon="6.1357">
        <ele>398.60000610352</ele>
        <time>2016-11-02T14:15:09Z</time>
      </trkpt>
      <trkpt lat="43.37806" lon="6.1357">
        <ele>397.79998779297</ele>
        <time>2016-11-02T14:15:15Z</time>
      </trkpt>
      <trkpt lat="43.37801" lon="6.13571">
        <ele>397.60000610352</ele>
        <time>2016-11-02T14:15:16Z</time>
      </trkpt>
      <trkpt lat="43.37786" lon="6.13576">
        <ele>396.39999389648</ele>
        <time>2016-11-02T14:15:19Z</time>
      </trkpt>
      <trkpt lat="43.3778" lon="6.13579">
        <ele>396.20001220703</ele>
        <time>2016-11-02T14:15:20Z</time>
      </trkpt>
      <trkpt lat="43.37771" lon="6.13587">
        <ele>396.20001220703</ele>
        <time>2016-11-02T14:15:22Z</time>
      </trkpt>
      <trkpt lat="43.37752" lon="6.13609">
        <ele>396</ele>
        <time>2016-11-02T14:15:29Z</time>
      </trkpt>
      <trkpt lat="43.37745" lon="6.13613">
        <ele>395</ele>
        <time>2016-11-02T14:15:31Z</time>
      </trkpt>
      <trkpt lat="43.37737" lon="6.13618">
        <ele>394</ele>
        <time>2016-11-02T14:15:33Z</time>
      </trkpt>
      <trkpt lat="43.37727" lon="6.13631">
        <ele>393</ele>
        <time>2016-11-02T14:15:36Z</time>
      </trkpt>
      <trkpt lat="43.37718" lon="6.13647">
        <ele>392</ele>
        <time>2016-11-02T14:15:39Z</time>
      </trkpt>
      <trkpt lat="43.37714" lon="6.13653">
        <ele>391.39999389648</ele>
        <time>2016-11-02T14:15:40Z</time>
      </trkpt>
      <trkpt lat="43.37706" lon="6.13662">
        <ele>390.20001220703</ele>
        <time>2016-11-02T14:15:42Z</time>
      </trkpt>
      <trkpt lat="43.37698" lon="6.1367">
        <ele>389</ele>
        <time>2016-11-02T14:15:44Z</time>
      </trkpt>
      <trkpt lat="43.37689" lon="6.13678">
        <ele>387.39999389648</ele>
        <time>2016-11-02T14:15:47Z</time>
      </trkpt>
      <trkpt lat="43.37683" lon="6.13675">
        <ele>386.79998779297</ele>
        <time>2016-11-02T14:15:49Z</time>
      </trkpt>
      <trkpt lat="43.37682" lon="6.13672">
        <ele>386.39999389648</ele>
        <time>2016-11-02T14:15:50Z</time>
      </trkpt>
      <trkpt lat="43.37675" lon="6.13662">
        <ele>385.20001220703</ele>
        <time>2016-11-02T14:15:54Z</time>
      </trkpt>
      <trkpt lat="43.37665" lon="6.13646">
        <ele>382.39999389648</ele>
        <time>2016-11-02T14:15:59Z</time>
      </trkpt>
      <trkpt lat="43.37661" lon="6.13639">
        <ele>382.39999389648</ele>
        <time>2016-11-02T14:16:01Z</time>
      </trkpt>
      <trkpt lat="43.37654" lon="6.13619">
        <ele>380.79998779297</ele>
        <time>2016-11-02T14:16:07Z</time>
      </trkpt>
      <trkpt lat="43.37651" lon="6.13611">
        <ele>379.79998779297</ele>
        <time>2016-11-02T14:16:09Z</time>
      </trkpt>
      <trkpt lat="43.3765" lon="6.13607">
        <ele>379.60000610352</ele>
        <time>2016-11-02T14:16:10Z</time>
      </trkpt>
      <trkpt lat="43.37646" lon="6.13591">
        <ele>378</ele>
        <time>2016-11-02T14:16:13Z</time>
      </trkpt>
      <trkpt lat="43.37643" lon="6.13581">
        <ele>377</ele>
        <time>2016-11-02T14:16:15Z</time>
      </trkpt>
      <trkpt lat="43.37638" lon="6.13573">
        <ele>375.79998779297</ele>
        <time>2016-11-02T14:16:17Z</time>
      </trkpt>
      <trkpt lat="43.37634" lon="6.13564">
        <ele>374.60000610352</ele>
        <time>2016-11-02T14:16:19Z</time>
      </trkpt>
      <trkpt lat="43.3763" lon="6.13552">
        <ele>373.20001220703</ele>
        <time>2016-11-02T14:16:21Z</time>
      </trkpt>
      <trkpt lat="43.37624" lon="6.1353">
        <ele>372</ele>
        <time>2016-11-02T14:16:25Z</time>
      </trkpt>
      <trkpt lat="43.37621" lon="6.13523">
        <ele>370.79998779297</ele>
        <time>2016-11-02T14:16:27Z</time>
      </trkpt>
      <trkpt lat="43.37621" lon="6.13521">
        <ele>370</ele>
        <time>2016-11-02T14:16:29Z</time>
      </trkpt>
      <trkpt lat="43.37621" lon="6.13521">
        <ele>369</ele>
        <time>2016-11-02T14:16:49Z</time>
      </trkpt>
      <trkpt lat="43.37621" lon="6.13521">
        <ele>369.20001220703</ele>
        <time>2016-11-02T14:16:54Z</time>
      </trkpt>
      <trkpt lat="43.3762" lon="6.13519">
        <ele>369.20001220703</ele>
        <time>2016-11-02T14:16:55Z</time>
      </trkpt>
      <trkpt lat="43.37616" lon="6.13505">
        <ele>368.39999389648</ele>
        <time>2016-11-02T14:16:59Z</time>
      </trkpt>
      <trkpt lat="43.37612" lon="6.13493">
        <ele>366.60000610352</ele>
        <time>2016-11-02T14:17:02Z</time>
      </trkpt>
      <trkpt lat="43.37606" lon="6.13479">
        <ele>365.39999389648</ele>
        <time>2016-11-02T14:17:06Z</time>
      </trkpt>
      <trkpt lat="43.376" lon="6.13466">
        <ele>362.79998779297</ele>
        <time>2016-11-02T14:17:11Z</time>
      </trkpt>
      <trkpt lat="43.37595" lon="6.13462">
        <ele>362</ele>
        <time>2016-11-02T14:17:14Z</time>
      </trkpt>
      <trkpt lat="43.37593" lon="6.13463">
        <ele>361.60000610352</ele>
        <time>2016-11-02T14:17:15Z</time>
      </trkpt>
      <trkpt lat="43.37587" lon="6.13475">
        <ele>360</ele>
        <time>2016-11-02T14:17:19Z</time>
      </trkpt>
      <trkpt lat="43.37585" lon="6.13479">
        <ele>359.39999389648</ele>
        <time>2016-11-02T14:17:20Z</time>
      </trkpt>
      <trkpt lat="43.37576" lon="6.13505">
        <ele>360.60000610352</ele>
        <time>2016-11-02T14:17:26Z</time>
      </trkpt>
      <trkpt lat="43.37571" lon="6.13514">
        <ele>358.79998779297</ele>
        <time>2016-11-02T14:17:29Z</time>
      </trkpt>
      <trkpt lat="43.37569" lon="6.13514">
        <ele>357</ele>
        <time>2016-11-02T14:17:30Z</time>
      </trkpt>
      <trkpt lat="43.37566" lon="6.13513">
        <ele>355.79998779297</ele>
        <time>2016-11-02T14:17:31Z</time>
      </trkpt>
      <trkpt lat="43.37564" lon="6.13509">
        <ele>354.60000610352</ele>
        <time>2016-11-02T14:17:33Z</time>
      </trkpt>
      <trkpt lat="43.37563" lon="6.13506">
        <ele>354.39999389648</ele>
        <time>2016-11-02T14:17:34Z</time>
      </trkpt>
      <trkpt lat="43.3756" lon="6.13493">
        <ele>353.60000610352</ele>
        <time>2016-11-02T14:17:37Z</time>
      </trkpt>
      <trkpt lat="43.37557" lon="6.13486">
        <ele>353</ele>
        <time>2016-11-02T14:17:39Z</time>
      </trkpt>
      <trkpt lat="43.37553" lon="6.13476">
        <ele>352.39999389648</ele>
        <time>2016-11-02T14:17:42Z</time>
      </trkpt>
      <trkpt lat="43.3755" lon="6.13469">
        <ele>351.39999389648</ele>
        <time>2016-11-02T14:17:44Z</time>
      </trkpt>
      <trkpt lat="43.37543" lon="6.1346">
        <ele>350</ele>
        <time>2016-11-02T14:17:47Z</time>
      </trkpt>
      <trkpt lat="43.3754" lon="6.13459">
        <ele>349.20001220703</ele>
        <time>2016-11-02T14:17:48Z</time>
      </trkpt>
      <trkpt lat="43.37537" lon="6.13459">
        <ele>348.60000610352</ele>
        <time>2016-11-02T14:17:49Z</time>
      </trkpt>
      <trkpt lat="43.37531" lon="6.13461">
        <ele>347</ele>
        <time>2016-11-02T14:17:51Z</time>
      </trkpt>
      <trkpt lat="43.37524" lon="6.13466">
        <ele>345.60000610352</ele>
        <time>2016-11-02T14:17:53Z</time>
      </trkpt>
      <trkpt lat="43.37522" lon="6.13472">
        <ele>344.39999389648</ele>
        <time>2016-11-02T14:17:56Z</time>
      </trkpt>
      <trkpt lat="43.37523" lon="6.13471">
        <ele>344.20001220703</ele>
        <time>2016-11-02T14:17:59Z</time>
      </trkpt>
      <trkpt lat="43.37523" lon="6.13471">
        <ele>344.20001220703</ele>
        <time>2016-11-02T14:18:19Z</time>
      </trkpt>
      <trkpt lat="43.37523" lon="6.13472">
        <ele>344.79998779297</ele>
        <time>2016-11-02T14:18:38Z</time>
      </trkpt>
      <trkpt lat="43.37523" lon="6.13472">
        <ele>344.20001220703</ele>
        <time>2016-11-02T14:18:49Z</time>
      </trkpt>
      <trkpt lat="43.37523" lon="6.13472">
        <ele>343.79998779297</ele>
        <time>2016-11-02T14:18:55Z</time>
      </trkpt>
      <trkpt lat="43.37522" lon="6.13473">
        <ele>343.79998779297</ele>
        <time>2016-11-02T14:18:59Z</time>
      </trkpt>
      <trkpt lat="43.37522" lon="6.13473">
        <ele>344.39999389648</ele>
        <time>2016-11-02T14:19:19Z</time>
      </trkpt>
      <trkpt lat="43.37523" lon="6.13472">
        <ele>344.39999389648</ele>
        <time>2016-11-02T14:19:27Z</time>
      </trkpt>
      <trkpt lat="43.37523" lon="6.13472">
        <ele>344.39999389648</ele>
        <time>2016-11-02T14:19:36Z</time>
      </trkpt>
      <trkpt lat="43.37523" lon="6.13471">
        <ele>344.39999389648</ele>
        <time>2016-11-02T14:19:49Z</time>
      </trkpt>
      <trkpt lat="43.37523" lon="6.13472">
        <ele>344.39999389648</ele>
        <time>2016-11-02T14:19:55Z</time>
      </trkpt>
      <trkpt lat="43.37522" lon="6.13474">
        <ele>344.39999389648</ele>
        <time>2016-11-02T14:19:58Z</time>
      </trkpt>
      <trkpt lat="43.37522" lon="6.13476">
        <ele>344.39999389648</ele>
        <time>2016-11-02T14:19:59Z</time>
      </trkpt>
      <trkpt lat="43.37522" lon="6.13479">
        <ele>344.60000610352</ele>
        <time>2016-11-02T14:20:00Z</time>
      </trkpt>
      <trkpt lat="43.37527" lon="6.13506">
        <ele>344.79998779297</ele>
        <time>2016-11-02T14:20:09Z</time>
      </trkpt>
      <trkpt lat="43.37529" lon="6.13517">
        <ele>345.60000610352</ele>
        <time>2016-11-02T14:20:13Z</time>
      </trkpt>
      <trkpt lat="43.37531" lon="6.13548">
        <ele>346.60000610352</ele>
        <time>2016-11-02T14:20:23Z</time>
      </trkpt>
      <trkpt lat="43.37534" lon="6.13565">
        <ele>347</ele>
        <time>2016-11-02T14:20:29Z</time>
      </trkpt>
      <trkpt lat="43.37537" lon="6.13578">
        <ele>347.60000610352</ele>
        <time>2016-11-02T14:20:33Z</time>
      </trkpt>
      <trkpt lat="43.37542" lon="6.13594">
        <ele>348</ele>
        <time>2016-11-02T14:20:39Z</time>
      </trkpt>
      <trkpt lat="43.37549" lon="6.13621">
        <ele>350</ele>
        <time>2016-11-02T14:20:49Z</time>
      </trkpt>
      <trkpt lat="43.37556" lon="6.13648">
        <ele>350.79998779297</ele>
        <time>2016-11-02T14:20:59Z</time>
      </trkpt>
      <trkpt lat="43.37556" lon="6.13651">
        <ele>350.79998779297</ele>
        <time>2016-11-02T14:21:00Z</time>
      </trkpt>
      <trkpt lat="43.37558" lon="6.1368">
        <ele>351.79998779297</ele>
        <time>2016-11-02T14:21:09Z</time>
      </trkpt>
      <trkpt lat="43.37562" lon="6.13711">
        <ele>352.60000610352</ele>
        <time>2016-11-02T14:21:19Z</time>
      </trkpt>
      <trkpt lat="43.37564" lon="6.13716">
        <ele>353</ele>
        <time>2016-11-02T14:21:21Z</time>
      </trkpt>
      <trkpt lat="43.37567" lon="6.13733">
        <ele>354.20001220703</ele>
        <time>2016-11-02T14:21:28Z</time>
      </trkpt>
      <trkpt lat="43.37567" lon="6.13736">
        <ele>354.39999389648</ele>
        <time>2016-11-02T14:21:29Z</time>
      </trkpt>
      <trkpt lat="43.37569" lon="6.13761">
        <ele>355.39999389648</ele>
        <time>2016-11-02T14:21:39Z</time>
      </trkpt>
      <trkpt lat="43.3757" lon="6.13772">
        <ele>356.20001220703</ele>
        <time>2016-11-02T14:21:43Z</time>
      </trkpt>
      <trkpt lat="43.37572" lon="6.13788">
        <ele>356.39999389648</ele>
        <time>2016-11-02T14:21:49Z</time>
      </trkpt>
      <trkpt lat="43.37572" lon="6.13818">
        <ele>357.20001220703</ele>
        <time>2016-11-02T14:21:59Z</time>
      </trkpt>
      <trkpt lat="43.37571" lon="6.13828">
        <ele>357.20001220703</ele>
        <time>2016-11-02T14:22:02Z</time>
      </trkpt>
      <trkpt lat="43.37568" lon="6.13847">
        <ele>357.60000610352</ele>
        <time>2016-11-02T14:22:08Z</time>
      </trkpt>
      <trkpt lat="43.37566" lon="6.13871">
        <ele>357.60000610352</ele>
        <time>2016-11-02T14:22:15Z</time>
      </trkpt>
      <trkpt lat="43.37564" lon="6.13884">
        <ele>357.39999389648</ele>
        <time>2016-11-02T14:22:19Z</time>
      </trkpt>
      <trkpt lat="43.37563" lon="6.13899">
        <ele>358.20001220703</ele>
        <time>2016-11-02T14:22:24Z</time>
      </trkpt>
      <trkpt lat="43.37559" lon="6.13914">
        <ele>358.60000610352</ele>
        <time>2016-11-02T14:22:29Z</time>
      </trkpt>
      <trkpt lat="43.37552" lon="6.13939">
        <ele>359.39999389648</ele>
        <time>2016-11-02T14:22:38Z</time>
      </trkpt>
      <trkpt lat="43.37551" lon="6.13942">
        <ele>359.60000610352</ele>
        <time>2016-11-02T14:22:39Z</time>
      </trkpt>
      <trkpt lat="43.37544" lon="6.13961">
        <ele>360.60000610352</ele>
        <time>2016-11-02T14:22:47Z</time>
      </trkpt>
      <trkpt lat="43.37543" lon="6.13965">
        <ele>360.79998779297</ele>
        <time>2016-11-02T14:22:49Z</time>
      </trkpt>
      <trkpt lat="43.37539" lon="6.13988">
        <ele>361.60000610352</ele>
        <time>2016-11-02T14:22:58Z</time>
      </trkpt>
      <trkpt lat="43.37539" lon="6.13991">
        <ele>361.60000610352</ele>
        <time>2016-11-02T14:22:59Z</time>
      </trkpt>
      <trkpt lat="43.37534" lon="6.14017">
        <ele>362.39999389648</ele>
        <time>2016-11-02T14:23:09Z</time>
      </trkpt>
      <trkpt lat="43.37534" lon="6.14018">
        <ele>362.60000610352</ele>
        <time>2016-11-02T14:23:10Z</time>
      </trkpt>
      <trkpt lat="43.37527" lon="6.14038">
        <ele>363.20001220703</ele>
        <time>2016-11-02T14:23:19Z</time>
      </trkpt>
      <trkpt lat="43.37523" lon="6.14047">
        <ele>363.79998779297</ele>
        <time>2016-11-02T14:23:23Z</time>
      </trkpt>
      <trkpt lat="43.37519" lon="6.14063">
        <ele>364.60000610352</ele>
        <time>2016-11-02T14:23:29Z</time>
      </trkpt>
      <trkpt lat="43.37518" lon="6.14066">
        <ele>364.79998779297</ele>
        <time>2016-11-02T14:23:30Z</time>
      </trkpt>
      <trkpt lat="43.37519" lon="6.14078">
        <ele>365.39999389648</ele>
        <time>2016-11-02T14:23:35Z</time>
      </trkpt>
      <trkpt lat="43.37518" lon="6.14086">
        <ele>366</ele>
        <time>2016-11-02T14:23:39Z</time>
      </trkpt>
      <trkpt lat="43.37518" lon="6.1409">
        <ele>366</ele>
        <time>2016-11-02T14:23:41Z</time>
      </trkpt>
      <trkpt lat="43.37514" lon="6.14106">
        <ele>366</ele>
        <time>2016-11-02T14:23:49Z</time>
      </trkpt>
      <trkpt lat="43.37507" lon="6.14113">
        <ele>367</ele>
        <time>2016-11-02T14:23:55Z</time>
      </trkpt>
      <trkpt lat="43.37504" lon="6.14118">
        <ele>367.60000610352</ele>
        <time>2016-11-02T14:23:59Z</time>
      </trkpt>
      <trkpt lat="43.37496" lon="6.1413">
        <ele>368.39999389648</ele>
        <time>2016-11-02T14:24:09Z</time>
      </trkpt>
      <trkpt lat="43.37486" lon="6.14141">
        <ele>369.60000610352</ele>
        <time>2016-11-02T14:24:19Z</time>
      </trkpt>
      <trkpt lat="43.37483" lon="6.14146">
        <ele>370.20001220703</ele>
        <time>2016-11-02T14:24:22Z</time>
      </trkpt>
      <trkpt lat="43.37476" lon="6.14154">
        <ele>370.79998779297</ele>
        <time>2016-11-02T14:24:29Z</time>
      </trkpt>
      <trkpt lat="43.37467" lon="6.14158">
        <ele>371.39999389648</ele>
        <time>2016-11-02T14:24:36Z</time>
      </trkpt>
      <trkpt lat="43.37461" lon="6.14157">
        <ele>372.39999389648</ele>
        <time>2016-11-02T14:24:40Z</time>
      </trkpt>
      <trkpt lat="43.37451" lon="6.14165">
        <ele>373.39999389648</ele>
        <time>2016-11-02T14:24:49Z</time>
      </trkpt>
      <trkpt lat="43.3745" lon="6.14166">
        <ele>373.60000610352</ele>
        <time>2016-11-02T14:24:50Z</time>
      </trkpt>
      <trkpt lat="43.37437" lon="6.14172">
        <ele>374.60000610352</ele>
        <time>2016-11-02T14:25:00Z</time>
      </trkpt>
      <trkpt lat="43.37431" lon="6.14176">
        <ele>375.79998779297</ele>
        <time>2016-11-02T14:25:05Z</time>
      </trkpt>
      <trkpt lat="43.37426" lon="6.14178">
        <ele>376.79998779297</ele>
        <time>2016-11-02T14:25:10Z</time>
      </trkpt>
      <trkpt lat="43.37421" lon="6.14181">
        <ele>378</ele>
        <time>2016-11-02T14:25:15Z</time>
      </trkpt>
      <trkpt lat="43.37417" lon="6.14183">
        <ele>378.20001220703</ele>
        <time>2016-11-02T14:25:19Z</time>
      </trkpt>
      <trkpt lat="43.37416" lon="6.14184">
        <ele>378.39999389648</ele>
        <time>2016-11-02T14:25:20Z</time>
      </trkpt>
      <trkpt lat="43.37414" lon="6.14184">
        <ele>378.60000610352</ele>
        <time>2016-11-02T14:25:21Z</time>
      </trkpt>
      <trkpt lat="43.37412" lon="6.14184">
        <ele>379</ele>
        <time>2016-11-02T14:25:23Z</time>
      </trkpt>
      <trkpt lat="43.37408" lon="6.14185">
        <ele>380.20001220703</ele>
        <time>2016-11-02T14:25:29Z</time>
      </trkpt>
      <trkpt lat="43.37407" lon="6.14184">
        <ele>380.39999389648</ele>
        <time>2016-11-02T14:25:33Z</time>
      </trkpt>
      <trkpt lat="43.37406" lon="6.14185">
        <ele>380.39999389648</ele>
        <time>2016-11-02T14:25:39Z</time>
      </trkpt>
      <trkpt lat="43.37403" lon="6.14186">
        <ele>380.60000610352</ele>
        <time>2016-11-02T14:25:42Z</time>
      </trkpt>
      <trkpt lat="43.37399" lon="6.1419">
        <ele>381.39999389648</ele>
        <time>2016-11-02T14:25:46Z</time>
      </trkpt>
      <trkpt lat="43.37397" lon="6.14191">
        <ele>382</ele>
        <time>2016-11-02T14:25:49Z</time>
      </trkpt>
      <trkpt lat="43.37393" lon="6.14191">
        <ele>381.79998779297</ele>
        <time>2016-11-02T14:25:53Z</time>
      </trkpt>
      <trkpt lat="43.37386" lon="6.14189">
        <ele>382</ele>
        <time>2016-11-02T14:25:59Z</time>
      </trkpt>
      <trkpt lat="43.37375" lon="6.14195">
        <ele>382.39999389648</ele>
        <time>2016-11-02T14:26:09Z</time>
      </trkpt>
      <trkpt lat="43.3737" lon="6.14204">
        <ele>382.79998779297</ele>
        <time>2016-11-02T14:26:16Z</time>
      </trkpt>
      <trkpt lat="43.37367" lon="6.14208">
        <ele>383.20001220703</ele>
        <time>2016-11-02T14:26:19Z</time>
      </trkpt>
      <trkpt lat="43.37364" lon="6.14218">
        <ele>385</ele>
        <time>2016-11-02T14:26:26Z</time>
      </trkpt>
      <trkpt lat="43.37362" lon="6.14222">
        <ele>385</ele>
        <time>2016-11-02T14:26:29Z</time>
      </trkpt>
      <trkpt lat="43.37357" lon="6.14231">
        <ele>385.39999389648</ele>
        <time>2016-11-02T14:26:36Z</time>
      </trkpt>
      <trkpt lat="43.37355" lon="6.14234">
        <ele>385.39999389648</ele>
        <time>2016-11-02T14:26:39Z</time>
      </trkpt>
      <trkpt lat="43.37354" lon="6.14235">
        <ele>385.39999389648</ele>
        <time>2016-11-02T14:26:41Z</time>
      </trkpt>
      <trkpt lat="43.37354" lon="6.14235">
        <ele>385.20001220703</ele>
        <time>2016-11-02T14:26:48Z</time>
      </trkpt>
      <trkpt lat="43.37354" lon="6.14235">
        <ele>385.60000610352</ele>
        <time>2016-11-02T14:26:55Z</time>
      </trkpt>
      <trkpt lat="43.37354" lon="6.14235">
        <ele>385.39999389648</ele>
        <time>2016-11-02T14:26:59Z</time>
      </trkpt>
      <trkpt lat="43.37354" lon="6.14235">
        <ele>385.60000610352</ele>
        <time>2016-11-02T14:27:04Z</time>
      </trkpt>
      <trkpt lat="43.37354" lon="6.14235">
        <ele>385.39999389648</ele>
        <time>2016-11-02T14:27:19Z</time>
      </trkpt>
      <trkpt lat="43.37354" lon="6.14235">
        <ele>385.39999389648</ele>
        <time>2016-11-02T14:27:26Z</time>
      </trkpt>
      <trkpt lat="43.37354" lon="6.14235">
        <ele>385.39999389648</ele>
        <time>2016-11-02T14:27:59Z</time>
      </trkpt>
      <trkpt lat="43.37354" lon="6.14236">
        <ele>385.39999389648</ele>
        <time>2016-11-02T14:28:09Z</time>
      </trkpt>
      <trkpt lat="43.37354" lon="6.14235">
        <ele>385.39999389648</ele>
        <time>2016-11-02T14:28:36Z</time>
      </trkpt>
      <trkpt lat="43.37354" lon="6.14235">
        <ele>385.39999389648</ele>
        <time>2016-11-02T14:28:39Z</time>
      </trkpt>
      <trkpt lat="43.37354" lon="6.14236">
        <ele>385.39999389648</ele>
        <time>2016-11-02T14:28:52Z</time>
      </trkpt>
      <trkpt lat="43.37354" lon="6.14236">
        <ele>385.39999389648</ele>
        <time>2016-11-02T14:28:56Z</time>
      </trkpt>
      <trkpt lat="43.37354" lon="6.14236">
        <ele>385.39999389648</ele>
        <time>2016-11-02T14:28:59Z</time>
      </trkpt>
      <trkpt lat="43.37354" lon="6.14236">
        <ele>385.39999389648</ele>
        <time>2016-11-02T14:29:17Z</time>
      </trkpt>
      <trkpt lat="43.37354" lon="6.14236">
        <ele>385.39999389648</ele>
        <time>2016-11-02T14:29:19Z</time>
      </trkpt>
      <trkpt lat="43.37353" lon="6.14238">
        <ele>385.39999389648</ele>
        <time>2016-11-02T14:29:23Z</time>
      </trkpt>
      <trkpt lat="43.3735" lon="6.1424">
        <ele>385.20001220703</ele>
        <time>2016-11-02T14:29:25Z</time>
      </trkpt>
      <trkpt lat="43.37349" lon="6.14243">
        <ele>386.20001220703</ele>
        <time>2016-11-02T14:29:27Z</time>
      </trkpt>
      <trkpt lat="43.37341" lon="6.1425">
        <ele>385.20001220703</ele>
        <time>2016-11-02T14:29:31Z</time>
      </trkpt>
      <trkpt lat="43.3733" lon="6.14262">
        <ele>383.60000610352</ele>
        <time>2016-11-02T14:29:35Z</time>
      </trkpt>
      <trkpt lat="43.37327" lon="6.14267">
        <ele>382.79998779297</ele>
        <time>2016-11-02T14:29:36Z</time>
      </trkpt>
      <trkpt lat="43.37324" lon="6.14272">
        <ele>381.79998779297</ele>
        <time>2016-11-02T14:29:37Z</time>
      </trkpt>
      <trkpt lat="43.37319" lon="6.14279">
        <ele>380</ele>
        <time>2016-11-02T14:29:39Z</time>
      </trkpt>
      <trkpt lat="43.37316" lon="6.14282">
        <ele>378.60000610352</ele>
        <time>2016-11-02T14:29:40Z</time>
      </trkpt>
      <trkpt lat="43.37309" lon="6.14286">
        <ele>377.39999389648</ele>
        <time>2016-11-02T14:29:42Z</time>
      </trkpt>
      <trkpt lat="43.37299" lon="6.1429">
        <ele>376.20001220703</ele>
        <time>2016-11-02T14:29:44Z</time>
      </trkpt>
      <trkpt lat="43.37294" lon="6.14292">
        <ele>375.39999389648</ele>
        <time>2016-11-02T14:29:45Z</time>
      </trkpt>
      <trkpt lat="43.37286" lon="6.143">
        <ele>374.60000610352</ele>
        <time>2016-11-02T14:29:47Z</time>
      </trkpt>
      <trkpt lat="43.37281" lon="6.14305">
        <ele>373.79998779297</ele>
        <time>2016-11-02T14:29:48Z</time>
      </trkpt>
      <trkpt lat="43.37277" lon="6.14309">
        <ele>373</ele>
        <time>2016-11-02T14:29:49Z</time>
      </trkpt>
      <trkpt lat="43.37272" lon="6.14313">
        <ele>372.20001220703</ele>
        <time>2016-11-02T14:29:50Z</time>
      </trkpt>
      <trkpt lat="43.37263" lon="6.14319">
        <ele>371.20001220703</ele>
        <time>2016-11-02T14:29:52Z</time>
      </trkpt>
      <trkpt lat="43.37246" lon="6.14315">
        <ele>370</ele>
        <time>2016-11-02T14:29:58Z</time>
      </trkpt>
      <trkpt lat="43.37242" lon="6.14314">
        <ele>369.79998779297</ele>
        <time>2016-11-02T14:29:59Z</time>
      </trkpt>
      <trkpt lat="43.37231" lon="6.14317">
        <ele>369</ele>
        <time>2016-11-02T14:30:02Z</time>
      </trkpt>
      <trkpt lat="43.3722" lon="6.14323">
        <ele>368.39999389648</ele>
        <time>2016-11-02T14:30:05Z</time>
      </trkpt>
      <trkpt lat="43.37207" lon="6.14333">
        <ele>367.60000610352</ele>
        <time>2016-11-02T14:30:09Z</time>
      </trkpt>
      <trkpt lat="43.37191" lon="6.14342">
        <ele>366.79998779297</ele>
        <time>2016-11-02T14:30:13Z</time>
      </trkpt>
      <trkpt lat="43.37181" lon="6.1435">
        <ele>366.20001220703</ele>
        <time>2016-11-02T14:30:17Z</time>
      </trkpt>
      <trkpt lat="43.3718" lon="6.14354">
        <ele>366</ele>
        <time>2016-11-02T14:30:19Z</time>
      </trkpt>
      <trkpt lat="43.37177" lon="6.14365">
        <ele>365.79998779297</ele>
        <time>2016-11-02T14:30:23Z</time>
      </trkpt>
      <trkpt lat="43.37174" lon="6.14368">
        <ele>365.60000610352</ele>
        <time>2016-11-02T14:30:25Z</time>
      </trkpt>
      <trkpt lat="43.37164" lon="6.14369">
        <ele>365.60000610352</ele>
        <time>2016-11-02T14:30:29Z</time>
      </trkpt>
      <trkpt lat="43.37132" lon="6.14369">
        <ele>365.79998779297</ele>
        <time>2016-11-02T14:30:39Z</time>
      </trkpt>
      <trkpt lat="43.371" lon="6.14351">
        <ele>365.79998779297</ele>
        <time>2016-11-02T14:30:49Z</time>
      </trkpt>
      <trkpt lat="43.37091" lon="6.14342">
        <ele>365.79998779297</ele>
        <time>2016-11-02T14:30:52Z</time>
      </trkpt>
      <trkpt lat="43.37084" lon="6.14315">
        <ele>364.60000610352</ele>
        <time>2016-11-02T14:30:59Z</time>
      </trkpt>
      <trkpt lat="43.37077" lon="6.14293">
        <ele>363.39999389648</ele>
        <time>2016-11-02T14:31:03Z</time>
      </trkpt>
      <trkpt lat="43.37069" lon="6.14271">
        <ele>362.60000610352</ele>
        <time>2016-11-02T14:31:07Z</time>
      </trkpt>
      <trkpt lat="43.37068" lon="6.14265">
        <ele>362.39999389648</ele>
        <time>2016-11-02T14:31:08Z</time>
      </trkpt>
      <trkpt lat="43.37067" lon="6.14259">
        <ele>362.20001220703</ele>
        <time>2016-11-02T14:31:09Z</time>
      </trkpt>
      <trkpt lat="43.37066" lon="6.14247">
        <ele>362</ele>
        <time>2016-11-02T14:31:11Z</time>
      </trkpt>
      <trkpt lat="43.37062" lon="6.14229">
        <ele>361.20001220703</ele>
        <time>2016-11-02T14:31:14Z</time>
      </trkpt>
      <trkpt lat="43.37054" lon="6.14201">
        <ele>360.79998779297</ele>
        <time>2016-11-02T14:31:19Z</time>
      </trkpt>
      <trkpt lat="43.37046" lon="6.14187">
        <ele>361</ele>
        <time>2016-11-02T14:31:24Z</time>
      </trkpt>
      <trkpt lat="43.37046" lon="6.14187">
        <ele>361.39999389648</ele>
        <time>2016-11-02T14:31:29Z</time>
      </trkpt>
      <trkpt lat="43.37046" lon="6.14187">
        <ele>361.60000610352</ele>
        <time>2016-11-02T14:31:39Z</time>
      </trkpt>
      <trkpt lat="43.37046" lon="6.14187">
        <ele>361.60000610352</ele>
        <time>2016-11-02T14:31:49Z</time>
      </trkpt>
      <trkpt lat="43.37045" lon="6.14185">
        <ele>361.39999389648</ele>
        <time>2016-11-02T14:31:59Z</time>
      </trkpt>
      <trkpt lat="43.37042" lon="6.1418">
        <ele>361.39999389648</ele>
        <time>2016-11-02T14:32:02Z</time>
      </trkpt>
      <trkpt lat="43.37035" lon="6.14166">
        <ele>360.20001220703</ele>
        <time>2016-11-02T14:32:06Z</time>
      </trkpt>
      <trkpt lat="43.37033" lon="6.14161">
        <ele>359.79998779297</ele>
        <time>2016-11-02T14:32:07Z</time>
      </trkpt>
      <trkpt lat="43.3703" lon="6.14155">
        <ele>359.60000610352</ele>
        <time>2016-11-02T14:32:08Z</time>
      </trkpt>
      <trkpt lat="43.37029" lon="6.14149">
        <ele>359.39999389648</ele>
        <time>2016-11-02T14:32:09Z</time>
      </trkpt>
      <trkpt lat="43.37023" lon="6.14137">
        <ele>359.20001220703</ele>
        <time>2016-11-02T14:32:11Z</time>
      </trkpt>
      <trkpt lat="43.37013" lon="6.14119">
        <ele>358.79998779297</ele>
        <time>2016-11-02T14:32:14Z</time>
      </trkpt>
      <trkpt lat="43.37" lon="6.14104">
        <ele>357.60000610352</ele>
        <time>2016-11-02T14:32:17Z</time>
      </trkpt>
      <trkpt lat="43.36989" lon="6.14098">
        <ele>357.20001220703</ele>
        <time>2016-11-02T14:32:19Z</time>
      </trkpt>
      <trkpt lat="43.36983" lon="6.14096">
        <ele>357</ele>
        <time>2016-11-02T14:32:20Z</time>
      </trkpt>
      <trkpt lat="43.36972" lon="6.14097">
        <ele>357.20001220703</ele>
        <time>2016-11-02T14:32:22Z</time>
      </trkpt>
      <trkpt lat="43.36957" lon="6.14103">
        <ele>357.60000610352</ele>
        <time>2016-11-02T14:32:25Z</time>
      </trkpt>
      <trkpt lat="43.36946" lon="6.14111">
        <ele>358.20001220703</ele>
        <time>2016-11-02T14:32:28Z</time>
      </trkpt>
      <trkpt lat="43.36942" lon="6.14114">
        <ele>358.79998779297</ele>
        <time>2016-11-02T14:32:29Z</time>
      </trkpt>
      <trkpt lat="43.36938" lon="6.14116">
        <ele>359.39999389648</ele>
        <time>2016-11-02T14:32:30Z</time>
      </trkpt>
      <trkpt lat="43.36932" lon="6.14115">
        <ele>360</ele>
        <time>2016-11-02T14:32:32Z</time>
      </trkpt>
      <trkpt lat="43.36922" lon="6.1411">
        <ele>360.60000610352</ele>
        <time>2016-11-02T14:32:35Z</time>
      </trkpt>
      <trkpt lat="43.36916" lon="6.14108">
        <ele>361</ele>
        <time>2016-11-02T14:32:37Z</time>
      </trkpt>
      <trkpt lat="43.36911" lon="6.1411">
        <ele>361.20001220703</ele>
        <time>2016-11-02T14:32:39Z</time>
      </trkpt>
      <trkpt lat="43.36901" lon="6.14117">
        <ele>360.79998779297</ele>
        <time>2016-11-02T14:32:42Z</time>
      </trkpt>
      <trkpt lat="43.36892" lon="6.14115">
        <ele>359.39999389648</ele>
        <time>2016-11-02T14:32:44Z</time>
      </trkpt>
      <trkpt lat="43.36886" lon="6.14105">
        <ele>358.20001220703</ele>
        <time>2016-11-02T14:32:46Z</time>
      </trkpt>
      <trkpt lat="43.36879" lon="6.14084">
        <ele>357.60000610352</ele>
        <time>2016-11-02T14:32:49Z</time>
      </trkpt>
      <trkpt lat="43.36877" lon="6.14076">
        <ele>357.20001220703</ele>
        <time>2016-11-02T14:32:50Z</time>
      </trkpt>
      <trkpt lat="43.36874" lon="6.1406">
        <ele>356</ele>
        <time>2016-11-02T14:32:52Z</time>
      </trkpt>
      <trkpt lat="43.3687" lon="6.14045">
        <ele>354.60000610352</ele>
        <time>2016-11-02T14:32:54Z</time>
      </trkpt>
      <trkpt lat="43.36865" lon="6.14031">
        <ele>353.39999389648</ele>
        <time>2016-11-02T14:32:56Z</time>
      </trkpt>
      <trkpt lat="43.36864" lon="6.14022">
        <ele>352.39999389648</ele>
        <time>2016-11-02T14:32:57Z</time>
      </trkpt>
      <trkpt lat="43.36863" lon="6.14013">
        <ele>351.79998779297</ele>
        <time>2016-11-02T14:32:58Z</time>
      </trkpt>
      <trkpt lat="43.36863" lon="6.14004">
        <ele>351</ele>
        <time>2016-11-02T14:32:59Z</time>
      </trkpt>
      <trkpt lat="43.36862" lon="6.13996">
        <ele>350.20001220703</ele>
        <time>2016-11-02T14:33:00Z</time>
      </trkpt>
      <trkpt lat="43.36861" lon="6.13988">
        <ele>349.39999389648</ele>
        <time>2016-11-02T14:33:01Z</time>
      </trkpt>
      <trkpt lat="43.36859" lon="6.13982">
        <ele>348.39999389648</ele>
        <time>2016-11-02T14:33:02Z</time>
      </trkpt>
      <trkpt lat="43.36855" lon="6.13977">
        <ele>348</ele>
        <time>2016-11-02T14:33:03Z</time>
      </trkpt>
      <trkpt lat="43.36849" lon="6.13971">
        <ele>347.39999389648</ele>
        <time>2016-11-02T14:33:05Z</time>
      </trkpt>
      <trkpt lat="43.36845" lon="6.13966">
        <ele>347.39999389648</ele>
        <time>2016-11-02T14:33:09Z</time>
      </trkpt>
      <trkpt lat="43.36845" lon="6.13958">
        <ele>347.39999389648</ele>
        <time>2016-11-02T14:33:19Z</time>
      </trkpt>
      <trkpt lat="43.36843" lon="6.13954">
        <ele>347.39999389648</ele>
        <time>2016-11-02T14:33:29Z</time>
      </trkpt>
      <trkpt lat="43.36841" lon="6.13952">
        <ele>347.39999389648</ele>
        <time>2016-11-02T14:33:36Z</time>
      </trkpt>
      <trkpt lat="43.3684" lon="6.13952">
        <ele>347.39999389648</ele>
        <time>2016-11-02T14:33:39Z</time>
      </trkpt>
      <trkpt lat="43.36838" lon="6.13952">
        <ele>347.39999389648</ele>
        <time>2016-11-02T14:33:49Z</time>
      </trkpt>
      <trkpt lat="43.36838" lon="6.13952">
        <ele>347.20001220703</ele>
        <time>2016-11-02T14:34:06Z</time>
      </trkpt>
      <trkpt lat="43.36838" lon="6.13952">
        <ele>347.20001220703</ele>
        <time>2016-11-02T14:34:19Z</time>
      </trkpt>
      <trkpt lat="43.36836" lon="6.13954">
        <ele>347.39999389648</ele>
        <time>2016-11-02T14:34:26Z</time>
      </trkpt>
      <trkpt lat="43.36834" lon="6.13955">
        <ele>347.39999389648</ele>
        <time>2016-11-02T14:34:27Z</time>
      </trkpt>
      <trkpt lat="43.36831" lon="6.1396">
        <ele>347.39999389648</ele>
        <time>2016-11-02T14:34:29Z</time>
      </trkpt>
      <trkpt lat="43.36829" lon="6.13965">
        <ele>347.60000610352</ele>
        <time>2016-11-02T14:34:31Z</time>
      </trkpt>
      <trkpt lat="43.36826" lon="6.13973">
        <ele>347.79998779297</ele>
        <time>2016-11-02T14:34:34Z</time>
      </trkpt>
      <trkpt lat="43.36822" lon="6.13977">
        <ele>348.60000610352</ele>
        <time>2016-11-02T14:34:36Z</time>
      </trkpt>
      <trkpt lat="43.36819" lon="6.13979">
        <ele>349.39999389648</ele>
        <time>2016-11-02T14:34:38Z</time>
      </trkpt>
      <trkpt lat="43.36818" lon="6.1398">
        <ele>349.60000610352</ele>
        <time>2016-11-02T14:34:39Z</time>
      </trkpt>
      <trkpt lat="43.36811" lon="6.13982">
        <ele>350.79998779297</ele>
        <time>2016-11-02T14:34:42Z</time>
      </trkpt>
      <trkpt lat="43.36799" lon="6.1399">
        <ele>351</ele>
        <time>2016-11-02T14:34:47Z</time>
      </trkpt>
      <trkpt lat="43.36779" lon="6.14006">
        <ele>352</ele>
        <time>2016-11-02T14:34:57Z</time>
      </trkpt>
      <trkpt lat="43.36777" lon="6.14008">
        <ele>352.60000610352</ele>
        <time>2016-11-02T14:34:59Z</time>
      </trkpt>
      <trkpt lat="43.36774" lon="6.14011">
        <ele>353.20001220703</ele>
        <time>2016-11-02T14:35:01Z</time>
      </trkpt>
      <trkpt lat="43.3677" lon="6.14013">
        <ele>354.39999389648</ele>
        <time>2016-11-02T14:35:04Z</time>
      </trkpt>
      <trkpt lat="43.36766" lon="6.14014">
        <ele>354.79998779297</ele>
        <time>2016-11-02T14:35:07Z</time>
      </trkpt>
      <trkpt lat="43.36764" lon="6.14015">
        <ele>355</ele>
        <time>2016-11-02T14:35:09Z</time>
      </trkpt>
      <trkpt lat="43.36754" lon="6.14016">
        <ele>355.39999389648</ele>
        <time>2016-11-02T14:35:15Z</time>
      </trkpt>
      <trkpt lat="43.36745" lon="6.14013">
        <ele>355.79998779297</ele>
        <time>2016-11-02T14:35:19Z</time>
      </trkpt>
      <trkpt lat="43.36725" lon="6.14">
        <ele>356</ele>
        <time>2016-11-02T14:35:29Z</time>
      </trkpt>
      <trkpt lat="43.3671" lon="6.14008">
        <ele>356</ele>
        <time>2016-11-02T14:35:37Z</time>
      </trkpt>
      <trkpt lat="43.36706" lon="6.14014">
        <ele>355.79998779297</ele>
        <time>2016-11-02T14:35:39Z</time>
      </trkpt>
      <trkpt lat="43.36694" lon="6.14032">
        <ele>355.79998779297</ele>
        <time>2016-11-02T14:35:47Z</time>
      </trkpt>
      <trkpt lat="43.36684" lon="6.1404">
        <ele>355.79998779297</ele>
        <time>2016-11-02T14:35:51Z</time>
      </trkpt>
      <trkpt lat="43.3668" lon="6.14045">
        <ele>355.60000610352</ele>
        <time>2016-11-02T14:35:53Z</time>
      </trkpt>
      <trkpt lat="43.36675" lon="6.14056">
        <ele>355.60000610352</ele>
        <time>2016-11-02T14:35:57Z</time>
      </trkpt>
      <trkpt lat="43.36673" lon="6.14063">
        <ele>355.60000610352</ele>
        <time>2016-11-02T14:35:59Z</time>
      </trkpt>
      <trkpt lat="43.36665" lon="6.14096">
        <ele>356.39999389648</ele>
        <time>2016-11-02T14:36:09Z</time>
      </trkpt>
      <trkpt lat="43.36664" lon="6.14127">
        <ele>357.39999389648</ele>
        <time>2016-11-02T14:36:19Z</time>
      </trkpt>
      <trkpt lat="43.36664" lon="6.1413">
        <ele>357.60000610352</ele>
        <time>2016-11-02T14:36:20Z</time>
      </trkpt>
      <trkpt lat="43.36669" lon="6.14151">
        <ele>358.60000610352</ele>
        <time>2016-11-02T14:36:29Z</time>
      </trkpt>
      <trkpt lat="43.3667" lon="6.14159">
        <ele>359.79998779297</ele>
        <time>2016-11-02T14:36:37Z</time>
      </trkpt>
      <trkpt lat="43.3667" lon="6.1416">
        <ele>360</ele>
        <time>2016-11-02T14:36:39Z</time>
      </trkpt>
      <trkpt lat="43.36671" lon="6.14166">
        <ele>360.39999389648</ele>
        <time>2016-11-02T14:36:49Z</time>
      </trkpt>
      <trkpt lat="43.36673" lon="6.14174">
        <ele>360.39999389648</ele>
        <time>2016-11-02T14:36:52Z</time>
      </trkpt>
      <trkpt lat="43.36676" lon="6.14186">
        <ele>360.79998779297</ele>
        <time>2016-11-02T14:36:57Z</time>
      </trkpt>
      <trkpt lat="43.36677" lon="6.14191">
        <ele>361</ele>
        <time>2016-11-02T14:36:59Z</time>
      </trkpt>
      <trkpt lat="43.36678" lon="6.14202">
        <ele>361.79998779297</ele>
        <time>2016-11-02T14:37:03Z</time>
      </trkpt>
      <trkpt lat="43.36679" lon="6.14221">
        <ele>362.39999389648</ele>
        <time>2016-11-02T14:37:09Z</time>
      </trkpt>
      <trkpt lat="43.36681" lon="6.14255">
        <ele>362.79998779297</ele>
        <time>2016-11-02T14:37:19Z</time>
      </trkpt>
      <trkpt lat="43.36681" lon="6.14258">
        <ele>363</ele>
        <time>2016-11-02T14:37:20Z</time>
      </trkpt>
      <trkpt lat="43.3668" lon="6.14283">
        <ele>364.20001220703</ele>
        <time>2016-11-02T14:37:28Z</time>
      </trkpt>
      <trkpt lat="43.3668" lon="6.14285">
        <ele>364.39999389648</ele>
        <time>2016-11-02T14:37:29Z</time>
      </trkpt>
      <trkpt lat="43.36678" lon="6.14302">
        <ele>365.39999389648</ele>
        <time>2016-11-02T14:37:35Z</time>
      </trkpt>
      <trkpt lat="43.36676" lon="6.14314">
        <ele>366</ele>
        <time>2016-11-02T14:37:39Z</time>
      </trkpt>
      <trkpt lat="43.36671" lon="6.14331">
        <ele>365.79998779297</ele>
        <time>2016-11-02T14:37:44Z</time>
      </trkpt>
      <trkpt lat="43.36665" lon="6.14346">
        <ele>366</ele>
        <time>2016-11-02T14:37:49Z</time>
      </trkpt>
      <trkpt lat="43.36658" lon="6.1436">
        <ele>366.39999389648</ele>
        <time>2016-11-02T14:37:54Z</time>
      </trkpt>
      <trkpt lat="43.36649" lon="6.14373">
        <ele>367.39999389648</ele>
        <time>2016-11-02T14:37:59Z</time>
      </trkpt>
      <trkpt lat="43.36645" lon="6.14379">
        <ele>367.60000610352</ele>
        <time>2016-11-02T14:38:01Z</time>
      </trkpt>
      <trkpt lat="43.36629" lon="6.14394">
        <ele>368</ele>
        <time>2016-11-02T14:38:09Z</time>
      </trkpt>
      <trkpt lat="43.36625" lon="6.144">
        <ele>368.79998779297</ele>
        <time>2016-11-02T14:38:12Z</time>
      </trkpt>
      <trkpt lat="43.36614" lon="6.14416">
        <ele>369.60000610352</ele>
        <time>2016-11-02T14:38:19Z</time>
      </trkpt>
      <trkpt lat="43.36604" lon="6.14437">
        <ele>370.79998779297</ele>
        <time>2016-11-02T14:38:28Z</time>
      </trkpt>
      <trkpt lat="43.36591" lon="6.14461">
        <ele>371.60000610352</ele>
        <time>2016-11-02T14:38:39Z</time>
      </trkpt>
      <trkpt lat="43.36584" lon="6.14455">
        <ele>371</ele>
        <time>2016-11-02T14:38:43Z</time>
      </trkpt>
      <trkpt lat="43.36582" lon="6.14441">
        <ele>371.60000610352</ele>
        <time>2016-11-02T14:38:49Z</time>
      </trkpt>
      <trkpt lat="43.36582" lon="6.14434">
        <ele>372</ele>
        <time>2016-11-02T14:38:52Z</time>
      </trkpt>
      <trkpt lat="43.36581" lon="6.14419">
        <ele>372.39999389648</ele>
        <time>2016-11-02T14:38:59Z</time>
      </trkpt>
      <trkpt lat="43.36581" lon="6.14412">
        <ele>373</ele>
        <time>2016-11-02T14:39:02Z</time>
      </trkpt>
      <trkpt lat="43.36577" lon="6.144">
        <ele>374.20001220703</ele>
        <time>2016-11-02T14:39:09Z</time>
      </trkpt>
      <trkpt lat="43.36572" lon="6.14396">
        <ele>375.20001220703</ele>
        <time>2016-11-02T14:39:13Z</time>
      </trkpt>
      <trkpt lat="43.36565" lon="6.14391">
        <ele>377.39999389648</ele>
        <time>2016-11-02T14:39:19Z</time>
      </trkpt>
      <trkpt lat="43.36558" lon="6.14385">
        <ele>378.60000610352</ele>
        <time>2016-11-02T14:39:26Z</time>
      </trkpt>
      <trkpt lat="43.36552" lon="6.14384">
        <ele>379.60000610352</ele>
        <time>2016-11-02T14:39:31Z</time>
      </trkpt>
      <trkpt lat="43.36543" lon="6.14382">
        <ele>380.60000610352</ele>
        <time>2016-11-02T14:39:39Z</time>
      </trkpt>
      <trkpt lat="43.36537" lon="6.1438">
        <ele>381.79998779297</ele>
        <time>2016-11-02T14:39:45Z</time>
      </trkpt>
      <trkpt lat="43.36534" lon="6.14377">
        <ele>382.20001220703</ele>
        <time>2016-11-02T14:39:49Z</time>
      </trkpt>
      <trkpt lat="43.3653" lon="6.14375">
        <ele>382.79998779297</ele>
        <time>2016-11-02T14:39:53Z</time>
      </trkpt>
      <trkpt lat="43.36528" lon="6.14373">
        <ele>383.20001220703</ele>
        <time>2016-11-02T14:39:57Z</time>
      </trkpt>
      <trkpt lat="43.36528" lon="6.14373">
        <ele>383.20001220703</ele>
        <time>2016-11-02T14:39:59Z</time>
      </trkpt>
      <trkpt lat="43.36528" lon="6.14373">
        <ele>383.20001220703</ele>
        <time>2016-11-02T14:40:16Z</time>
      </trkpt>
      <trkpt lat="43.36528" lon="6.14373">
        <ele>383.20001220703</ele>
        <time>2016-11-02T14:41:28Z</time>
      </trkpt>
      <trkpt lat="43.36528" lon="6.14373">
        <ele>383.20001220703</ele>
        <time>2016-11-02T14:41:39Z</time>
      </trkpt>
      <trkpt lat="43.36528" lon="6.14373">
        <ele>383.20001220703</ele>
        <time>2016-11-02T14:42:09Z</time>
      </trkpt>
      <trkpt lat="43.36528" lon="6.14373">
        <ele>383.60000610352</ele>
        <time>2016-11-02T14:42:19Z</time>
      </trkpt>
      <trkpt lat="43.36528" lon="6.14372">
        <ele>383.39999389648</ele>
        <time>2016-11-02T14:42:25Z</time>
      </trkpt>
      <trkpt lat="43.36527" lon="6.14372">
        <ele>383.20001220703</ele>
        <time>2016-11-02T14:42:29Z</time>
      </trkpt>
      <trkpt lat="43.36527" lon="6.14372">
        <ele>383.60000610352</ele>
        <time>2016-11-02T14:42:39Z</time>
      </trkpt>
      <trkpt lat="43.36526" lon="6.14374">
        <ele>383.39999389648</ele>
        <time>2016-11-02T14:42:53Z</time>
      </trkpt>
      <trkpt lat="43.36528" lon="6.1438">
        <ele>383.39999389648</ele>
        <time>2016-11-02T14:42:59Z</time>
      </trkpt>
      <trkpt lat="43.36529" lon="6.14382">
        <ele>383.39999389648</ele>
        <time>2016-11-02T14:43:00Z</time>
      </trkpt>
      <trkpt lat="43.36534" lon="6.144">
        <ele>383.79998779297</ele>
        <time>2016-11-02T14:43:07Z</time>
      </trkpt>
      <trkpt lat="43.36539" lon="6.14413">
        <ele>384</ele>
        <time>2016-11-02T14:43:12Z</time>
      </trkpt>
      <trkpt lat="43.36545" lon="6.14435">
        <ele>384.60000610352</ele>
        <time>2016-11-02T14:43:19Z</time>
      </trkpt>
      <trkpt lat="43.36546" lon="6.14446">
        <ele>385</ele>
        <time>2016-11-02T14:43:22Z</time>
      </trkpt>
      <trkpt lat="43.36543" lon="6.1447">
        <ele>385.39999389648</ele>
        <time>2016-11-02T14:43:29Z</time>
      </trkpt>
      <trkpt lat="43.36532" lon="6.14503">
        <ele>386</ele>
        <time>2016-11-02T14:43:39Z</time>
      </trkpt>
      <trkpt lat="43.36533" lon="6.14539">
        <ele>386.79998779297</ele>
        <time>2016-11-02T14:43:49Z</time>
      </trkpt>
      <trkpt lat="43.36533" lon="6.14546">
        <ele>387</ele>
        <time>2016-11-02T14:43:51Z</time>
      </trkpt>
      <trkpt lat="43.36534" lon="6.14562">
        <ele>387.60000610352</ele>
        <time>2016-11-02T14:43:56Z</time>
      </trkpt>
      <trkpt lat="43.36533" lon="6.14578">
        <ele>389.20001220703</ele>
        <time>2016-11-02T14:44:01Z</time>
      </trkpt>
      <trkpt lat="43.36533" lon="6.14593">
        <ele>390.20001220703</ele>
        <time>2016-11-02T14:44:06Z</time>
      </trkpt>
      <trkpt lat="43.36532" lon="6.14601">
        <ele>390.60000610352</ele>
        <time>2016-11-02T14:44:09Z</time>
      </trkpt>
      <trkpt lat="43.36531" lon="6.14618">
        <ele>391.39999389648</ele>
        <time>2016-11-02T14:44:16Z</time>
      </trkpt>
      <trkpt lat="43.3653" lon="6.1463">
        <ele>392.39999389648</ele>
        <time>2016-11-02T14:44:21Z</time>
      </trkpt>
      <trkpt lat="43.36528" lon="6.14648">
        <ele>393.39999389648</ele>
        <time>2016-11-02T14:44:29Z</time>
      </trkpt>
      <trkpt lat="43.36527" lon="6.14655">
        <ele>393.79998779297</ele>
        <time>2016-11-02T14:44:33Z</time>
      </trkpt>
      <trkpt lat="43.36523" lon="6.14666">
        <ele>394</ele>
        <time>2016-11-02T14:44:39Z</time>
      </trkpt>
      <trkpt lat="43.36522" lon="6.14668">
        <ele>394.79998779297</ele>
        <time>2016-11-02T14:44:41Z</time>
      </trkpt>
      <trkpt lat="43.36521" lon="6.14668">
        <ele>395.79998779297</ele>
        <time>2016-11-02T14:44:45Z</time>
      </trkpt>
      <trkpt lat="43.36521" lon="6.14668">
        <ele>395.79998779297</ele>
        <time>2016-11-02T14:44:49Z</time>
      </trkpt>
      <trkpt lat="43.36523" lon="6.14668">
        <ele>394.79998779297</ele>
        <time>2016-11-02T14:44:56Z</time>
      </trkpt>
      <trkpt lat="43.36523" lon="6.14667">
        <ele>394.39999389648</ele>
        <time>2016-11-02T14:44:59Z</time>
      </trkpt>
      <trkpt lat="43.36523" lon="6.14666">
        <ele>394.20001220703</ele>
        <time>2016-11-02T14:45:02Z</time>
      </trkpt>
      <trkpt lat="43.36523" lon="6.14664">
        <ele>394.20001220703</ele>
        <time>2016-11-02T14:45:07Z</time>
      </trkpt>
      <trkpt lat="43.36523" lon="6.14664">
        <ele>394.20001220703</ele>
        <time>2016-11-02T14:45:18Z</time>
      </trkpt>
      <trkpt lat="43.36523" lon="6.14664">
        <ele>394.20001220703</ele>
        <time>2016-11-02T14:45:19Z</time>
      </trkpt>
      <trkpt lat="43.3652" lon="6.14668">
        <ele>395.20001220703</ele>
        <time>2016-11-02T14:45:27Z</time>
      </trkpt>
      <trkpt lat="43.3652" lon="6.14669">
        <ele>395.39999389648</ele>
        <time>2016-11-02T14:45:29Z</time>
      </trkpt>
      <trkpt lat="43.36518" lon="6.14671">
        <ele>395.79998779297</ele>
        <time>2016-11-02T14:45:36Z</time>
      </trkpt>
      <trkpt lat="43.36518" lon="6.14673">
        <ele>396.39999389648</ele>
        <time>2016-11-02T14:45:39Z</time>
      </trkpt>
      <trkpt lat="43.36519" lon="6.14678">
        <ele>396.79998779297</ele>
        <time>2016-11-02T14:45:45Z</time>
      </trkpt>
      <trkpt lat="43.36519" lon="6.14678">
        <ele>396.79998779297</ele>
        <time>2016-11-02T14:45:46Z</time>
      </trkpt>
      <trkpt lat="43.36519" lon="6.14679">
        <ele>397</ele>
        <time>2016-11-02T14:45:49Z</time>
      </trkpt>
      <trkpt lat="43.36518" lon="6.14685">
        <ele>397.20001220703</ele>
        <time>2016-11-02T14:45:53Z</time>
      </trkpt>
      <trkpt lat="43.36519" lon="6.14698">
        <ele>398</ele>
        <time>2016-11-02T14:45:59Z</time>
      </trkpt>
      <trkpt lat="43.3652" lon="6.14706">
        <ele>399.20001220703</ele>
        <time>2016-11-02T14:46:03Z</time>
      </trkpt>
      <trkpt lat="43.36522" lon="6.14716">
        <ele>400</ele>
        <time>2016-11-02T14:46:09Z</time>
      </trkpt>
      <trkpt lat="43.36522" lon="6.1472">
        <ele>400.20001220703</ele>
        <time>2016-11-02T14:46:11Z</time>
      </trkpt>
      <trkpt lat="43.36521" lon="6.14732">
        <ele>401.39999389648</ele>
        <time>2016-11-02T14:46:18Z</time>
      </trkpt>
      <trkpt lat="43.3652" lon="6.14737">
        <ele>402</ele>
        <time>2016-11-02T14:46:21Z</time>
      </trkpt>
      <trkpt lat="43.3652" lon="6.14741">
        <ele>402.39999389648</ele>
        <time>2016-11-02T14:46:24Z</time>
      </trkpt>
      <trkpt lat="43.3652" lon="6.14749">
        <ele>403</ele>
        <time>2016-11-02T14:46:29Z</time>
      </trkpt>
      <trkpt lat="43.36519" lon="6.14756">
        <ele>403.60000610352</ele>
        <time>2016-11-02T14:46:33Z</time>
      </trkpt>
      <trkpt lat="43.36518" lon="6.14766">
        <ele>404.20001220703</ele>
        <time>2016-11-02T14:46:39Z</time>
      </trkpt>
      <trkpt lat="43.36517" lon="6.14773">
        <ele>404.60000610352</ele>
        <time>2016-11-02T14:46:44Z</time>
      </trkpt>
      <trkpt lat="43.36517" lon="6.14781">
        <ele>405.39999389648</ele>
        <time>2016-11-02T14:46:49Z</time>
      </trkpt>
      <trkpt lat="43.36518" lon="6.14785">
        <ele>405.79998779297</ele>
        <time>2016-11-02T14:46:52Z</time>
      </trkpt>
      <trkpt lat="43.36518" lon="6.14792">
        <ele>406.20001220703</ele>
        <time>2016-11-02T14:46:56Z</time>
      </trkpt>
      <trkpt lat="43.3652" lon="6.14797">
        <ele>407</ele>
        <time>2016-11-02T14:47:00Z</time>
      </trkpt>
      <trkpt lat="43.36522" lon="6.14806">
        <ele>408</ele>
        <time>2016-11-02T14:47:06Z</time>
      </trkpt>
      <trkpt lat="43.36524" lon="6.14811">
        <ele>408.79998779297</ele>
        <time>2016-11-02T14:47:09Z</time>
      </trkpt>
      <trkpt lat="43.36524" lon="6.14815">
        <ele>409.20001220703</ele>
        <time>2016-11-02T14:47:11Z</time>
      </trkpt>
      <trkpt lat="43.36525" lon="6.14824">
        <ele>410.20001220703</ele>
        <time>2016-11-02T14:47:17Z</time>
      </trkpt>
      <trkpt lat="43.36527" lon="6.14828">
        <ele>410.60000610352</ele>
        <time>2016-11-02T14:47:20Z</time>
      </trkpt>
      <trkpt lat="43.36529" lon="6.1484">
        <ele>411.20001220703</ele>
        <time>2016-11-02T14:47:28Z</time>
      </trkpt>
      <trkpt lat="43.36529" lon="6.14841">
        <ele>411.39999389648</ele>
        <time>2016-11-02T14:47:29Z</time>
      </trkpt>
      <trkpt lat="43.36531" lon="6.14849">
        <ele>412.39999389648</ele>
        <time>2016-11-02T14:47:35Z</time>
      </trkpt>
      <trkpt lat="43.36535" lon="6.14864">
        <ele>413</ele>
        <time>2016-11-02T14:47:44Z</time>
      </trkpt>
      <trkpt lat="43.36535" lon="6.14873">
        <ele>413.20001220703</ele>
        <time>2016-11-02T14:47:49Z</time>
      </trkpt>
      <trkpt lat="43.36536" lon="6.14876">
        <ele>413.39999389648</ele>
        <time>2016-11-02T14:47:51Z</time>
      </trkpt>
      <trkpt lat="43.36538" lon="6.14885">
        <ele>414.20001220703</ele>
        <time>2016-11-02T14:47:57Z</time>
      </trkpt>
      <trkpt lat="43.36541" lon="6.14897">
        <ele>414.60000610352</ele>
        <time>2016-11-02T14:48:04Z</time>
      </trkpt>
      <trkpt lat="43.36542" lon="6.14905">
        <ele>415.20001220703</ele>
        <time>2016-11-02T14:48:09Z</time>
      </trkpt>
      <trkpt lat="43.36544" lon="6.14915">
        <ele>415.60000610352</ele>
        <time>2016-11-02T14:48:14Z</time>
      </trkpt>
      <trkpt lat="43.36545" lon="6.14926">
        <ele>415.79998779297</ele>
        <time>2016-11-02T14:48:19Z</time>
      </trkpt>
      <trkpt lat="43.36548" lon="6.14945">
        <ele>415.60000610352</ele>
        <time>2016-11-02T14:48:26Z</time>
      </trkpt>
      <trkpt lat="43.36549" lon="6.14954">
        <ele>415.79998779297</ele>
        <time>2016-11-02T14:48:29Z</time>
      </trkpt>
      <trkpt lat="43.36551" lon="6.14963">
        <ele>415.79998779297</ele>
        <time>2016-11-02T14:48:32Z</time>
      </trkpt>
      <trkpt lat="43.36553" lon="6.14985">
        <ele>415.79998779297</ele>
        <time>2016-11-02T14:48:39Z</time>
      </trkpt>
      <trkpt lat="43.36554" lon="6.15018">
        <ele>415.79998779297</ele>
        <time>2016-11-02T14:48:49Z</time>
      </trkpt>
      <trkpt lat="43.36557" lon="6.15051">
        <ele>416</ele>
        <time>2016-11-02T14:48:59Z</time>
      </trkpt>
      <trkpt lat="43.36557" lon="6.15073">
        <ele>416</ele>
        <time>2016-11-02T14:49:06Z</time>
      </trkpt>
      <trkpt lat="43.36555" lon="6.15083">
        <ele>416.20001220703</ele>
        <time>2016-11-02T14:49:09Z</time>
      </trkpt>
      <trkpt lat="43.36553" lon="6.15097">
        <ele>416.60000610352</ele>
        <time>2016-11-02T14:49:13Z</time>
      </trkpt>
      <trkpt lat="43.36553" lon="6.15116">
        <ele>416.79998779297</ele>
        <time>2016-11-02T14:49:19Z</time>
      </trkpt>
      <trkpt lat="43.36556" lon="6.15146">
        <ele>417.20001220703</ele>
        <time>2016-11-02T14:49:29Z</time>
      </trkpt>
      <trkpt lat="43.36556" lon="6.15155">
        <ele>418</ele>
        <time>2016-11-02T14:49:32Z</time>
      </trkpt>
      <trkpt lat="43.36553" lon="6.15178">
        <ele>418.79998779297</ele>
        <time>2016-11-02T14:49:39Z</time>
      </trkpt>
      <trkpt lat="43.36554" lon="6.15182">
        <ele>418.79998779297</ele>
        <time>2016-11-02T14:49:40Z</time>
      </trkpt>
      <trkpt lat="43.36559" lon="6.1519">
        <ele>418.79998779297</ele>
        <time>2016-11-02T14:49:45Z</time>
      </trkpt>
      <trkpt lat="43.36565" lon="6.15194">
        <ele>418.20001220703</ele>
        <time>2016-11-02T14:49:49Z</time>
      </trkpt>
      <trkpt lat="43.36577" lon="6.15201">
        <ele>417</ele>
        <time>2016-11-02T14:49:53Z</time>
      </trkpt>
      <trkpt lat="43.36581" lon="6.15201">
        <ele>416.39999389648</ele>
        <time>2016-11-02T14:49:54Z</time>
      </trkpt>
      <trkpt lat="43.36588" lon="6.15197">
        <ele>415.60000610352</ele>
        <time>2016-11-02T14:49:56Z</time>
      </trkpt>
      <trkpt lat="43.36597" lon="6.15195">
        <ele>415.39999389648</ele>
        <time>2016-11-02T14:49:59Z</time>
      </trkpt>
      <trkpt lat="43.36615" lon="6.15191">
        <ele>415.79998779297</ele>
        <time>2016-11-02T14:50:07Z</time>
      </trkpt>
      <trkpt lat="43.36617" lon="6.15189">
        <ele>416</ele>
        <time>2016-11-02T14:50:08Z</time>
      </trkpt>
      <trkpt lat="43.36618" lon="6.15189">
        <ele>416.20001220703</ele>
        <time>2016-11-02T14:50:09Z</time>
      </trkpt>
      <trkpt lat="43.36621" lon="6.15188">
        <ele>417</ele>
        <time>2016-11-02T14:50:11Z</time>
      </trkpt>
      <trkpt lat="43.36629" lon="6.15186">
        <ele>418</ele>
        <time>2016-11-02T14:50:15Z</time>
      </trkpt>
      <trkpt lat="43.3664" lon="6.15184">
        <ele>419.39999389648</ele>
        <time>2016-11-02T14:50:21Z</time>
      </trkpt>
      <trkpt lat="43.36652" lon="6.15183">
        <ele>420</ele>
        <time>2016-11-02T14:50:29Z</time>
      </trkpt>
      <trkpt lat="43.36655" lon="6.15181">
        <ele>420.79998779297</ele>
        <time>2016-11-02T14:50:31Z</time>
      </trkpt>
      <trkpt lat="43.36661" lon="6.15177">
        <ele>421.79998779297</ele>
        <time>2016-11-02T14:50:36Z</time>
      </trkpt>
      <trkpt lat="43.36665" lon="6.15176">
        <ele>422.39999389648</ele>
        <time>2016-11-02T14:50:39Z</time>
      </trkpt>
      <trkpt lat="43.36667" lon="6.15177">
        <ele>422.39999389648</ele>
        <time>2016-11-02T14:50:41Z</time>
      </trkpt>
      <trkpt lat="43.36678" lon="6.1518">
        <ele>422.20001220703</ele>
        <time>2016-11-02T14:50:49Z</time>
      </trkpt>
      <trkpt lat="43.36694" lon="6.15184">
        <ele>422.79998779297</ele>
        <time>2016-11-02T14:51:00Z</time>
      </trkpt>
      <trkpt lat="43.36712" lon="6.15187">
        <ele>424</ele>
        <time>2016-11-02T14:51:12Z</time>
      </trkpt>
      <trkpt lat="43.36721" lon="6.15194">
        <ele>425</ele>
        <time>2016-11-02T14:51:19Z</time>
      </trkpt>
      <trkpt lat="43.36731" lon="6.15201">
        <ele>426</ele>
        <time>2016-11-02T14:51:26Z</time>
      </trkpt>
      <trkpt lat="43.36734" lon="6.15204">
        <ele>426</ele>
        <time>2016-11-02T14:51:29Z</time>
      </trkpt>
      <trkpt lat="43.36742" lon="6.1522">
        <ele>427.20001220703</ele>
        <time>2016-11-02T14:51:39Z</time>
      </trkpt>
      <trkpt lat="43.36744" lon="6.15227">
        <ele>428.20001220703</ele>
        <time>2016-11-02T14:51:44Z</time>
      </trkpt>
      <trkpt lat="43.36751" lon="6.1523">
        <ele>428.60000610352</ele>
        <time>2016-11-02T14:51:49Z</time>
      </trkpt>
      <trkpt lat="43.36759" lon="6.15232">
        <ele>430.39999389648</ele>
        <time>2016-11-02T14:51:55Z</time>
      </trkpt>
      <trkpt lat="43.36763" lon="6.15233">
        <ele>431.39999389648</ele>
        <time>2016-11-02T14:51:58Z</time>
      </trkpt>
      <trkpt lat="43.36764" lon="6.15234">
        <ele>431.39999389648</ele>
        <time>2016-11-02T14:51:59Z</time>
      </trkpt>
      <trkpt lat="43.36769" lon="6.15233">
        <ele>432</ele>
        <time>2016-11-02T14:52:02Z</time>
      </trkpt>
      <trkpt lat="43.36772" lon="6.1523">
        <ele>432.39999389648</ele>
        <time>2016-11-02T14:52:05Z</time>
      </trkpt>
      <trkpt lat="43.36773" lon="6.15229">
        <ele>432.39999389648</ele>
        <time>2016-11-02T14:52:06Z</time>
      </trkpt>
      <trkpt lat="43.36773" lon="6.15228">
        <ele>432.60000610352</ele>
        <time>2016-11-02T14:52:09Z</time>
      </trkpt>
      <trkpt lat="43.36773" lon="6.15228">
        <ele>432.60000610352</ele>
        <time>2016-11-02T14:52:12Z</time>
      </trkpt>
      <trkpt lat="43.36773" lon="6.15228">
        <ele>432.79998779297</ele>
        <time>2016-11-02T14:52:19Z</time>
      </trkpt>
      <trkpt lat="43.36773" lon="6.15228">
        <ele>433.20001220703</ele>
        <time>2016-11-02T14:53:07Z</time>
      </trkpt>
      <trkpt lat="43.36773" lon="6.15226">
        <ele>433.20001220703</ele>
        <time>2016-11-02T14:53:09Z</time>
      </trkpt>
      <trkpt lat="43.36773" lon="6.15222">
        <ele>433.39999389648</ele>
        <time>2016-11-02T14:53:11Z</time>
      </trkpt>
      <trkpt lat="43.36773" lon="6.15214">
        <ele>433.20001220703</ele>
        <time>2016-11-02T14:53:14Z</time>
      </trkpt>
      <trkpt lat="43.36777" lon="6.152">
        <ele>433</ele>
        <time>2016-11-02T14:53:19Z</time>
      </trkpt>
      <trkpt lat="43.36782" lon="6.15191">
        <ele>432.79998779297</ele>
        <time>2016-11-02T14:53:24Z</time>
      </trkpt>
      <trkpt lat="43.36789" lon="6.15187">
        <ele>433.20001220703</ele>
        <time>2016-11-02T14:53:28Z</time>
      </trkpt>
      <trkpt lat="43.3679" lon="6.15187">
        <ele>433.39999389648</ele>
        <time>2016-11-02T14:53:29Z</time>
      </trkpt>
      <trkpt lat="43.36794" lon="6.15186">
        <ele>433.60000610352</ele>
        <time>2016-11-02T14:53:31Z</time>
      </trkpt>
      <trkpt lat="43.36801" lon="6.15184">
        <ele>434.60000610352</ele>
        <time>2016-11-02T14:53:35Z</time>
      </trkpt>
      <trkpt lat="43.36807" lon="6.15181">
        <ele>435.39999389648</ele>
        <time>2016-11-02T14:53:39Z</time>
      </trkpt>
      <trkpt lat="43.3681" lon="6.1518">
        <ele>436</ele>
        <time>2016-11-02T14:53:41Z</time>
      </trkpt>
      <trkpt lat="43.36814" lon="6.15179">
        <ele>436.79998779297</ele>
        <time>2016-11-02T14:53:44Z</time>
      </trkpt>
      <trkpt lat="43.36816" lon="6.15179">
        <ele>437.20001220703</ele>
        <time>2016-11-02T14:53:46Z</time>
      </trkpt>
      <trkpt lat="43.36819" lon="6.15178">
        <ele>437.60000610352</ele>
        <time>2016-11-02T14:53:49Z</time>
      </trkpt>
      <trkpt lat="43.36823" lon="6.15176">
        <ele>438.20001220703</ele>
        <time>2016-11-02T14:53:52Z</time>
      </trkpt>
      <trkpt lat="43.36823" lon="6.15175">
        <ele>438.79998779297</ele>
        <time>2016-11-02T14:53:54Z</time>
      </trkpt>
      <trkpt lat="43.36822" lon="6.15175">
        <ele>439.39999389648</ele>
        <time>2016-11-02T14:53:56Z</time>
      </trkpt>
      <trkpt lat="43.36822" lon="6.15174">
        <ele>439.39999389648</ele>
        <time>2016-11-02T14:53:59Z</time>
      </trkpt>
      <trkpt lat="43.36823" lon="6.15174">
        <ele>438.60000610352</ele>
        <time>2016-11-02T14:54:09Z</time>
      </trkpt>
      <trkpt lat="43.36823" lon="6.15174">
        <ele>438.20001220703</ele>
        <time>2016-11-02T14:54:13Z</time>
      </trkpt>
      <trkpt lat="43.36823" lon="6.15177">
        <ele>439.39999389648</ele>
        <time>2016-11-02T14:54:24Z</time>
      </trkpt>
      <trkpt lat="43.36823" lon="6.15178">
        <ele>439.20001220703</ele>
        <time>2016-11-02T14:54:27Z</time>
      </trkpt>
      <trkpt lat="43.36823" lon="6.15179">
        <ele>439.20001220703</ele>
        <time>2016-11-02T14:54:29Z</time>
      </trkpt>
      <trkpt lat="43.36823" lon="6.15179">
        <ele>439.39999389648</ele>
        <time>2016-11-02T14:54:35Z</time>
      </trkpt>
      <trkpt lat="43.36823" lon="6.15179">
        <ele>439.20001220703</ele>
        <time>2016-11-02T14:54:39Z</time>
      </trkpt>
      <trkpt lat="43.36826" lon="6.1518">
        <ele>439.60000610352</ele>
        <time>2016-11-02T14:54:49Z</time>
      </trkpt>
      <trkpt lat="43.36826" lon="6.15179">
        <ele>440.39999389648</ele>
        <time>2016-11-02T14:54:56Z</time>
      </trkpt>
      <trkpt lat="43.36827" lon="6.15179">
        <ele>440.20001220703</ele>
        <time>2016-11-02T14:54:59Z</time>
      </trkpt>
      <trkpt lat="43.36828" lon="6.1518">
        <ele>440</ele>
        <time>2016-11-02T14:55:09Z</time>
      </trkpt>
      <trkpt lat="43.36827" lon="6.15179">
        <ele>440.39999389648</ele>
        <time>2016-11-02T14:55:18Z</time>
      </trkpt>
      <trkpt lat="43.36827" lon="6.1518">
        <ele>440.39999389648</ele>
        <time>2016-11-02T14:55:19Z</time>
      </trkpt>
      <trkpt lat="43.36832" lon="6.15183">
        <ele>441</ele>
        <time>2016-11-02T14:55:22Z</time>
      </trkpt>
      <trkpt lat="43.36835" lon="6.15184">
        <ele>441.79998779297</ele>
        <time>2016-11-02T14:55:24Z</time>
      </trkpt>
      <trkpt lat="43.3684" lon="6.15181">
        <ele>442.79998779297</ele>
        <time>2016-11-02T14:55:27Z</time>
      </trkpt>
      <trkpt lat="43.36842" lon="6.15181">
        <ele>443</ele>
        <time>2016-11-02T14:55:28Z</time>
      </trkpt>
      <trkpt lat="43.36843" lon="6.15181">
        <ele>443.39999389648</ele>
        <time>2016-11-02T14:55:29Z</time>
      </trkpt>
      <trkpt lat="43.36847" lon="6.15182">
        <ele>444</ele>
        <time>2016-11-02T14:55:32Z</time>
      </trkpt>
      <trkpt lat="43.36854" lon="6.15185">
        <ele>444.79998779297</ele>
        <time>2016-11-02T14:55:37Z</time>
      </trkpt>
      <trkpt lat="43.36856" lon="6.15184">
        <ele>445</ele>
        <time>2016-11-02T14:55:39Z</time>
      </trkpt>
      <trkpt lat="43.36859" lon="6.15183">
        <ele>444.60000610352</ele>
        <time>2016-11-02T14:55:45Z</time>
      </trkpt>
      <trkpt lat="43.36859" lon="6.15183">
        <ele>444.60000610352</ele>
        <time>2016-11-02T14:55:48Z</time>
      </trkpt>
      <trkpt lat="43.36859" lon="6.15183">
        <ele>444.60000610352</ele>
        <time>2016-11-02T14:55:49Z</time>
      </trkpt>
      <trkpt lat="43.36859" lon="6.15183">
        <ele>444.60000610352</ele>
        <time>2016-11-02T14:55:56Z</time>
      </trkpt>
      <trkpt lat="43.36859" lon="6.15182">
        <ele>445</ele>
        <time>2016-11-02T14:56:05Z</time>
      </trkpt>
      <trkpt lat="43.3686" lon="6.15183">
        <ele>445.20001220703</ele>
        <time>2016-11-02T14:56:13Z</time>
      </trkpt>
      <trkpt lat="43.3686" lon="6.15183">
        <ele>445.20001220703</ele>
        <time>2016-11-02T14:56:19Z</time>
      </trkpt>
      <trkpt lat="43.36861" lon="6.15184">
        <ele>444.79998779297</ele>
        <time>2016-11-02T14:56:23Z</time>
      </trkpt>
      <trkpt lat="43.36868" lon="6.15186">
        <ele>445</ele>
        <time>2016-11-02T14:56:27Z</time>
      </trkpt>
      <trkpt lat="43.36869" lon="6.15186">
        <ele>445</ele>
        <time>2016-11-02T14:56:28Z</time>
      </trkpt>
      <trkpt lat="43.36872" lon="6.15186">
        <ele>445</ele>
        <time>2016-11-02T14:56:29Z</time>
      </trkpt>
      <trkpt lat="43.36885" lon="6.15197">
        <ele>445.60000610352</ele>
        <time>2016-11-02T14:56:39Z</time>
      </trkpt>
      <trkpt lat="43.369" lon="6.15211">
        <ele>445.20001220703</ele>
        <time>2016-11-02T14:56:46Z</time>
      </trkpt>
      <trkpt lat="43.36903" lon="6.15211">
        <ele>444.79998779297</ele>
        <time>2016-11-02T14:56:47Z</time>
      </trkpt>
      <trkpt lat="43.36909" lon="6.15212">
        <ele>444</ele>
        <time>2016-11-02T14:56:49Z</time>
      </trkpt>
      <trkpt lat="43.36913" lon="6.15212">
        <ele>443.39999389648</ele>
        <time>2016-11-02T14:56:50Z</time>
      </trkpt>
      <trkpt lat="43.36919" lon="6.1521">
        <ele>442</ele>
        <time>2016-11-02T14:56:52Z</time>
      </trkpt>
      <trkpt lat="43.36932" lon="6.15206">
        <ele>440.60000610352</ele>
        <time>2016-11-02T14:56:56Z</time>
      </trkpt>
      <trkpt lat="43.36938" lon="6.15207">
        <ele>439.39999389648</ele>
        <time>2016-11-02T14:56:58Z</time>
      </trkpt>
      <trkpt lat="43.36941" lon="6.15207">
        <ele>438.79998779297</ele>
        <time>2016-11-02T14:56:59Z</time>
      </trkpt>
      <trkpt lat="43.36943" lon="6.15206">
        <ele>438.20001220703</ele>
        <time>2016-11-02T14:57:00Z</time>
      </trkpt>
      <trkpt lat="43.36959" lon="6.15198">
        <ele>437.20001220703</ele>
        <time>2016-11-02T14:57:04Z</time>
      </trkpt>
      <trkpt lat="43.36967" lon="6.1519">
        <ele>437</ele>
        <time>2016-11-02T14:57:06Z</time>
      </trkpt>
      <trkpt lat="43.3697" lon="6.15186">
        <ele>436.79998779297</ele>
        <time>2016-11-02T14:57:07Z</time>
      </trkpt>
      <trkpt lat="43.36979" lon="6.15164">
        <ele>436</ele>
        <time>2016-11-02T14:57:12Z</time>
      </trkpt>
      <trkpt lat="43.3698" lon="6.15152">
        <ele>435.60000610352</ele>
        <time>2016-11-02T14:57:15Z</time>
      </trkpt>
      <trkpt lat="43.36981" lon="6.15145">
        <ele>435.39999389648</ele>
        <time>2016-11-02T14:57:17Z</time>
      </trkpt>
      <trkpt lat="43.3698" lon="6.1514">
        <ele>435</ele>
        <time>2016-11-02T14:57:19Z</time>
      </trkpt>
      <trkpt lat="43.36978" lon="6.15138">
        <ele>434.79998779297</ele>
        <time>2016-11-02T14:57:20Z</time>
      </trkpt>
      <trkpt lat="43.36976" lon="6.15136">
        <ele>434.79998779297</ele>
        <time>2016-11-02T14:57:21Z</time>
      </trkpt>
      <trkpt lat="43.36975" lon="6.1512">
        <ele>434.79998779297</ele>
        <time>2016-11-02T14:57:26Z</time>
      </trkpt>
      <trkpt lat="43.36979" lon="6.15115">
        <ele>434</ele>
        <time>2016-11-02T14:57:28Z</time>
      </trkpt>
      <trkpt lat="43.36981" lon="6.15114">
        <ele>433.60000610352</ele>
        <time>2016-11-02T14:57:29Z</time>
      </trkpt>
      <trkpt lat="43.36984" lon="6.15106">
        <ele>433</ele>
        <time>2016-11-02T14:57:33Z</time>
      </trkpt>
      <trkpt lat="43.36986" lon="6.151">
        <ele>432.79998779297</ele>
        <time>2016-11-02T14:57:35Z</time>
      </trkpt>
      <trkpt lat="43.36986" lon="6.15097">
        <ele>432.60000610352</ele>
        <time>2016-11-02T14:57:36Z</time>
      </trkpt>
      <trkpt lat="43.36981" lon="6.15063">
        <ele>433</ele>
        <time>2016-11-02T14:57:49Z</time>
      </trkpt>
      <trkpt lat="43.36981" lon="6.15042">
        <ele>433.20001220703</ele>
        <time>2016-11-02T14:57:54Z</time>
      </trkpt>
      <trkpt lat="43.36992" lon="6.15021">
        <ele>431.39999389648</ele>
        <time>2016-11-02T14:57:59Z</time>
      </trkpt>
      <trkpt lat="43.36998" lon="6.15006">
        <ele>429.79998779297</ele>
        <time>2016-11-02T14:58:02Z</time>
      </trkpt>
      <trkpt lat="43.37" lon="6.14997">
        <ele>428.20001220703</ele>
        <time>2016-11-02T14:58:04Z</time>
      </trkpt>
      <trkpt lat="43.37002" lon="6.1499">
        <ele>427</ele>
        <time>2016-11-02T14:58:06Z</time>
      </trkpt>
      <trkpt lat="43.37004" lon="6.14982">
        <ele>425.60000610352</ele>
        <time>2016-11-02T14:58:08Z</time>
      </trkpt>
      <trkpt lat="43.37006" lon="6.14974">
        <ele>424.20001220703</ele>
        <time>2016-11-02T14:58:10Z</time>
      </trkpt>
      <trkpt lat="43.37008" lon="6.14966">
        <ele>423.60000610352</ele>
        <time>2016-11-02T14:58:12Z</time>
      </trkpt>
      <trkpt lat="43.37009" lon="6.14959">
        <ele>423</ele>
        <time>2016-11-02T14:58:14Z</time>
      </trkpt>
      <trkpt lat="43.37011" lon="6.14952">
        <ele>422</ele>
        <time>2016-11-02T14:58:16Z</time>
      </trkpt>
      <trkpt lat="43.37013" lon="6.14946">
        <ele>420.79998779297</ele>
        <time>2016-11-02T14:58:18Z</time>
      </trkpt>
      <trkpt lat="43.37014" lon="6.14942">
        <ele>420.39999389648</ele>
        <time>2016-11-02T14:58:19Z</time>
      </trkpt>
      <trkpt lat="43.37016" lon="6.14936">
        <ele>419.60000610352</ele>
        <time>2016-11-02T14:58:21Z</time>
      </trkpt>
      <trkpt lat="43.37017" lon="6.14931">
        <ele>418.20001220703</ele>
        <time>2016-11-02T14:58:23Z</time>
      </trkpt>
      <trkpt lat="43.3702" lon="6.14921">
        <ele>416.60000610352</ele>
        <time>2016-11-02T14:58:26Z</time>
      </trkpt>
      <trkpt lat="43.37022" lon="6.14914">
        <ele>415.60000610352</ele>
        <time>2016-11-02T14:58:28Z</time>
      </trkpt>
      <trkpt lat="43.37023" lon="6.14911">
        <ele>415</ele>
        <time>2016-11-02T14:58:29Z</time>
      </trkpt>
      <trkpt lat="43.37024" lon="6.14908">
        <ele>414.39999389648</ele>
        <time>2016-11-02T14:58:30Z</time>
      </trkpt>
      <trkpt lat="43.37024" lon="6.14902">
        <ele>413.20001220703</ele>
        <time>2016-11-02T14:58:33Z</time>
      </trkpt>
      <trkpt lat="43.37025" lon="6.14899">
        <ele>412.20001220703</ele>
        <time>2016-11-02T14:58:36Z</time>
      </trkpt>
      <trkpt lat="43.37025" lon="6.14899">
        <ele>411.79998779297</ele>
        <time>2016-11-02T14:58:37Z</time>
      </trkpt>
      <trkpt lat="43.37025" lon="6.14898">
        <ele>411.60000610352</ele>
        <time>2016-11-02T14:58:39Z</time>
      </trkpt>
      <trkpt lat="43.37025" lon="6.14898">
        <ele>411.60000610352</ele>
        <time>2016-11-02T14:58:49Z</time>
      </trkpt>
      <trkpt lat="43.37025" lon="6.14897">
        <ele>411</ele>
        <time>2016-11-02T14:58:59Z</time>
      </trkpt>
      <trkpt lat="43.37025" lon="6.14897">
        <ele>410.79998779297</ele>
        <time>2016-11-02T14:59:01Z</time>
      </trkpt>
      <trkpt lat="43.37025" lon="6.14891">
        <ele>410.60000610352</ele>
        <time>2016-11-02T14:59:03Z</time>
      </trkpt>
      <trkpt lat="43.37026" lon="6.14887">
        <ele>410.20001220703</ele>
        <time>2016-11-02T14:59:05Z</time>
      </trkpt>
      <trkpt lat="43.37028" lon="6.14877">
        <ele>408.79998779297</ele>
        <time>2016-11-02T14:59:09Z</time>
      </trkpt>
      <trkpt lat="43.37029" lon="6.14874">
        <ele>408.20001220703</ele>
        <time>2016-11-02T14:59:10Z</time>
      </trkpt>
      <trkpt lat="43.37029" lon="6.14867">
        <ele>406.79998779297</ele>
        <time>2016-11-02T14:59:13Z</time>
      </trkpt>
      <trkpt lat="43.37029" lon="6.14862">
        <ele>405.60000610352</ele>
        <time>2016-11-02T14:59:15Z</time>
      </trkpt>
      <trkpt lat="43.37028" lon="6.14852">
        <ele>404.20001220703</ele>
        <time>2016-11-02T14:59:18Z</time>
      </trkpt>
      <trkpt lat="43.37028" lon="6.14849">
        <ele>403.60000610352</ele>
        <time>2016-11-02T14:59:19Z</time>
      </trkpt>
      <trkpt lat="43.37029" lon="6.14845">
        <ele>403</ele>
        <time>2016-11-02T14:59:20Z</time>
      </trkpt>
      <trkpt lat="43.37029" lon="6.14839">
        <ele>402</ele>
        <time>2016-11-02T14:59:22Z</time>
      </trkpt>
      <trkpt lat="43.37032" lon="6.14831">
        <ele>401</ele>
        <time>2016-11-02T14:59:25Z</time>
      </trkpt>
      <trkpt lat="43.37037" lon="6.14822">
        <ele>399.79998779297</ele>
        <time>2016-11-02T14:59:29Z</time>
      </trkpt>
      <trkpt lat="43.37041" lon="6.14809">
        <ele>398.39999389648</ele>
        <time>2016-11-02T14:59:33Z</time>
      </trkpt>
      <trkpt lat="43.37042" lon="6.14802">
        <ele>397.20001220703</ele>
        <time>2016-11-02T14:59:35Z</time>
      </trkpt>
      <trkpt lat="43.37044" lon="6.14785">
        <ele>396</ele>
        <time>2016-11-02T14:59:39Z</time>
      </trkpt>
      <trkpt lat="43.37047" lon="6.14768">
        <ele>395</ele>
        <time>2016-11-02T14:59:42Z</time>
      </trkpt>
      <trkpt lat="43.37048" lon="6.14762">
        <ele>394.60000610352</ele>
        <time>2016-11-02T14:59:43Z</time>
      </trkpt>
      <trkpt lat="43.37051" lon="6.14753">
        <ele>393.79998779297</ele>
        <time>2016-11-02T14:59:45Z</time>
      </trkpt>
      <trkpt lat="43.37052" lon="6.14746">
        <ele>392.79998779297</ele>
        <time>2016-11-02T14:59:47Z</time>
      </trkpt>
      <trkpt lat="43.37051" lon="6.14742">
        <ele>392</ele>
        <time>2016-11-02T14:59:49Z</time>
      </trkpt>
      <trkpt lat="43.37051" lon="6.1474">
        <ele>391.79998779297</ele>
        <time>2016-11-02T14:59:52Z</time>
      </trkpt>
      <trkpt lat="43.37051" lon="6.14739">
        <ele>391.39999389648</ele>
        <time>2016-11-02T14:59:59Z</time>
      </trkpt>
      <trkpt lat="43.37051" lon="6.14739">
        <ele>391.60000610352</ele>
        <time>2016-11-02T15:00:19Z</time>
      </trkpt>
      <trkpt lat="43.37051" lon="6.14739">
        <ele>391.60000610352</ele>
        <time>2016-11-02T15:00:25Z</time>
      </trkpt>
      <trkpt lat="43.37051" lon="6.14732">
        <ele>391.20001220703</ele>
        <time>2016-11-02T15:00:29Z</time>
      </trkpt>
      <trkpt lat="43.37051" lon="6.14729">
        <ele>391</ele>
        <time>2016-11-02T15:00:30Z</time>
      </trkpt>
      <trkpt lat="43.37053" lon="6.14711">
        <ele>390.60000610352</ele>
        <time>2016-11-02T15:00:34Z</time>
      </trkpt>
      <trkpt lat="43.37057" lon="6.14691">
        <ele>389.39999389648</ele>
        <time>2016-11-02T15:00:38Z</time>
      </trkpt>
      <trkpt lat="43.37055" lon="6.14686">
        <ele>388.79998779297</ele>
        <time>2016-11-02T15:00:39Z</time>
      </trkpt>
      <trkpt lat="43.37054" lon="6.14675">
        <ele>388</ele>
        <time>2016-11-02T15:00:41Z</time>
      </trkpt>
      <trkpt lat="43.37056" lon="6.14666">
        <ele>387.60000610352</ele>
        <time>2016-11-02T15:00:43Z</time>
      </trkpt>
      <trkpt lat="43.37054" lon="6.14658">
        <ele>386.79998779297</ele>
        <time>2016-11-02T15:00:45Z</time>
      </trkpt>
      <trkpt lat="43.37052" lon="6.14636">
        <ele>385.79998779297</ele>
        <time>2016-11-02T15:00:49Z</time>
      </trkpt>
      <trkpt lat="43.37049" lon="6.1462">
        <ele>385.39999389648</ele>
        <time>2016-11-02T15:00:52Z</time>
      </trkpt>
      <trkpt lat="43.37046" lon="6.1461">
        <ele>385</ele>
        <time>2016-11-02T15:00:54Z</time>
      </trkpt>
      <trkpt lat="43.37051" lon="6.14579">
        <ele>384</ele>
        <time>2016-11-02T15:00:59Z</time>
      </trkpt>
      <trkpt lat="43.37054" lon="6.14567">
        <ele>383.60000610352</ele>
        <time>2016-11-02T15:01:01Z</time>
      </trkpt>
      <trkpt lat="43.37061" lon="6.14551">
        <ele>382</ele>
        <time>2016-11-02T15:01:04Z</time>
      </trkpt>
      <trkpt lat="43.37063" lon="6.1454">
        <ele>381.39999389648</ele>
        <time>2016-11-02T15:01:06Z</time>
      </trkpt>
      <trkpt lat="43.37066" lon="6.14523">
        <ele>381</ele>
        <time>2016-11-02T15:01:09Z</time>
      </trkpt>
      <trkpt lat="43.37067" lon="6.14503">
        <ele>380</ele>
        <time>2016-11-02T15:01:13Z</time>
      </trkpt>
      <trkpt lat="43.37064" lon="6.14496">
        <ele>379.60000610352</ele>
        <time>2016-11-02T15:01:15Z</time>
      </trkpt>
      <trkpt lat="43.3706" lon="6.14485">
        <ele>378.39999389648</ele>
        <time>2016-11-02T15:01:18Z</time>
      </trkpt>
      <trkpt lat="43.3706" lon="6.1448">
        <ele>378</ele>
        <time>2016-11-02T15:01:19Z</time>
      </trkpt>
      <trkpt lat="43.3706" lon="6.14463">
        <ele>377</ele>
        <time>2016-11-02T15:01:22Z</time>
      </trkpt>
      <trkpt lat="43.3706" lon="6.14444">
        <ele>375.60000610352</ele>
        <time>2016-11-02T15:01:25Z</time>
      </trkpt>
      <trkpt lat="43.37061" lon="6.14437">
        <ele>375.20001220703</ele>
        <time>2016-11-02T15:01:26Z</time>
      </trkpt>
      <trkpt lat="43.37061" lon="6.14425">
        <ele>374.39999389648</ele>
        <time>2016-11-02T15:01:28Z</time>
      </trkpt>
      <trkpt lat="43.37063" lon="6.1442">
        <ele>374.20001220703</ele>
        <time>2016-11-02T15:01:29Z</time>
      </trkpt>
      <trkpt lat="43.37072" lon="6.14402">
        <ele>373.39999389648</ele>
        <time>2016-11-02T15:01:34Z</time>
      </trkpt>
      <trkpt lat="43.37085" lon="6.14397">
        <ele>373</ele>
        <time>2016-11-02T15:01:38Z</time>
      </trkpt>
      <trkpt lat="43.37086" lon="6.14393">
        <ele>372.39999389648</ele>
        <time>2016-11-02T15:01:39Z</time>
      </trkpt>
      <trkpt lat="43.37086" lon="6.14388">
        <ele>371.79998779297</ele>
        <time>2016-11-02T15:01:40Z</time>
      </trkpt>
      <trkpt lat="43.37085" lon="6.14381">
        <ele>370.60000610352</ele>
        <time>2016-11-02T15:01:42Z</time>
      </trkpt>
      <trkpt lat="43.37083" lon="6.14366">
        <ele>369.39999389648</ele>
        <time>2016-11-02T15:01:45Z</time>
      </trkpt>
      <trkpt lat="43.37084" lon="6.14354">
        <ele>368.39999389648</ele>
        <time>2016-11-02T15:01:47Z</time>
      </trkpt>
      <trkpt lat="43.37085" lon="6.14349">
        <ele>368</ele>
        <time>2016-11-02T15:01:48Z</time>
      </trkpt>
      <trkpt lat="43.37085" lon="6.14344">
        <ele>367.39999389648</ele>
        <time>2016-11-02T15:01:49Z</time>
      </trkpt>
      <trkpt lat="43.37085" lon="6.14338">
        <ele>367</ele>
        <time>2016-11-02T15:01:51Z</time>
      </trkpt>
      <trkpt lat="43.37085" lon="6.14338">
        <ele>366.79998779297</ele>
        <time>2016-11-02T15:01:59Z</time>
      </trkpt>
      <trkpt lat="43.37085" lon="6.14338">
        <ele>366.79998779297</ele>
        <time>2016-11-02T15:02:15Z</time>
      </trkpt>
      <trkpt lat="43.37085" lon="6.14338">
        <ele>366.60000610352</ele>
        <time>2016-11-02T15:02:49Z</time>
      </trkpt>
      <trkpt lat="43.37085" lon="6.14338">
        <ele>366.60000610352</ele>
        <time>2016-11-02T15:02:59Z</time>
      </trkpt>
      <trkpt lat="43.37085" lon="6.14338">
        <ele>366.60000610352</ele>
        <time>2016-11-02T15:03:06Z</time>
      </trkpt>
      <trkpt lat="43.37085" lon="6.14332">
        <ele>366.60000610352</ele>
        <time>2016-11-02T15:03:09Z</time>
      </trkpt>
      <trkpt lat="43.37083" lon="6.1432">
        <ele>366.79998779297</ele>
        <time>2016-11-02T15:03:12Z</time>
      </trkpt>
      <trkpt lat="43.37082" lon="6.14315">
        <ele>365.60000610352</ele>
        <time>2016-11-02T15:03:13Z</time>
      </trkpt>
      <trkpt lat="43.37077" lon="6.143">
        <ele>365</ele>
        <time>2016-11-02T15:03:16Z</time>
      </trkpt>
      <trkpt lat="43.37072" lon="6.14285">
        <ele>364.39999389648</ele>
        <time>2016-11-02T15:03:19Z</time>
      </trkpt>
      <trkpt lat="43.37068" lon="6.14274">
        <ele>364.20001220703</ele>
        <time>2016-11-02T15:03:21Z</time>
      </trkpt>
      <trkpt lat="43.37065" lon="6.14248">
        <ele>363.79998779297</ele>
        <time>2016-11-02T15:03:25Z</time>
      </trkpt>
      <trkpt lat="43.37064" lon="6.14242">
        <ele>363.39999389648</ele>
        <time>2016-11-02T15:03:26Z</time>
      </trkpt>
      <trkpt lat="43.37061" lon="6.14224">
        <ele>362.39999389648</ele>
        <time>2016-11-02T15:03:29Z</time>
      </trkpt>
      <trkpt lat="43.37058" lon="6.14213">
        <ele>362.20001220703</ele>
        <time>2016-11-02T15:03:31Z</time>
      </trkpt>
      <trkpt lat="43.3705" lon="6.14198">
        <ele>362.20001220703</ele>
        <time>2016-11-02T15:03:34Z</time>
      </trkpt>
      <trkpt lat="43.37039" lon="6.14181">
        <ele>362.60000610352</ele>
        <time>2016-11-02T15:03:38Z</time>
      </trkpt>
      <trkpt lat="43.37036" lon="6.14175">
        <ele>362.60000610352</ele>
        <time>2016-11-02T15:03:39Z</time>
      </trkpt>
      <trkpt lat="43.37027" lon="6.14157">
        <ele>361.60000610352</ele>
        <time>2016-11-02T15:03:42Z</time>
      </trkpt>
      <trkpt lat="43.37021" lon="6.14143">
        <ele>361</ele>
        <time>2016-11-02T15:03:44Z</time>
      </trkpt>
      <trkpt lat="43.37013" lon="6.1413">
        <ele>360</ele>
        <time>2016-11-02T15:03:46Z</time>
      </trkpt>
      <trkpt lat="43.37004" lon="6.14118">
        <ele>359.39999389648</ele>
        <time>2016-11-02T15:03:48Z</time>
      </trkpt>
      <trkpt lat="43.37" lon="6.14112">
        <ele>359.20001220703</ele>
        <time>2016-11-02T15:03:49Z</time>
      </trkpt>
      <trkpt lat="43.36995" lon="6.14107">
        <ele>359.20001220703</ele>
        <time>2016-11-02T15:03:50Z</time>
      </trkpt>
      <trkpt lat="43.36983" lon="6.141">
        <ele>359</ele>
        <time>2016-11-02T15:03:52Z</time>
      </trkpt>
      <trkpt lat="43.36971" lon="6.14099">
        <ele>358.79998779297</ele>
        <time>2016-11-02T15:03:54Z</time>
      </trkpt>
      <trkpt lat="43.36956" lon="6.14103">
        <ele>359.20001220703</ele>
        <time>2016-11-02T15:03:57Z</time>
      </trkpt>
      <trkpt lat="43.3695" lon="6.14107">
        <ele>359.60000610352</ele>
        <time>2016-11-02T15:03:59Z</time>
      </trkpt>
      <trkpt lat="43.36944" lon="6.14112">
        <ele>360</ele>
        <time>2016-11-02T15:04:01Z</time>
      </trkpt>
      <trkpt lat="43.36937" lon="6.14115">
        <ele>360.39999389648</ele>
        <time>2016-11-02T15:04:03Z</time>
      </trkpt>
      <trkpt lat="43.3693" lon="6.14113">
        <ele>361</ele>
        <time>2016-11-02T15:04:05Z</time>
      </trkpt>
      <trkpt lat="43.36917" lon="6.14108">
        <ele>362.79998779297</ele>
        <time>2016-11-02T15:04:09Z</time>
      </trkpt>
      <trkpt lat="43.36899" lon="6.14117">
        <ele>362.79998779297</ele>
        <time>2016-11-02T15:04:14Z</time>
      </trkpt>
      <trkpt lat="43.3689" lon="6.14114">
        <ele>362.20001220703</ele>
        <time>2016-11-02T15:04:16Z</time>
      </trkpt>
      <trkpt lat="43.36882" lon="6.14097">
        <ele>361</ele>
        <time>2016-11-02T15:04:19Z</time>
      </trkpt>
      <trkpt lat="43.36878" lon="6.14083">
        <ele>359.79998779297</ele>
        <time>2016-11-02T15:04:21Z</time>
      </trkpt>
      <trkpt lat="43.36875" lon="6.14067">
        <ele>358.60000610352</ele>
        <time>2016-11-02T15:04:23Z</time>
      </trkpt>
      <trkpt lat="43.36871" lon="6.14051">
        <ele>357.60000610352</ele>
        <time>2016-11-02T15:04:25Z</time>
      </trkpt>
      <trkpt lat="43.36865" lon="6.14036">
        <ele>356.39999389648</ele>
        <time>2016-11-02T15:04:27Z</time>
      </trkpt>
      <trkpt lat="43.36864" lon="6.14028">
        <ele>355.60000610352</ele>
        <time>2016-11-02T15:04:28Z</time>
      </trkpt>
      <trkpt lat="43.36863" lon="6.14018">
        <ele>354.79998779297</ele>
        <time>2016-11-02T15:04:29Z</time>
      </trkpt>
      <trkpt lat="43.36862" lon="6.14001">
        <ele>353.20001220703</ele>
        <time>2016-11-02T15:04:31Z</time>
      </trkpt>
      <trkpt lat="43.3686" lon="6.13989">
        <ele>351.39999389648</ele>
        <time>2016-11-02T15:04:33Z</time>
      </trkpt>
      <trkpt lat="43.36857" lon="6.13982">
        <ele>350.20001220703</ele>
        <time>2016-11-02T15:04:35Z</time>
      </trkpt>
      <trkpt lat="43.36849" lon="6.13975">
        <ele>349.39999389648</ele>
        <time>2016-11-02T15:04:39Z</time>
      </trkpt>
      <trkpt lat="43.36846" lon="6.13972">
        <ele>349.20001220703</ele>
        <time>2016-11-02T15:04:42Z</time>
      </trkpt>
      <trkpt lat="43.36846" lon="6.13971">
        <ele>349.20001220703</ele>
        <time>2016-11-02T15:04:43Z</time>
      </trkpt>
      <trkpt lat="43.36846" lon="6.13963">
        <ele>349</ele>
        <time>2016-11-02T15:04:49Z</time>
      </trkpt>
      <trkpt lat="43.36845" lon="6.13959">
        <ele>349</ele>
        <time>2016-11-02T15:04:59Z</time>
      </trkpt>
      <trkpt lat="43.36844" lon="6.13959">
        <ele>349</ele>
        <time>2016-11-02T15:05:02Z</time>
      </trkpt>
      <trkpt lat="43.36842" lon="6.13957">
        <ele>349</ele>
        <time>2016-11-02T15:05:09Z</time>
      </trkpt>
      <trkpt lat="43.3684" lon="6.13957">
        <ele>349</ele>
        <time>2016-11-02T15:05:19Z</time>
      </trkpt>
      <trkpt lat="43.36838" lon="6.13959">
        <ele>349</ele>
        <time>2016-11-02T15:05:22Z</time>
      </trkpt>
      <trkpt lat="43.36834" lon="6.1396">
        <ele>349.20001220703</ele>
        <time>2016-11-02T15:05:25Z</time>
      </trkpt>
      <trkpt lat="43.36832" lon="6.13963">
        <ele>349.39999389648</ele>
        <time>2016-11-02T15:05:27Z</time>
      </trkpt>
      <trkpt lat="43.36831" lon="6.13966">
        <ele>349.60000610352</ele>
        <time>2016-11-02T15:05:29Z</time>
      </trkpt>
      <trkpt lat="43.36829" lon="6.13974">
        <ele>350.39999389648</ele>
        <time>2016-11-02T15:05:33Z</time>
      </trkpt>
      <trkpt lat="43.36828" lon="6.13976">
        <ele>350.39999389648</ele>
        <time>2016-11-02T15:05:34Z</time>
      </trkpt>
      <trkpt lat="43.36824" lon="6.13978">
        <ele>351</ele>
        <time>2016-11-02T15:05:36Z</time>
      </trkpt>
      <trkpt lat="43.36819" lon="6.1398">
        <ele>351.60000610352</ele>
        <time>2016-11-02T15:05:38Z</time>
      </trkpt>
      <trkpt lat="43.36817" lon="6.13982">
        <ele>352</ele>
        <time>2016-11-02T15:05:39Z</time>
      </trkpt>
      <trkpt lat="43.36811" lon="6.13983">
        <ele>352.60000610352</ele>
        <time>2016-11-02T15:05:41Z</time>
      </trkpt>
      <trkpt lat="43.36807" lon="6.13985">
        <ele>353</ele>
        <time>2016-11-02T15:05:43Z</time>
      </trkpt>
      <trkpt lat="43.36801" lon="6.13989">
        <ele>353.20001220703</ele>
        <time>2016-11-02T15:05:46Z</time>
      </trkpt>
      <trkpt lat="43.36797" lon="6.13991">
        <ele>353.39999389648</ele>
        <time>2016-11-02T15:05:49Z</time>
      </trkpt>
      <trkpt lat="43.36796" lon="6.1399">
        <ele>353.39999389648</ele>
        <time>2016-11-02T15:05:54Z</time>
      </trkpt>
      <trkpt lat="43.36796" lon="6.13989">
        <ele>353</ele>
        <time>2016-11-02T15:05:58Z</time>
      </trkpt>
      <trkpt lat="43.36796" lon="6.13989">
        <ele>353</ele>
        <time>2016-11-02T15:05:59Z</time>
      </trkpt>
      <trkpt lat="43.36795" lon="6.1399">
        <ele>353</ele>
        <time>2016-11-02T15:06:09Z</time>
      </trkpt>
      <trkpt lat="43.36796" lon="6.1399">
        <ele>353</ele>
        <time>2016-11-02T15:06:19Z</time>
      </trkpt>
      <trkpt lat="43.36797" lon="6.1399">
        <ele>352.79998779297</ele>
        <time>2016-11-02T15:06:24Z</time>
      </trkpt>
      <trkpt lat="43.36797" lon="6.13991">
        <ele>352.39999389648</ele>
        <time>2016-11-02T15:06:27Z</time>
      </trkpt>
      <trkpt lat="43.36797" lon="6.13991">
        <ele>352.39999389648</ele>
        <time>2016-11-02T15:06:29Z</time>
      </trkpt>
      <trkpt lat="43.36797" lon="6.13991">
        <ele>353</ele>
        <time>2016-11-02T15:06:34Z</time>
      </trkpt>
      <trkpt lat="43.36797" lon="6.13991">
        <ele>352.79998779297</ele>
        <time>2016-11-02T15:06:39Z</time>
      </trkpt>
      <trkpt lat="43.36797" lon="6.13989">
        <ele>352.79998779297</ele>
        <time>2016-11-02T15:06:49Z</time>
      </trkpt>
      <trkpt lat="43.36797" lon="6.13988">
        <ele>353</ele>
        <time>2016-11-02T15:06:59Z</time>
      </trkpt>
      <trkpt lat="43.36796" lon="6.13988">
        <ele>353</ele>
        <time>2016-11-02T15:07:09Z</time>
      </trkpt>
      <trkpt lat="43.36796" lon="6.13988">
        <ele>353</ele>
        <time>2016-11-02T15:07:19Z</time>
      </trkpt>
      <trkpt lat="43.36795" lon="6.13989">
        <ele>353</ele>
        <time>2016-11-02T15:07:29Z</time>
      </trkpt>
      <trkpt lat="43.36794" lon="6.13989">
        <ele>353</ele>
        <time>2016-11-02T15:07:39Z</time>
      </trkpt>
      <trkpt lat="43.36793" lon="6.13991">
        <ele>353</ele>
        <time>2016-11-02T15:07:54Z</time>
      </trkpt>
      <trkpt lat="43.36793" lon="6.13991">
        <ele>353</ele>
        <time>2016-11-02T15:07:59Z</time>
      </trkpt>
      <trkpt lat="43.36793" lon="6.13992">
        <ele>353</ele>
        <time>2016-11-02T15:08:08Z</time>
      </trkpt>
      <trkpt lat="43.36793" lon="6.13992">
        <ele>353</ele>
        <time>2016-11-02T15:08:35Z</time>
      </trkpt>
      <trkpt lat="43.36793" lon="6.13991">
        <ele>353</ele>
        <time>2016-11-02T15:08:49Z</time>
      </trkpt>
      <trkpt lat="43.36794" lon="6.13991">
        <ele>353</ele>
        <time>2016-11-02T15:08:59Z</time>
      </trkpt>
      <trkpt lat="43.36793" lon="6.13992">
        <ele>353</ele>
        <time>2016-11-02T15:09:29Z</time>
      </trkpt>
      <trkpt lat="43.36793" lon="6.13993">
        <ele>353</ele>
        <time>2016-11-02T15:09:39Z</time>
      </trkpt>
      <trkpt lat="43.36793" lon="6.13992">
        <ele>353</ele>
        <time>2016-11-02T15:09:59Z</time>
      </trkpt>
      <trkpt lat="43.36794" lon="6.13992">
        <ele>353</ele>
        <time>2016-11-02T15:10:09Z</time>
      </trkpt>
      <trkpt lat="43.36794" lon="6.13992">
        <ele>353</ele>
        <time>2016-11-02T15:10:19Z</time>
      </trkpt>
      <trkpt lat="43.36794" lon="6.13992">
        <ele>353</ele>
        <time>2016-11-02T15:10:39Z</time>
      </trkpt>
      <trkpt lat="43.36794" lon="6.13992">
        <ele>353</ele>
        <time>2016-11-02T15:10:59Z</time>
      </trkpt>
      <trkpt lat="43.36794" lon="6.13992">
        <ele>353</ele>
        <time>2016-11-02T15:11:09Z</time>
      </trkpt>
      <trkpt lat="43.36794" lon="6.13993">
        <ele>353</ele>
        <time>2016-11-02T15:11:19Z</time>
      </trkpt>
      <trkpt lat="43.36794" lon="6.13994">
        <ele>353</ele>
        <time>2016-11-02T15:11:29Z</time>
      </trkpt>
      <trkpt lat="43.36794" lon="6.13994">
        <ele>353</ele>
        <time>2016-11-02T15:11:39Z</time>
      </trkpt>
      <trkpt lat="43.36794" lon="6.13992">
        <ele>353</ele>
        <time>2016-11-02T15:11:59Z</time>
      </trkpt>
      <trkpt lat="43.36794" lon="6.13992">
        <ele>353</ele>
        <time>2016-11-02T15:12:09Z</time>
      </trkpt>
      <trkpt lat="43.36794" lon="6.13992">
        <ele>353</ele>
        <time>2016-11-02T15:12:39Z</time>
      </trkpt>
      <trkpt lat="43.36794" lon="6.13992">
        <ele>353</ele>
        <time>2016-11-02T15:12:49Z</time>
      </trkpt>
      <trkpt lat="43.36794" lon="6.13991">
        <ele>353</ele>
        <time>2016-11-02T15:13:09Z</time>
      </trkpt>
      <trkpt lat="43.36795" lon="6.13992">
        <ele>353</ele>
        <time>2016-11-02T15:13:19Z</time>
      </trkpt>
      <trkpt lat="43.36795" lon="6.13992">
        <ele>353</ele>
        <time>2016-11-02T15:13:26Z</time>
      </trkpt>
      <trkpt lat="43.36795" lon="6.1399">
        <ele>353</ele>
        <time>2016-11-02T15:13:39Z</time>
      </trkpt>
      <trkpt lat="43.36795" lon="6.1399">
        <ele>353</ele>
        <time>2016-11-02T15:13:49Z</time>
      </trkpt>
      <trkpt lat="43.36795" lon="6.13991">
        <ele>353</ele>
        <time>2016-11-02T15:13:59Z</time>
      </trkpt>
      <trkpt lat="43.36795" lon="6.13991">
        <ele>353</ele>
        <time>2016-11-02T15:14:09Z</time>
      </trkpt>
      <trkpt lat="43.36795" lon="6.13992">
        <ele>353</ele>
        <time>2016-11-02T15:14:19Z</time>
      </trkpt>
      <trkpt lat="43.36794" lon="6.13991">
        <ele>353</ele>
        <time>2016-11-02T15:14:25Z</time>
      </trkpt>
      <trkpt lat="43.36793" lon="6.1399">
        <ele>353</ele>
        <time>2016-11-02T15:14:29Z</time>
      </trkpt>
      <trkpt lat="43.36793" lon="6.13991">
        <ele>353</ele>
        <time>2016-11-02T15:14:36Z</time>
      </trkpt>
      <trkpt lat="43.36792" lon="6.13991">
        <ele>353</ele>
        <time>2016-11-02T15:14:39Z</time>
      </trkpt>
      <trkpt lat="43.3679" lon="6.13992">
        <ele>353</ele>
        <time>2016-11-02T15:14:45Z</time>
      </trkpt>
      <trkpt lat="43.36788" lon="6.13994">
        <ele>354</ele>
        <time>2016-11-02T15:14:47Z</time>
      </trkpt>
      <trkpt lat="43.36786" lon="6.13995">
        <ele>354.20001220703</ele>
        <time>2016-11-02T15:14:48Z</time>
      </trkpt>
      <trkpt lat="43.36784" lon="6.13997">
        <ele>353.79998779297</ele>
        <time>2016-11-02T15:14:49Z</time>
      </trkpt>
      <trkpt lat="43.36778" lon="6.14002">
        <ele>354.79998779297</ele>
        <time>2016-11-02T15:14:52Z</time>
      </trkpt>
      <trkpt lat="43.36775" lon="6.14007">
        <ele>355</ele>
        <time>2016-11-02T15:14:54Z</time>
      </trkpt>
      <trkpt lat="43.36771" lon="6.14011">
        <ele>355.60000610352</ele>
        <time>2016-11-02T15:14:56Z</time>
      </trkpt>
      <trkpt lat="43.36767" lon="6.14014">
        <ele>356.39999389648</ele>
        <time>2016-11-02T15:14:59Z</time>
      </trkpt>
      <trkpt lat="43.3676" lon="6.14016">
        <ele>357.20001220703</ele>
        <time>2016-11-02T15:15:03Z</time>
      </trkpt>
      <trkpt lat="43.36755" lon="6.14016">
        <ele>357.39999389648</ele>
        <time>2016-11-02T15:15:05Z</time>
      </trkpt>
      <trkpt lat="43.36747" lon="6.14015">
        <ele>357.60000610352</ele>
        <time>2016-11-02T15:15:09Z</time>
      </trkpt>
      <trkpt lat="43.36724" lon="6.14001">
        <ele>358</ele>
        <time>2016-11-02T15:15:19Z</time>
      </trkpt>
      <trkpt lat="43.36718" lon="6.14001">
        <ele>358.20001220703</ele>
        <time>2016-11-02T15:15:22Z</time>
      </trkpt>
      <trkpt lat="43.36703" lon="6.14019">
        <ele>358.20001220703</ele>
        <time>2016-11-02T15:15:29Z</time>
      </trkpt>
      <trkpt lat="43.36681" lon="6.14045">
        <ele>358</ele>
        <time>2016-11-02T15:15:39Z</time>
      </trkpt>
      <trkpt lat="43.36668" lon="6.14082">
        <ele>357.79998779297</ele>
        <time>2016-11-02T15:15:49Z</time>
      </trkpt>
      <trkpt lat="43.36667" lon="6.14114">
        <ele>359.39999389648</ele>
        <time>2016-11-02T15:15:58Z</time>
      </trkpt>
      <trkpt lat="43.36668" lon="6.14141">
        <ele>360.39999389648</ele>
        <time>2016-11-02T15:16:06Z</time>
      </trkpt>
      <trkpt lat="43.36667" lon="6.14151">
        <ele>361</ele>
        <time>2016-11-02T15:16:09Z</time>
      </trkpt>
      <trkpt lat="43.36668" lon="6.14156">
        <ele>361.60000610352</ele>
        <time>2016-11-02T15:16:11Z</time>
      </trkpt>
      <trkpt lat="43.36671" lon="6.14174">
        <ele>362.79998779297</ele>
        <time>2016-11-02T15:16:19Z</time>
      </trkpt>
      <trkpt lat="43.36678" lon="6.14191">
        <ele>363.60000610352</ele>
        <time>2016-11-02T15:16:26Z</time>
      </trkpt>
      <trkpt lat="43.36679" lon="6.14198">
        <ele>363.79998779297</ele>
        <time>2016-11-02T15:16:29Z</time>
      </trkpt>
      <trkpt lat="43.36682" lon="6.14233">
        <ele>364.79998779297</ele>
        <time>2016-11-02T15:16:39Z</time>
      </trkpt>
      <trkpt lat="43.36682" lon="6.14267">
        <ele>365.79998779297</ele>
        <time>2016-11-02T15:16:48Z</time>
      </trkpt>
      <trkpt lat="43.36682" lon="6.14271">
        <ele>366</ele>
        <time>2016-11-02T15:16:49Z</time>
      </trkpt>
      <trkpt lat="43.36681" lon="6.14289">
        <ele>367</ele>
        <time>2016-11-02T15:16:55Z</time>
      </trkpt>
      <trkpt lat="43.3668" lon="6.143">
        <ele>367.60000610352</ele>
        <time>2016-11-02T15:16:59Z</time>
      </trkpt>
      <trkpt lat="43.3668" lon="6.14305">
        <ele>368</ele>
        <time>2016-11-02T15:17:01Z</time>
      </trkpt>
      <trkpt lat="43.36673" lon="6.14333">
        <ele>368.20001220703</ele>
        <time>2016-11-02T15:17:09Z</time>
      </trkpt>
      <trkpt lat="43.36658" lon="6.14364">
        <ele>369</ele>
        <time>2016-11-02T15:17:19Z</time>
      </trkpt>
      <trkpt lat="43.36656" lon="6.14367">
        <ele>369.20001220703</ele>
        <time>2016-11-02T15:17:20Z</time>
      </trkpt>
      <trkpt lat="43.36642" lon="6.14384">
        <ele>369.60000610352</ele>
        <time>2016-11-02T15:17:27Z</time>
      </trkpt>
      <trkpt lat="43.36636" lon="6.1439">
        <ele>370.20001220703</ele>
        <time>2016-11-02T15:17:30Z</time>
      </trkpt>
      <trkpt lat="43.36624" lon="6.14404">
        <ele>371.39999389648</ele>
        <time>2016-11-02T15:17:37Z</time>
      </trkpt>
      <trkpt lat="43.36621" lon="6.14409">
        <ele>371.79998779297</ele>
        <time>2016-11-02T15:17:39Z</time>
      </trkpt>
      <trkpt lat="43.36611" lon="6.14426">
        <ele>372.60000610352</ele>
        <time>2016-11-02T15:17:46Z</time>
      </trkpt>
      <trkpt lat="43.36607" lon="6.14434">
        <ele>372.79998779297</ele>
        <time>2016-11-02T15:17:49Z</time>
      </trkpt>
      <trkpt lat="43.36602" lon="6.14452">
        <ele>373.60000610352</ele>
        <time>2016-11-02T15:17:56Z</time>
      </trkpt>
      <trkpt lat="43.36598" lon="6.14459">
        <ele>374.20001220703</ele>
        <time>2016-11-02T15:17:59Z</time>
      </trkpt>
      <trkpt lat="43.36596" lon="6.1446">
        <ele>374.20001220703</ele>
        <time>2016-11-02T15:18:00Z</time>
      </trkpt>
      <trkpt lat="43.36591" lon="6.14459">
        <ele>374</ele>
        <time>2016-11-02T15:18:02Z</time>
      </trkpt>
      <trkpt lat="43.36588" lon="6.14455">
        <ele>373.60000610352</ele>
        <time>2016-11-02T15:18:04Z</time>
      </trkpt>
      <trkpt lat="43.36585" lon="6.14442">
        <ele>373.79998779297</ele>
        <time>2016-11-02T15:18:09Z</time>
      </trkpt>
      <trkpt lat="43.36583" lon="6.14422">
        <ele>375</ele>
        <time>2016-11-02T15:18:19Z</time>
      </trkpt>
      <trkpt lat="43.36583" lon="6.14417">
        <ele>375.79998779297</ele>
        <time>2016-11-02T15:18:23Z</time>
      </trkpt>
      <trkpt lat="43.36581" lon="6.14408">
        <ele>376.79998779297</ele>
        <time>2016-11-02T15:18:28Z</time>
      </trkpt>
      <trkpt lat="43.3658" lon="6.14407">
        <ele>377</ele>
        <time>2016-11-02T15:18:29Z</time>
      </trkpt>
      <trkpt lat="43.36577" lon="6.14402">
        <ele>377.79998779297</ele>
        <time>2016-11-02T15:18:33Z</time>
      </trkpt>
      <trkpt lat="43.36575" lon="6.14399">
        <ele>377.79998779297</ele>
        <time>2016-11-02T15:18:36Z</time>
      </trkpt>
      <trkpt lat="43.36573" lon="6.14396">
        <ele>378</ele>
        <time>2016-11-02T15:18:38Z</time>
      </trkpt>
      <trkpt lat="43.36572" lon="6.14395">
        <ele>378.39999389648</ele>
        <time>2016-11-02T15:18:39Z</time>
      </trkpt>
      <trkpt lat="43.36569" lon="6.14393">
        <ele>379</ele>
        <time>2016-11-02T15:18:41Z</time>
      </trkpt>
      <trkpt lat="43.36565" lon="6.14391">
        <ele>380</ele>
        <time>2016-11-02T15:18:45Z</time>
      </trkpt>
      <trkpt lat="43.3656" lon="6.14388">
        <ele>380.39999389648</ele>
        <time>2016-11-02T15:18:49Z</time>
      </trkpt>
      <trkpt lat="43.36555" lon="6.14386">
        <ele>381.20001220703</ele>
        <time>2016-11-02T15:18:53Z</time>
      </trkpt>
      <trkpt lat="43.3655" lon="6.14385">
        <ele>382.20001220703</ele>
        <time>2016-11-02T15:18:58Z</time>
      </trkpt>
      <trkpt lat="43.36549" lon="6.14384">
        <ele>382.39999389648</ele>
        <time>2016-11-02T15:18:59Z</time>
      </trkpt>
      <trkpt lat="43.36544" lon="6.14383">
        <ele>383.20001220703</ele>
        <time>2016-11-02T15:19:05Z</time>
      </trkpt>
      <trkpt lat="43.3654" lon="6.14381">
        <ele>383.79998779297</ele>
        <time>2016-11-02T15:19:09Z</time>
      </trkpt>
      <trkpt lat="43.36538" lon="6.14379">
        <ele>384.39999389648</ele>
        <time>2016-11-02T15:19:11Z</time>
      </trkpt>
      <trkpt lat="43.36531" lon="6.14374">
        <ele>385.20001220703</ele>
        <time>2016-11-02T15:19:19Z</time>
      </trkpt>
      <trkpt lat="43.36531" lon="6.14374">
        <ele>385.39999389648</ele>
        <time>2016-11-02T15:19:22Z</time>
      </trkpt>
      <trkpt lat="43.36531" lon="6.14374">
        <ele>385.60000610352</ele>
        <time>2016-11-02T15:19:33Z</time>
      </trkpt>
      <trkpt lat="43.36531" lon="6.14374">
        <ele>385.60000610352</ele>
        <time>2016-11-02T15:20:19Z</time>
      </trkpt>
      <trkpt lat="43.36527" lon="6.14366">
        <ele>385.60000610352</ele>
        <time>2016-11-02T15:20:26Z</time>
      </trkpt>
      <trkpt lat="43.36525" lon="6.14357">
        <ele>385.39999389648</ele>
        <time>2016-11-02T15:20:29Z</time>
      </trkpt>
      <trkpt lat="43.36526" lon="6.14316">
        <ele>385.39999389648</ele>
        <time>2016-11-02T15:20:39Z</time>
      </trkpt>
      <trkpt lat="43.36529" lon="6.14306">
        <ele>386</ele>
        <time>2016-11-02T15:20:42Z</time>
      </trkpt>
      <trkpt lat="43.36537" lon="6.14273">
        <ele>385.20001220703</ele>
        <time>2016-11-02T15:20:48Z</time>
      </trkpt>
      <trkpt lat="43.36538" lon="6.14267">
        <ele>385</ele>
        <time>2016-11-02T15:20:49Z</time>
      </trkpt>
      <trkpt lat="43.36539" lon="6.14256">
        <ele>384.39999389648</ele>
        <time>2016-11-02T15:20:51Z</time>
      </trkpt>
      <trkpt lat="43.36542" lon="6.14233">
        <ele>383.20001220703</ele>
        <time>2016-11-02T15:20:55Z</time>
      </trkpt>
      <trkpt lat="43.36544" lon="6.14209">
        <ele>383.20001220703</ele>
        <time>2016-11-02T15:20:59Z</time>
      </trkpt>
      <trkpt lat="43.36542" lon="6.14177">
        <ele>381.60000610352</ele>
        <time>2016-11-02T15:21:05Z</time>
      </trkpt>
      <trkpt lat="43.36539" lon="6.14159">
        <ele>381.20001220703</ele>
        <time>2016-11-02T15:21:09Z</time>
      </trkpt>
      <trkpt lat="43.36539" lon="6.14149">
        <ele>380.60000610352</ele>
        <time>2016-11-02T15:21:11Z</time>
      </trkpt>
      <trkpt lat="43.36535" lon="6.14129">
        <ele>379.60000610352</ele>
        <time>2016-11-02T15:21:15Z</time>
      </trkpt>
      <trkpt lat="43.36532" lon="6.14118">
        <ele>379.20001220703</ele>
        <time>2016-11-02T15:21:17Z</time>
      </trkpt>
      <trkpt lat="43.36528" lon="6.14106">
        <ele>378.20001220703</ele>
        <time>2016-11-02T15:21:19Z</time>
      </trkpt>
      <trkpt lat="43.36527" lon="6.141">
        <ele>377.79998779297</ele>
        <time>2016-11-02T15:21:20Z</time>
      </trkpt>
      <trkpt lat="43.36525" lon="6.14087">
        <ele>377.20001220703</ele>
        <time>2016-11-02T15:21:22Z</time>
      </trkpt>
      <trkpt lat="43.36525" lon="6.14081">
        <ele>377</ele>
        <time>2016-11-02T15:21:23Z</time>
      </trkpt>
      <trkpt lat="43.36525" lon="6.14062">
        <ele>376</ele>
        <time>2016-11-02T15:21:26Z</time>
      </trkpt>
      <trkpt lat="43.36525" lon="6.14055">
        <ele>375.60000610352</ele>
        <time>2016-11-02T15:21:27Z</time>
      </trkpt>
      <trkpt lat="43.36528" lon="6.14035">
        <ele>374.39999389648</ele>
        <time>2016-11-02T15:21:30Z</time>
      </trkpt>
      <trkpt lat="43.36531" lon="6.14013">
        <ele>373.79998779297</ele>
        <time>2016-11-02T15:21:33Z</time>
      </trkpt>
      <trkpt lat="43.36533" lon="6.13999">
        <ele>373.39999389648</ele>
        <time>2016-11-02T15:21:35Z</time>
      </trkpt>
      <trkpt lat="43.36529" lon="6.13969">
        <ele>373</ele>
        <time>2016-11-02T15:21:39Z</time>
      </trkpt>
      <trkpt lat="43.36527" lon="6.13961">
        <ele>373</ele>
        <time>2016-11-02T15:21:40Z</time>
      </trkpt>
      <trkpt lat="43.36525" lon="6.13927">
        <ele>371.79998779297</ele>
        <time>2016-11-02T15:21:44Z</time>
      </trkpt>
      <trkpt lat="43.3653" lon="6.13881">
        <ele>370</ele>
        <time>2016-11-02T15:21:49Z</time>
      </trkpt>
      <trkpt lat="43.36534" lon="6.13852">
        <ele>368.79998779297</ele>
        <time>2016-11-02T15:21:52Z</time>
      </trkpt>
      <trkpt lat="43.36537" lon="6.13822">
        <ele>367.79998779297</ele>
        <time>2016-11-02T15:21:55Z</time>
      </trkpt>
      <trkpt lat="43.36541" lon="6.13803">
        <ele>367.20001220703</ele>
        <time>2016-11-02T15:21:57Z</time>
      </trkpt>
      <trkpt lat="43.36545" lon="6.13784">
        <ele>366.39999389648</ele>
        <time>2016-11-02T15:21:59Z</time>
      </trkpt>
      <trkpt lat="43.36547" lon="6.13762">
        <ele>365.60000610352</ele>
        <time>2016-11-02T15:22:01Z</time>
      </trkpt>
      <trkpt lat="43.3655" lon="6.13741">
        <ele>364.39999389648</ele>
        <time>2016-11-02T15:22:03Z</time>
      </trkpt>
      <trkpt lat="43.36558" lon="6.13697">
        <ele>363.20001220703</ele>
        <time>2016-11-02T15:22:07Z</time>
      </trkpt>
      <trkpt lat="43.36561" lon="6.13674">
        <ele>361.39999389648</ele>
        <time>2016-11-02T15:22:09Z</time>
      </trkpt>
      <trkpt lat="43.36564" lon="6.13649">
        <ele>359.79998779297</ele>
        <time>2016-11-02T15:22:11Z</time>
      </trkpt>
      <trkpt lat="43.36566" lon="6.13636">
        <ele>358.60000610352</ele>
        <time>2016-11-02T15:22:12Z</time>
      </trkpt>
      <trkpt lat="43.36569" lon="6.13624">
        <ele>357.79998779297</ele>
        <time>2016-11-02T15:22:13Z</time>
      </trkpt>
      <trkpt lat="43.36572" lon="6.13612">
        <ele>357.20001220703</ele>
        <time>2016-11-02T15:22:14Z</time>
      </trkpt>
      <trkpt lat="43.36582" lon="6.13577">
        <ele>356</ele>
        <time>2016-11-02T15:22:17Z</time>
      </trkpt>
      <trkpt lat="43.36588" lon="6.13553">
        <ele>355</ele>
        <time>2016-11-02T15:22:19Z</time>
      </trkpt>
      <trkpt lat="43.36591" lon="6.13541">
        <ele>354.60000610352</ele>
        <time>2016-11-02T15:22:20Z</time>
      </trkpt>
      <trkpt lat="43.36597" lon="6.13517">
        <ele>353.39999389648</ele>
        <time>2016-11-02T15:22:22Z</time>
      </trkpt>
      <trkpt lat="43.36601" lon="6.13493">
        <ele>352.20001220703</ele>
        <time>2016-11-02T15:22:24Z</time>
      </trkpt>
      <trkpt lat="43.36613" lon="6.13437">
        <ele>350.79998779297</ele>
        <time>2016-11-02T15:22:29Z</time>
      </trkpt>
      <trkpt lat="43.36626" lon="6.13397">
        <ele>349.79998779297</ele>
        <time>2016-11-02T15:22:33Z</time>
      </trkpt>
      <trkpt lat="43.36642" lon="6.1334">
        <ele>348.79998779297</ele>
        <time>2016-11-02T15:22:39Z</time>
      </trkpt>
      <trkpt lat="43.3665" lon="6.13299">
        <ele>347.60000610352</ele>
        <time>2016-11-02T15:22:43Z</time>
      </trkpt>
      <trkpt lat="43.36654" lon="6.13277">
        <ele>346.20001220703</ele>
        <time>2016-11-02T15:22:45Z</time>
      </trkpt>
      <trkpt lat="43.36657" lon="6.13255">
        <ele>345</ele>
        <time>2016-11-02T15:22:47Z</time>
      </trkpt>
      <trkpt lat="43.36658" lon="6.13233">
        <ele>344.20001220703</ele>
        <time>2016-11-02T15:22:49Z</time>
      </trkpt>
      <trkpt lat="43.3666" lon="6.13223">
        <ele>343.79998779297</ele>
        <time>2016-11-02T15:22:50Z</time>
      </trkpt>
      <trkpt lat="43.36664" lon="6.13194">
        <ele>342.60000610352</ele>
        <time>2016-11-02T15:22:53Z</time>
      </trkpt>
      <trkpt lat="43.36665" lon="6.13177">
        <ele>341.60000610352</ele>
        <time>2016-11-02T15:22:55Z</time>
      </trkpt>
      <trkpt lat="43.36666" lon="6.1317">
        <ele>341</ele>
        <time>2016-11-02T15:22:56Z</time>
      </trkpt>
      <trkpt lat="43.3667" lon="6.13157">
        <ele>340.60000610352</ele>
        <time>2016-11-02T15:22:58Z</time>
      </trkpt>
      <trkpt lat="43.36674" lon="6.13153">
        <ele>340.39999389648</ele>
        <time>2016-11-02T15:22:59Z</time>
      </trkpt>
      <trkpt lat="43.36679" lon="6.1315">
        <ele>340.20001220703</ele>
        <time>2016-11-02T15:23:00Z</time>
      </trkpt>
      <trkpt lat="43.36689" lon="6.13146">
        <ele>340</ele>
        <time>2016-11-02T15:23:02Z</time>
      </trkpt>
      <trkpt lat="43.36699" lon="6.13136">
        <ele>339.79998779297</ele>
        <time>2016-11-02T15:23:04Z</time>
      </trkpt>
      <trkpt lat="43.36703" lon="6.13128">
        <ele>339.20001220703</ele>
        <time>2016-11-02T15:23:05Z</time>
      </trkpt>
      <trkpt lat="43.36707" lon="6.1312">
        <ele>338.39999389648</ele>
        <time>2016-11-02T15:23:06Z</time>
      </trkpt>
      <trkpt lat="43.3671" lon="6.1311">
        <ele>337.60000610352</ele>
        <time>2016-11-02T15:23:07Z</time>
      </trkpt>
      <trkpt lat="43.36713" lon="6.131">
        <ele>336.79998779297</ele>
        <time>2016-11-02T15:23:08Z</time>
      </trkpt>
      <trkpt lat="43.36715" lon="6.13089">
        <ele>336</ele>
        <time>2016-11-02T15:23:09Z</time>
      </trkpt>
      <trkpt lat="43.36718" lon="6.13079">
        <ele>335.39999389648</ele>
        <time>2016-11-02T15:23:10Z</time>
      </trkpt>
      <trkpt lat="43.36726" lon="6.13061">
        <ele>334.79998779297</ele>
        <time>2016-11-02T15:23:12Z</time>
      </trkpt>
      <trkpt lat="43.3674" lon="6.13037">
        <ele>333.79998779297</ele>
        <time>2016-11-02T15:23:15Z</time>
      </trkpt>
      <trkpt lat="43.36753" lon="6.1301">
        <ele>332.39999389648</ele>
        <time>2016-11-02T15:23:18Z</time>
      </trkpt>
      <trkpt lat="43.36765" lon="6.12994">
        <ele>330.79998779297</ele>
        <time>2016-11-02T15:23:20Z</time>
      </trkpt>
      <trkpt lat="43.36778" lon="6.12978">
        <ele>329.20001220703</ele>
        <time>2016-11-02T15:23:22Z</time>
      </trkpt>
      <trkpt lat="43.368" lon="6.12957">
        <ele>327.79998779297</ele>
        <time>2016-11-02T15:23:25Z</time>
      </trkpt>
      <trkpt lat="43.36827" lon="6.12927">
        <ele>325.79998779297</ele>
        <time>2016-11-02T15:23:29Z</time>
      </trkpt>
      <trkpt lat="43.36841" lon="6.12914">
        <ele>325</ele>
        <time>2016-11-02T15:23:31Z</time>
      </trkpt>
      <trkpt lat="43.36855" lon="6.12901">
        <ele>324</ele>
        <time>2016-11-02T15:23:33Z</time>
      </trkpt>
      <trkpt lat="43.36877" lon="6.12879">
        <ele>323</ele>
        <time>2016-11-02T15:23:36Z</time>
      </trkpt>
      <trkpt lat="43.36892" lon="6.12866">
        <ele>321.79998779297</ele>
        <time>2016-11-02T15:23:38Z</time>
      </trkpt>
      <trkpt lat="43.36906" lon="6.12852">
        <ele>320.60000610352</ele>
        <time>2016-11-02T15:23:40Z</time>
      </trkpt>
      <trkpt lat="43.36916" lon="6.12834">
        <ele>319.60000610352</ele>
        <time>2016-11-02T15:23:42Z</time>
      </trkpt>
      <trkpt lat="43.36935" lon="6.12796">
        <ele>318.20001220703</ele>
        <time>2016-11-02T15:23:46Z</time>
      </trkpt>
      <trkpt lat="43.36946" lon="6.12768">
        <ele>317.39999389648</ele>
        <time>2016-11-02T15:23:49Z</time>
      </trkpt>
      <trkpt lat="43.36958" lon="6.12743">
        <ele>316.60000610352</ele>
        <time>2016-11-02T15:23:52Z</time>
      </trkpt>
      <trkpt lat="43.36965" lon="6.12728">
        <ele>316.20001220703</ele>
        <time>2016-11-02T15:23:54Z</time>
      </trkpt>
      <trkpt lat="43.36976" lon="6.12705">
        <ele>315.20001220703</ele>
        <time>2016-11-02T15:23:57Z</time>
      </trkpt>
      <trkpt lat="43.36983" lon="6.12689">
        <ele>315</ele>
        <time>2016-11-02T15:23:59Z</time>
      </trkpt>
      <trkpt lat="43.37011" lon="6.12629">
        <ele>314.20001220703</ele>
        <time>2016-11-02T15:24:07Z</time>
      </trkpt>
      <trkpt lat="43.37039" lon="6.12575">
        <ele>313.20001220703</ele>
        <time>2016-11-02T15:24:15Z</time>
      </trkpt>
      <trkpt lat="43.37047" lon="6.12564">
        <ele>312.79998779297</ele>
        <time>2016-11-02T15:24:17Z</time>
      </trkpt>
      <trkpt lat="43.37056" lon="6.12553">
        <ele>312.20001220703</ele>
        <time>2016-11-02T15:24:19Z</time>
      </trkpt>
      <trkpt lat="43.37066" lon="6.12544">
        <ele>311.79998779297</ele>
        <time>2016-11-02T15:24:21Z</time>
      </trkpt>
      <trkpt lat="43.37106" lon="6.12503">
        <ele>310.79998779297</ele>
        <time>2016-11-02T15:24:29Z</time>
      </trkpt>
      <trkpt lat="43.37114" lon="6.12491">
        <ele>310.79998779297</ele>
        <time>2016-11-02T15:24:31Z</time>
      </trkpt>
      <trkpt lat="43.37121" lon="6.12478">
        <ele>310.60000610352</ele>
        <time>2016-11-02T15:24:33Z</time>
      </trkpt>
      <trkpt lat="43.37138" lon="6.12439">
        <ele>310.60000610352</ele>
        <time>2016-11-02T15:24:39Z</time>
      </trkpt>
      <trkpt lat="43.37156" lon="6.12403">
        <ele>310.60000610352</ele>
        <time>2016-11-02T15:24:45Z</time>
      </trkpt>
      <trkpt lat="43.3717" lon="6.12382">
        <ele>310.79998779297</ele>
        <time>2016-11-02T15:24:49Z</time>
      </trkpt>
      <trkpt lat="43.37187" lon="6.1236">
        <ele>312</ele>
        <time>2016-11-02T15:24:54Z</time>
      </trkpt>
      <trkpt lat="43.37201" lon="6.12342">
        <ele>313.20001220703</ele>
        <time>2016-11-02T15:24:59Z</time>
      </trkpt>
      <trkpt lat="43.37209" lon="6.12327">
        <ele>314.20001220703</ele>
        <time>2016-11-02T15:25:03Z</time>
      </trkpt>
      <trkpt lat="43.37217" lon="6.12311">
        <ele>315.39999389648</ele>
        <time>2016-11-02T15:25:08Z</time>
      </trkpt>
      <trkpt lat="43.37218" lon="6.12308">
        <ele>315.39999389648</ele>
        <time>2016-11-02T15:25:09Z</time>
      </trkpt>
      <trkpt lat="43.37222" lon="6.12296">
        <ele>316.39999389648</ele>
        <time>2016-11-02T15:25:13Z</time>
      </trkpt>
      <trkpt lat="43.37228" lon="6.12282">
        <ele>317.39999389648</ele>
        <time>2016-11-02T15:25:18Z</time>
      </trkpt>
      <trkpt lat="43.37229" lon="6.12279">
        <ele>317.60000610352</ele>
        <time>2016-11-02T15:25:19Z</time>
      </trkpt>
      <trkpt lat="43.37238" lon="6.1225">
        <ele>317.79998779297</ele>
        <time>2016-11-02T15:25:29Z</time>
      </trkpt>
      <trkpt lat="43.37241" lon="6.12243">
        <ele>318.60000610352</ele>
        <time>2016-11-02T15:25:32Z</time>
      </trkpt>
      <trkpt lat="43.37247" lon="6.1223">
        <ele>319.60000610352</ele>
        <time>2016-11-02T15:25:38Z</time>
      </trkpt>
      <trkpt lat="43.37248" lon="6.12227">
        <ele>319.79998779297</ele>
        <time>2016-11-02T15:25:39Z</time>
      </trkpt>
      <trkpt lat="43.37257" lon="6.12204">
        <ele>321.39999389648</ele>
        <time>2016-11-02T15:25:49Z</time>
      </trkpt>
      <trkpt lat="43.37257" lon="6.12202">
        <ele>321.79998779297</ele>
        <time>2016-11-02T15:25:50Z</time>
      </trkpt>
      <trkpt lat="43.37267" lon="6.12183">
        <ele>323</ele>
        <time>2016-11-02T15:25:59Z</time>
      </trkpt>
      <trkpt lat="43.37278" lon="6.12165">
        <ele>323.79998779297</ele>
        <time>2016-11-02T15:26:08Z</time>
      </trkpt>
      <trkpt lat="43.37279" lon="6.12164">
        <ele>324.20001220703</ele>
        <time>2016-11-02T15:26:09Z</time>
      </trkpt>
      <trkpt lat="43.37285" lon="6.12156">
        <ele>325.20001220703</ele>
        <time>2016-11-02T15:26:14Z</time>
      </trkpt>
      <trkpt lat="43.3729" lon="6.1215">
        <ele>326.20001220703</ele>
        <time>2016-11-02T15:26:18Z</time>
      </trkpt>
      <trkpt lat="43.37291" lon="6.12149">
        <ele>326.39999389648</ele>
        <time>2016-11-02T15:26:19Z</time>
      </trkpt>
      <trkpt lat="43.37299" lon="6.12144">
        <ele>327.20001220703</ele>
        <time>2016-11-02T15:26:25Z</time>
      </trkpt>
      <trkpt lat="43.37303" lon="6.12142">
        <ele>327.79998779297</ele>
        <time>2016-11-02T15:26:29Z</time>
      </trkpt>
      <trkpt lat="43.37305" lon="6.12141">
        <ele>328.39999389648</ele>
        <time>2016-11-02T15:26:31Z</time>
      </trkpt>
      <trkpt lat="43.3731" lon="6.12138">
        <ele>329.39999389648</ele>
        <time>2016-11-02T15:26:36Z</time>
      </trkpt>
      <trkpt lat="43.37311" lon="6.12136">
        <ele>330.20001220703</ele>
        <time>2016-11-02T15:26:39Z</time>
      </trkpt>
      <trkpt lat="43.37312" lon="6.12134">
        <ele>330.60000610352</ele>
        <time>2016-11-02T15:26:41Z</time>
      </trkpt>
      <trkpt lat="43.37321" lon="6.12131">
        <ele>331</ele>
        <time>2016-11-02T15:26:49Z</time>
      </trkpt>
      <trkpt lat="43.37325" lon="6.12129">
        <ele>331.60000610352</ele>
        <time>2016-11-02T15:26:52Z</time>
      </trkpt>
      <trkpt lat="43.37333" lon="6.12123">
        <ele>332.39999389648</ele>
        <time>2016-11-02T15:26:59Z</time>
      </trkpt>
      <trkpt lat="43.37336" lon="6.1212">
        <ele>332.60000610352</ele>
        <time>2016-11-02T15:27:02Z</time>
      </trkpt>
      <trkpt lat="43.37345" lon="6.12115">
        <ele>333.20001220703</ele>
        <time>2016-11-02T15:27:09Z</time>
      </trkpt>
      <trkpt lat="43.37349" lon="6.12112">
        <ele>333.60000610352</ele>
        <time>2016-11-02T15:27:13Z</time>
      </trkpt>
      <trkpt lat="43.37357" lon="6.12107">
        <ele>334.60000610352</ele>
        <time>2016-11-02T15:27:19Z</time>
      </trkpt>
      <trkpt lat="43.37365" lon="6.12097">
        <ele>335.39999389648</ele>
        <time>2016-11-02T15:27:27Z</time>
      </trkpt>
      <trkpt lat="43.37367" lon="6.12096">
        <ele>335.79998779297</ele>
        <time>2016-11-02T15:27:29Z</time>
      </trkpt>
      <trkpt lat="43.37369" lon="6.12095">
        <ele>336</ele>
        <time>2016-11-02T15:27:30Z</time>
      </trkpt>
      <trkpt lat="43.37381" lon="6.12092">
        <ele>337.20001220703</ele>
        <time>2016-11-02T15:27:39Z</time>
      </trkpt>
      <trkpt lat="43.37392" lon="6.12091">
        <ele>338</ele>
        <time>2016-11-02T15:27:46Z</time>
      </trkpt>
      <trkpt lat="43.37397" lon="6.1209">
        <ele>338.39999389648</ele>
        <time>2016-11-02T15:27:49Z</time>
      </trkpt>
      <trkpt lat="43.37413" lon="6.12088">
        <ele>339</ele>
        <time>2016-11-02T15:27:58Z</time>
      </trkpt>
      <trkpt lat="43.37414" lon="6.12088">
        <ele>339.20001220703</ele>
        <time>2016-11-02T15:27:59Z</time>
      </trkpt>
      <trkpt lat="43.37422" lon="6.12087">
        <ele>340.20001220703</ele>
        <time>2016-11-02T15:28:05Z</time>
      </trkpt>
      <trkpt lat="43.37427" lon="6.12085">
        <ele>340.79998779297</ele>
        <time>2016-11-02T15:28:09Z</time>
      </trkpt>
      <trkpt lat="43.37435" lon="6.12085">
        <ele>341</ele>
        <time>2016-11-02T15:28:15Z</time>
      </trkpt>
      <trkpt lat="43.37435" lon="6.12084">
        <ele>341.20001220703</ele>
        <time>2016-11-02T15:28:17Z</time>
      </trkpt>
      <trkpt lat="43.37434" lon="6.12084">
        <ele>341.20001220703</ele>
        <time>2016-11-02T15:28:19Z</time>
      </trkpt>
      <trkpt lat="43.37434" lon="6.12084">
        <ele>341.20001220703</ele>
        <time>2016-11-02T15:28:27Z</time>
      </trkpt>
      <trkpt lat="43.37434" lon="6.12084">
        <ele>341.20001220703</ele>
        <time>2016-11-02T15:28:29Z</time>
      </trkpt>
      <trkpt lat="43.37434" lon="6.12084">
        <ele>341</ele>
        <time>2016-11-02T15:28:34Z</time>
      </trkpt>
      <trkpt lat="43.37434" lon="6.12084">
        <ele>340.79998779297</ele>
        <time>2016-11-02T15:28:38Z</time>
      </trkpt>
      <trkpt lat="43.37434" lon="6.12084">
        <ele>340.60000610352</ele>
        <time>2016-11-02T15:28:49Z</time>
      </trkpt>
      <trkpt lat="43.37434" lon="6.12084">
        <ele>340.79998779297</ele>
        <time>2016-11-02T15:28:53Z</time>
      </trkpt>
      <trkpt lat="43.37434" lon="6.12084">
        <ele>340.79998779297</ele>
        <time>2016-11-02T15:29:19Z</time>
      </trkpt>
      <trkpt lat="43.37434" lon="6.12085">
        <ele>340.79998779297</ele>
        <time>2016-11-02T15:29:39Z</time>
      </trkpt>
      <trkpt lat="43.37434" lon="6.12085">
        <ele>340.79998779297</ele>
        <time>2016-11-02T15:29:49Z</time>
      </trkpt>
      <trkpt lat="43.37435" lon="6.12085">
        <ele>340.79998779297</ele>
        <time>2016-11-02T15:29:53Z</time>
      </trkpt>
      <trkpt lat="43.37436" lon="6.12085">
        <ele>340.79998779297</ele>
        <time>2016-11-02T15:29:59Z</time>
      </trkpt>
      <trkpt lat="43.3744" lon="6.12086">
        <ele>340.20001220703</ele>
        <time>2016-11-02T15:30:03Z</time>
      </trkpt>
      <trkpt lat="43.37442" lon="6.12086">
        <ele>339.79998779297</ele>
        <time>2016-11-02T15:30:04Z</time>
      </trkpt>
      <trkpt lat="43.3745" lon="6.12086">
        <ele>339</ele>
        <time>2016-11-02T15:30:06Z</time>
      </trkpt>
      <trkpt lat="43.37454" lon="6.12086">
        <ele>338</ele>
        <time>2016-11-02T15:30:07Z</time>
      </trkpt>
      <trkpt lat="43.37464" lon="6.12081">
        <ele>338.39999389648</ele>
        <time>2016-11-02T15:30:09Z</time>
      </trkpt>
      <trkpt lat="43.37469" lon="6.12078">
        <ele>338</ele>
        <time>2016-11-02T15:30:10Z</time>
      </trkpt>
      <trkpt lat="43.37473" lon="6.12075">
        <ele>337.20001220703</ele>
        <time>2016-11-02T15:30:11Z</time>
      </trkpt>
      <trkpt lat="43.37477" lon="6.12071">
        <ele>336.39999389648</ele>
        <time>2016-11-02T15:30:12Z</time>
      </trkpt>
      <trkpt lat="43.37486" lon="6.12059">
        <ele>334.79998779297</ele>
        <time>2016-11-02T15:30:14Z</time>
      </trkpt>
      <trkpt lat="43.37492" lon="6.12054">
        <ele>333.79998779297</ele>
        <time>2016-11-02T15:30:15Z</time>
      </trkpt>
      <trkpt lat="43.37498" lon="6.12049">
        <ele>332.79998779297</ele>
        <time>2016-11-02T15:30:16Z</time>
      </trkpt>
      <trkpt lat="43.37504" lon="6.12045">
        <ele>331.79998779297</ele>
        <time>2016-11-02T15:30:17Z</time>
      </trkpt>
      <trkpt lat="43.3751" lon="6.12039">
        <ele>330.60000610352</ele>
        <time>2016-11-02T15:30:18Z</time>
      </trkpt>
      <trkpt lat="43.37516" lon="6.12033">
        <ele>329.60000610352</ele>
        <time>2016-11-02T15:30:19Z</time>
      </trkpt>
      <trkpt lat="43.37522" lon="6.12027">
        <ele>328.39999389648</ele>
        <time>2016-11-02T15:30:20Z</time>
      </trkpt>
      <trkpt lat="43.37528" lon="6.1202">
        <ele>327.39999389648</ele>
        <time>2016-11-02T15:30:21Z</time>
      </trkpt>
      <trkpt lat="43.37541" lon="6.12005">
        <ele>325.39999389648</ele>
        <time>2016-11-02T15:30:23Z</time>
      </trkpt>
      <trkpt lat="43.37547" lon="6.11998">
        <ele>324</ele>
        <time>2016-11-02T15:30:24Z</time>
      </trkpt>
      <trkpt lat="43.37553" lon="6.11991">
        <ele>322.79998779297</ele>
        <time>2016-11-02T15:30:25Z</time>
      </trkpt>
      <trkpt lat="43.3756" lon="6.11985">
        <ele>321.79998779297</ele>
        <time>2016-11-02T15:30:26Z</time>
      </trkpt>
      <trkpt lat="43.37566" lon="6.11979">
        <ele>320.79998779297</ele>
        <time>2016-11-02T15:30:27Z</time>
      </trkpt>
      <trkpt lat="43.37573" lon="6.11975">
        <ele>320</ele>
        <time>2016-11-02T15:30:28Z</time>
      </trkpt>
      <trkpt lat="43.3758" lon="6.1197">
        <ele>319</ele>
        <time>2016-11-02T15:30:29Z</time>
      </trkpt>
      <trkpt lat="43.37586" lon="6.11964">
        <ele>318</ele>
        <time>2016-11-02T15:30:30Z</time>
      </trkpt>
      <trkpt lat="43.37592" lon="6.11957">
        <ele>316.79998779297</ele>
        <time>2016-11-02T15:30:31Z</time>
      </trkpt>
      <trkpt lat="43.37604" lon="6.11939">
        <ele>314.79998779297</ele>
        <time>2016-11-02T15:30:33Z</time>
      </trkpt>
      <trkpt lat="43.37616" lon="6.11918">
        <ele>312.79998779297</ele>
        <time>2016-11-02T15:30:35Z</time>
      </trkpt>
      <trkpt lat="43.37631" lon="6.11895">
        <ele>310.79998779297</ele>
        <time>2016-11-02T15:30:37Z</time>
      </trkpt>
      <trkpt lat="43.37638" lon="6.11884">
        <ele>309.60000610352</ele>
        <time>2016-11-02T15:30:38Z</time>
      </trkpt>
      <trkpt lat="43.37646" lon="6.11873">
        <ele>308</ele>
        <time>2016-11-02T15:30:39Z</time>
      </trkpt>
      <trkpt lat="43.37653" lon="6.11863">
        <ele>306.79998779297</ele>
        <time>2016-11-02T15:30:40Z</time>
      </trkpt>
      <trkpt lat="43.37665" lon="6.11848">
        <ele>305.39999389648</ele>
        <time>2016-11-02T15:30:42Z</time>
      </trkpt>
      <trkpt lat="43.37675" lon="6.11833">
        <ele>304.39999389648</ele>
        <time>2016-11-02T15:30:44Z</time>
      </trkpt>
      <trkpt lat="43.37679" lon="6.11825">
        <ele>304</ele>
        <time>2016-11-02T15:30:45Z</time>
      </trkpt>
      <trkpt lat="43.37685" lon="6.11807">
        <ele>303</ele>
        <time>2016-11-02T15:30:47Z</time>
      </trkpt>
      <trkpt lat="43.37693" lon="6.11787">
        <ele>301.20001220703</ele>
        <time>2016-11-02T15:30:49Z</time>
      </trkpt>
      <trkpt lat="43.37702" lon="6.11765">
        <ele>299.39999389648</ele>
        <time>2016-11-02T15:30:51Z</time>
      </trkpt>
      <trkpt lat="43.37712" lon="6.11745">
        <ele>298.20001220703</ele>
        <time>2016-11-02T15:30:53Z</time>
      </trkpt>
      <trkpt lat="43.37723" lon="6.11725">
        <ele>297</ele>
        <time>2016-11-02T15:30:55Z</time>
      </trkpt>
      <trkpt lat="43.37728" lon="6.11715">
        <ele>296.60000610352</ele>
        <time>2016-11-02T15:30:56Z</time>
      </trkpt>
      <trkpt lat="43.37743" lon="6.11686">
        <ele>295.39999389648</ele>
        <time>2016-11-02T15:30:59Z</time>
      </trkpt>
      <trkpt lat="43.37756" lon="6.11656">
        <ele>294.39999389648</ele>
        <time>2016-11-02T15:31:02Z</time>
      </trkpt>
      <trkpt lat="43.37767" lon="6.11637">
        <ele>293.39999389648</ele>
        <time>2016-11-02T15:31:04Z</time>
      </trkpt>
      <trkpt lat="43.37786" lon="6.1161">
        <ele>291.39999389648</ele>
        <time>2016-11-02T15:31:07Z</time>
      </trkpt>
      <trkpt lat="43.37799" lon="6.11593">
        <ele>290.60000610352</ele>
        <time>2016-11-02T15:31:09Z</time>
      </trkpt>
      <trkpt lat="43.37806" lon="6.11585">
        <ele>290.39999389648</ele>
        <time>2016-11-02T15:31:10Z</time>
      </trkpt>
      <trkpt lat="43.37819" lon="6.11568">
        <ele>290</ele>
        <time>2016-11-02T15:31:12Z</time>
      </trkpt>
      <trkpt lat="43.37827" lon="6.11549">
        <ele>289.39999389648</ele>
        <time>2016-11-02T15:31:14Z</time>
      </trkpt>
      <trkpt lat="43.37838" lon="6.11519">
        <ele>288</ele>
        <time>2016-11-02T15:31:17Z</time>
      </trkpt>
      <trkpt lat="43.37845" lon="6.11501">
        <ele>287.20001220703</ele>
        <time>2016-11-02T15:31:19Z</time>
      </trkpt>
      <trkpt lat="43.37853" lon="6.11484">
        <ele>286.79998779297</ele>
        <time>2016-11-02T15:31:21Z</time>
      </trkpt>
      <trkpt lat="43.37864" lon="6.11472">
        <ele>285.60000610352</ele>
        <time>2016-11-02T15:31:23Z</time>
      </trkpt>
      <trkpt lat="43.37868" lon="6.11469">
        <ele>285.20001220703</ele>
        <time>2016-11-02T15:31:24Z</time>
      </trkpt>
      <trkpt lat="43.37879" lon="6.11465">
        <ele>284.60000610352</ele>
        <time>2016-11-02T15:31:26Z</time>
      </trkpt>
      <trkpt lat="43.37897" lon="6.11457">
        <ele>284.20001220703</ele>
        <time>2016-11-02T15:31:29Z</time>
      </trkpt>
      <trkpt lat="43.37927" lon="6.11432">
        <ele>284.60000610352</ele>
        <time>2016-11-02T15:31:35Z</time>
      </trkpt>
      <trkpt lat="43.37931" lon="6.11427">
        <ele>284.79998779297</ele>
        <time>2016-11-02T15:31:36Z</time>
      </trkpt>
      <trkpt lat="43.37944" lon="6.11408">
        <ele>284.79998779297</ele>
        <time>2016-11-02T15:31:39Z</time>
      </trkpt>
      <trkpt lat="43.37949" lon="6.11402">
        <ele>284.39999389648</ele>
        <time>2016-11-02T15:31:40Z</time>
      </trkpt>
      <trkpt lat="43.37965" lon="6.11384">
        <ele>283.60000610352</ele>
        <time>2016-11-02T15:31:43Z</time>
      </trkpt>
      <trkpt lat="43.3798" lon="6.11366">
        <ele>283.60000610352</ele>
        <time>2016-11-02T15:31:46Z</time>
      </trkpt>
      <trkpt lat="43.37991" lon="6.11348">
        <ele>283.39999389648</ele>
        <time>2016-11-02T15:31:49Z</time>
      </trkpt>
      <trkpt lat="43.38004" lon="6.11322">
        <ele>283.39999389648</ele>
        <time>2016-11-02T15:31:53Z</time>
      </trkpt>
      <trkpt lat="43.38022" lon="6.1128">
        <ele>283.79998779297</ele>
        <time>2016-11-02T15:31:59Z</time>
      </trkpt>
      <trkpt lat="43.38035" lon="6.11251">
        <ele>283.60000610352</ele>
        <time>2016-11-02T15:32:03Z</time>
      </trkpt>
      <trkpt lat="43.38052" lon="6.11213">
        <ele>284</ele>
        <time>2016-11-02T15:32:09Z</time>
      </trkpt>
      <trkpt lat="43.38059" lon="6.11202">
        <ele>284</ele>
        <time>2016-11-02T15:32:11Z</time>
      </trkpt>
      <trkpt lat="43.38097" lon="6.11164">
        <ele>282.79998779297</ele>
        <time>2016-11-02T15:32:19Z</time>
      </trkpt>
      <trkpt lat="43.38108" lon="6.11151">
        <ele>281</ele>
        <time>2016-11-02T15:32:21Z</time>
      </trkpt>
      <trkpt lat="43.38115" lon="6.11146">
        <ele>280</ele>
        <time>2016-11-02T15:32:22Z</time>
      </trkpt>
      <trkpt lat="43.38121" lon="6.1114">
        <ele>279</ele>
        <time>2016-11-02T15:32:23Z</time>
      </trkpt>
      <trkpt lat="43.38133" lon="6.11127">
        <ele>277.60000610352</ele>
        <time>2016-11-02T15:32:25Z</time>
      </trkpt>
      <trkpt lat="43.38144" lon="6.11113">
        <ele>277.39999389648</ele>
        <time>2016-11-02T15:32:27Z</time>
      </trkpt>
      <trkpt lat="43.38153" lon="6.11098">
        <ele>277.60000610352</ele>
        <time>2016-11-02T15:32:29Z</time>
      </trkpt>
      <trkpt lat="43.38174" lon="6.11026">
        <ele>276.79998779297</ele>
        <time>2016-11-02T15:32:37Z</time>
      </trkpt>
      <trkpt lat="43.3818" lon="6.10995">
        <ele>275</ele>
        <time>2016-11-02T15:32:40Z</time>
      </trkpt>
      <trkpt lat="43.38186" lon="6.10964">
        <ele>273.60000610352</ele>
        <time>2016-11-02T15:32:43Z</time>
      </trkpt>
      <trkpt lat="43.38195" lon="6.10915">
        <ele>273</ele>
        <time>2016-11-02T15:32:48Z</time>
      </trkpt>
      <trkpt lat="43.38196" lon="6.10906">
        <ele>273.20001220703</ele>
        <time>2016-11-02T15:32:49Z</time>
      </trkpt>
      <trkpt lat="43.38199" lon="6.10891">
        <ele>273.20001220703</ele>
        <time>2016-11-02T15:32:51Z</time>
      </trkpt>
      <trkpt lat="43.38206" lon="6.10886">
        <ele>273.39999389648</ele>
        <time>2016-11-02T15:32:53Z</time>
      </trkpt>
      <trkpt lat="43.38288" lon="6.10913">
        <ele>273</ele>
        <time>2016-11-02T15:33:09Z</time>
      </trkpt>
      <trkpt lat="43.38336" lon="6.10931">
        <ele>273.39999389648</ele>
        <time>2016-11-02T15:33:19Z</time>
      </trkpt>
      <trkpt lat="43.38377" lon="6.10943">
        <ele>274</ele>
        <time>2016-11-02T15:33:29Z</time>
      </trkpt>
      <trkpt lat="43.38398" lon="6.10952">
        <ele>274.39999389648</ele>
        <time>2016-11-02T15:33:34Z</time>
      </trkpt>
      <trkpt lat="43.38449" lon="6.10961">
        <ele>275.79998779297</ele>
        <time>2016-11-02T15:33:45Z</time>
      </trkpt>
      <trkpt lat="43.38465" lon="6.10963">
        <ele>276.60000610352</ele>
        <time>2016-11-02T15:33:49Z</time>
      </trkpt>
      <trkpt lat="43.3848" lon="6.10963">
        <ele>277</ele>
        <time>2016-11-02T15:33:54Z</time>
      </trkpt>
      <trkpt lat="43.38492" lon="6.10965">
        <ele>277.20001220703</ele>
        <time>2016-11-02T15:33:59Z</time>
      </trkpt>
      <trkpt lat="43.385" lon="6.10968">
        <ele>278</ele>
        <time>2016-11-02T15:34:03Z</time>
      </trkpt>
      <trkpt lat="43.38509" lon="6.1097">
        <ele>279</ele>
        <time>2016-11-02T15:34:07Z</time>
      </trkpt>
      <trkpt lat="43.38514" lon="6.10972">
        <ele>279.39999389648</ele>
        <time>2016-11-02T15:34:09Z</time>
      </trkpt>
      <trkpt lat="43.38532" lon="6.10975">
        <ele>281.39999389648</ele>
        <time>2016-11-02T15:34:19Z</time>
      </trkpt>
      <trkpt lat="43.38556" lon="6.10986">
        <ele>282.20001220703</ele>
        <time>2016-11-02T15:34:29Z</time>
      </trkpt>
      <trkpt lat="43.38561" lon="6.10988">
        <ele>282.39999389648</ele>
        <time>2016-11-02T15:34:31Z</time>
      </trkpt>
      <trkpt lat="43.38576" lon="6.1099">
        <ele>283.60000610352</ele>
        <time>2016-11-02T15:34:38Z</time>
      </trkpt>
      <trkpt lat="43.38586" lon="6.1099">
        <ele>284.60000610352</ele>
        <time>2016-11-02T15:34:43Z</time>
      </trkpt>
      <trkpt lat="43.38598" lon="6.10988">
        <ele>285.20001220703</ele>
        <time>2016-11-02T15:34:49Z</time>
      </trkpt>
      <trkpt lat="43.38607" lon="6.1099">
        <ele>285.60000610352</ele>
        <time>2016-11-02T15:34:53Z</time>
      </trkpt>
      <trkpt lat="43.3862" lon="6.10996">
        <ele>286</ele>
        <time>2016-11-02T15:34:59Z</time>
      </trkpt>
      <trkpt lat="43.38623" lon="6.10998">
        <ele>286.20001220703</ele>
        <time>2016-11-02T15:35:01Z</time>
      </trkpt>
      <trkpt lat="43.38625" lon="6.11">
        <ele>286.20001220703</ele>
        <time>2016-11-02T15:35:03Z</time>
      </trkpt>
      <trkpt lat="43.38634" lon="6.1101">
        <ele>285.79998779297</ele>
        <time>2016-11-02T15:35:08Z</time>
      </trkpt>
      <trkpt lat="43.38637" lon="6.11009">
        <ele>285.60000610352</ele>
        <time>2016-11-02T15:35:09Z</time>
      </trkpt>
      <trkpt lat="43.38644" lon="6.11003">
        <ele>284.39999389648</ele>
        <time>2016-11-02T15:35:12Z</time>
      </trkpt>
      <trkpt lat="43.38657" lon="6.11004">
        <ele>283.60000610352</ele>
        <time>2016-11-02T15:35:16Z</time>
      </trkpt>
      <trkpt lat="43.38663" lon="6.10998">
        <ele>282.79998779297</ele>
        <time>2016-11-02T15:35:18Z</time>
      </trkpt>
      <trkpt lat="43.38665" lon="6.10994">
        <ele>282.39999389648</ele>
        <time>2016-11-02T15:35:19Z</time>
      </trkpt>
      <trkpt lat="43.38665" lon="6.10984">
        <ele>282.20001220703</ele>
        <time>2016-11-02T15:35:21Z</time>
      </trkpt>
      <trkpt lat="43.38671" lon="6.10941">
        <ele>281.39999389648</ele>
        <time>2016-11-02T15:35:29Z</time>
      </trkpt>
      <trkpt lat="43.38675" lon="6.10925">
        <ele>281.60000610352</ele>
        <time>2016-11-02T15:35:32Z</time>
      </trkpt>
      <trkpt lat="43.3868" lon="6.10903">
        <ele>281.39999389648</ele>
        <time>2016-11-02T15:35:36Z</time>
      </trkpt>
      <trkpt lat="43.38685" lon="6.10887">
        <ele>281</ele>
        <time>2016-11-02T15:35:39Z</time>
      </trkpt>
      <trkpt lat="43.38692" lon="6.10838">
        <ele>281.79998779297</ele>
        <time>2016-11-02T15:35:49Z</time>
      </trkpt>
      <trkpt lat="43.38697" lon="6.10822">
        <ele>282.20001220703</ele>
        <time>2016-11-02T15:35:53Z</time>
      </trkpt>
      <trkpt lat="43.38711" lon="6.10807">
        <ele>282</ele>
        <time>2016-11-02T15:35:57Z</time>
      </trkpt>
      <trkpt lat="43.3872" lon="6.10803">
        <ele>281.60000610352</ele>
        <time>2016-11-02T15:35:59Z</time>
      </trkpt>
      <trkpt lat="43.38724" lon="6.10799">
        <ele>281.39999389648</ele>
        <time>2016-11-02T15:36:00Z</time>
      </trkpt>
      <trkpt lat="43.3873" lon="6.10787">
        <ele>281</ele>
        <time>2016-11-02T15:36:02Z</time>
      </trkpt>
      <trkpt lat="43.38737" lon="6.1077">
        <ele>281.60000610352</ele>
        <time>2016-11-02T15:36:06Z</time>
      </trkpt>
      <trkpt lat="43.38759" lon="6.10764">
        <ele>280.60000610352</ele>
        <time>2016-11-02T15:36:12Z</time>
      </trkpt>
      <trkpt lat="43.38765" lon="6.1076">
        <ele>280</ele>
        <time>2016-11-02T15:36:14Z</time>
      </trkpt>
      <trkpt lat="43.38774" lon="6.10756">
        <ele>279.39999389648</ele>
        <time>2016-11-02T15:36:19Z</time>
      </trkpt>
      <trkpt lat="43.38788" lon="6.10758">
        <ele>278.60000610352</ele>
        <time>2016-11-02T15:36:22Z</time>
      </trkpt>
      <trkpt lat="43.388" lon="6.10758">
        <ele>277.60000610352</ele>
        <time>2016-11-02T15:36:24Z</time>
      </trkpt>
      <trkpt lat="43.38811" lon="6.10758">
        <ele>276.79998779297</ele>
        <time>2016-11-02T15:36:26Z</time>
      </trkpt>
      <trkpt lat="43.38818" lon="6.10757">
        <ele>276.39999389648</ele>
        <time>2016-11-02T15:36:27Z</time>
      </trkpt>
      <trkpt lat="43.38829" lon="6.10757">
        <ele>276</ele>
        <time>2016-11-02T15:36:29Z</time>
      </trkpt>
      <trkpt lat="43.38875" lon="6.10755">
        <ele>275.20001220703</ele>
        <time>2016-11-02T15:36:37Z</time>
      </trkpt>
      <trkpt lat="43.38881" lon="6.10755">
        <ele>275</ele>
        <time>2016-11-02T15:36:38Z</time>
      </trkpt>
      <trkpt lat="43.38886" lon="6.10757">
        <ele>275</ele>
        <time>2016-11-02T15:36:39Z</time>
      </trkpt>
      <trkpt lat="43.38902" lon="6.10762">
        <ele>274.79998779297</ele>
        <time>2016-11-02T15:36:42Z</time>
      </trkpt>
      <trkpt lat="43.38911" lon="6.10767">
        <ele>274.60000610352</ele>
        <time>2016-11-02T15:36:44Z</time>
      </trkpt>
      <trkpt lat="43.38918" lon="6.10777">
        <ele>274.39999389648</ele>
        <time>2016-11-02T15:36:46Z</time>
      </trkpt>
      <trkpt lat="43.38923" lon="6.10791">
        <ele>274.20001220703</ele>
        <time>2016-11-02T15:36:48Z</time>
      </trkpt>
      <trkpt lat="43.38924" lon="6.10798">
        <ele>274</ele>
        <time>2016-11-02T15:36:49Z</time>
      </trkpt>
      <trkpt lat="43.38929" lon="6.10811">
        <ele>273.39999389648</ele>
        <time>2016-11-02T15:36:51Z</time>
      </trkpt>
      <trkpt lat="43.38936" lon="6.10821">
        <ele>273</ele>
        <time>2016-11-02T15:36:53Z</time>
      </trkpt>
      <trkpt lat="43.38968" lon="6.10837">
        <ele>272.79998779297</ele>
        <time>2016-11-02T15:36:59Z</time>
      </trkpt>
      <trkpt lat="43.38989" lon="6.10845">
        <ele>272.79998779297</ele>
        <time>2016-11-02T15:37:03Z</time>
      </trkpt>
      <trkpt lat="43.38994" lon="6.10846">
        <ele>272.60000610352</ele>
        <time>2016-11-02T15:37:04Z</time>
      </trkpt>
      <trkpt lat="43.39004" lon="6.10844">
        <ele>272.60000610352</ele>
        <time>2016-11-02T15:37:06Z</time>
      </trkpt>
      <trkpt lat="43.39014" lon="6.10838">
        <ele>272.60000610352</ele>
        <time>2016-11-02T15:37:08Z</time>
      </trkpt>
      <trkpt lat="43.39019" lon="6.10835">
        <ele>272.60000610352</ele>
        <time>2016-11-02T15:37:09Z</time>
      </trkpt>
      <trkpt lat="43.39042" lon="6.10827">
        <ele>272</ele>
        <time>2016-11-02T15:37:13Z</time>
      </trkpt>
      <trkpt lat="43.3907" lon="6.10815">
        <ele>271.39999389648</ele>
        <time>2016-11-02T15:37:18Z</time>
      </trkpt>
      <trkpt lat="43.39079" lon="6.10806">
        <ele>271.39999389648</ele>
        <time>2016-11-02T15:37:20Z</time>
      </trkpt>
      <trkpt lat="43.3909" lon="6.1079">
        <ele>271.60000610352</ele>
        <time>2016-11-02T15:37:23Z</time>
      </trkpt>
      <trkpt lat="43.391" lon="6.1078">
        <ele>271.20001220703</ele>
        <time>2016-11-02T15:37:25Z</time>
      </trkpt>
      <trkpt lat="43.3911" lon="6.10771">
        <ele>270.79998779297</ele>
        <time>2016-11-02T15:37:27Z</time>
      </trkpt>
      <trkpt lat="43.39132" lon="6.10757">
        <ele>269.60000610352</ele>
        <time>2016-11-02T15:37:31Z</time>
      </trkpt>
      <trkpt lat="43.39149" lon="6.10743">
        <ele>268.60000610352</ele>
        <time>2016-11-02T15:37:34Z</time>
      </trkpt>
      <trkpt lat="43.39159" lon="6.10726">
        <ele>267.60000610352</ele>
        <time>2016-11-02T15:37:37Z</time>
      </trkpt>
      <trkpt lat="43.39162" lon="6.10719">
        <ele>267.39999389648</ele>
        <time>2016-11-02T15:37:38Z</time>
      </trkpt>
      <trkpt lat="43.39165" lon="6.10703">
        <ele>267</ele>
        <time>2016-11-02T15:37:40Z</time>
      </trkpt>
      <trkpt lat="43.39168" lon="6.10679">
        <ele>266.79998779297</ele>
        <time>2016-11-02T15:37:43Z</time>
      </trkpt>
      <trkpt lat="43.39174" lon="6.10665">
        <ele>266.79998779297</ele>
        <time>2016-11-02T15:37:45Z</time>
      </trkpt>
      <trkpt lat="43.39192" lon="6.10644">
        <ele>266.60000610352</ele>
        <time>2016-11-02T15:37:49Z</time>
      </trkpt>
      <trkpt lat="43.39196" lon="6.1064">
        <ele>266.39999389648</ele>
        <time>2016-11-02T15:37:50Z</time>
      </trkpt>
      <trkpt lat="43.39202" lon="6.10636">
        <ele>266.39999389648</ele>
        <time>2016-11-02T15:37:51Z</time>
      </trkpt>
      <trkpt lat="43.39212" lon="6.1063">
        <ele>266.39999389648</ele>
        <time>2016-11-02T15:37:53Z</time>
      </trkpt>
      <trkpt lat="43.39228" lon="6.10617">
        <ele>266.60000610352</ele>
        <time>2016-11-02T15:37:56Z</time>
      </trkpt>
      <trkpt lat="43.39236" lon="6.10607">
        <ele>266.79998779297</ele>
        <time>2016-11-02T15:37:58Z</time>
      </trkpt>
      <trkpt lat="43.3924" lon="6.10604">
        <ele>267</ele>
        <time>2016-11-02T15:37:59Z</time>
      </trkpt>
      <trkpt lat="43.39244" lon="6.10601">
        <ele>267</ele>
        <time>2016-11-02T15:38:00Z</time>
      </trkpt>
      <trkpt lat="43.39254" lon="6.10595">
        <ele>267.20001220703</ele>
        <time>2016-11-02T15:38:02Z</time>
      </trkpt>
      <trkpt lat="43.39262" lon="6.10585">
        <ele>267.20001220703</ele>
        <time>2016-11-02T15:38:04Z</time>
      </trkpt>
      <trkpt lat="43.39267" lon="6.10572">
        <ele>267</ele>
        <time>2016-11-02T15:38:06Z</time>
      </trkpt>
      <trkpt lat="43.39272" lon="6.1055">
        <ele>266.79998779297</ele>
        <time>2016-11-02T15:38:09Z</time>
      </trkpt>
      <trkpt lat="43.3929" lon="6.1051">
        <ele>266.20001220703</ele>
        <time>2016-11-02T15:38:15Z</time>
      </trkpt>
      <trkpt lat="43.39299" lon="6.10488">
        <ele>265.39999389648</ele>
        <time>2016-11-02T15:38:18Z</time>
      </trkpt>
      <trkpt lat="43.39302" lon="6.10481">
        <ele>265.20001220703</ele>
        <time>2016-11-02T15:38:19Z</time>
      </trkpt>
      <trkpt lat="43.39318" lon="6.10452">
        <ele>264</ele>
        <time>2016-11-02T15:38:23Z</time>
      </trkpt>
      <trkpt lat="43.39327" lon="6.10438">
        <ele>262.79998779297</ele>
        <time>2016-11-02T15:38:25Z</time>
      </trkpt>
      <trkpt lat="43.39342" lon="6.1042">
        <ele>263</ele>
        <time>2016-11-02T15:38:28Z</time>
      </trkpt>
      <trkpt lat="43.39347" lon="6.10418">
        <ele>263.20001220703</ele>
        <time>2016-11-02T15:38:29Z</time>
      </trkpt>
      <trkpt lat="43.39353" lon="6.10418">
        <ele>263.20001220703</ele>
        <time>2016-11-02T15:38:30Z</time>
      </trkpt>
      <trkpt lat="43.39363" lon="6.10416">
        <ele>263.20001220703</ele>
        <time>2016-11-02T15:38:32Z</time>
      </trkpt>
      <trkpt lat="43.3937" lon="6.10407">
        <ele>262.20001220703</ele>
        <time>2016-11-02T15:38:34Z</time>
      </trkpt>
      <trkpt lat="43.39371" lon="6.10402">
        <ele>261.79998779297</ele>
        <time>2016-11-02T15:38:35Z</time>
      </trkpt>
      <trkpt lat="43.39373" lon="6.10392">
        <ele>261.20001220703</ele>
        <time>2016-11-02T15:38:37Z</time>
      </trkpt>
      <trkpt lat="43.39378" lon="6.10381">
        <ele>260.79998779297</ele>
        <time>2016-11-02T15:38:39Z</time>
      </trkpt>
      <trkpt lat="43.39381" lon="6.10375">
        <ele>260.60000610352</ele>
        <time>2016-11-02T15:38:40Z</time>
      </trkpt>
      <trkpt lat="43.39397" lon="6.10345">
        <ele>259.79998779297</ele>
        <time>2016-11-02T15:38:45Z</time>
      </trkpt>
      <trkpt lat="43.39405" lon="6.10327">
        <ele>259.79998779297</ele>
        <time>2016-11-02T15:38:48Z</time>
      </trkpt>
      <trkpt lat="43.39408" lon="6.10322">
        <ele>259.79998779297</ele>
        <time>2016-11-02T15:38:49Z</time>
      </trkpt>
      <trkpt lat="43.39429" lon="6.10298">
        <ele>260.20001220703</ele>
        <time>2016-11-02T15:38:55Z</time>
      </trkpt>
      <trkpt lat="43.39438" lon="6.10294">
        <ele>259.20001220703</ele>
        <time>2016-11-02T15:38:57Z</time>
      </trkpt>
      <trkpt lat="43.39446" lon="6.10287">
        <ele>258.79998779297</ele>
        <time>2016-11-02T15:38:59Z</time>
      </trkpt>
      <trkpt lat="43.39458" lon="6.10277">
        <ele>258.60000610352</ele>
        <time>2016-11-02T15:39:02Z</time>
      </trkpt>
      <trkpt lat="43.39474" lon="6.1026">
        <ele>257.79998779297</ele>
        <time>2016-11-02T15:39:06Z</time>
      </trkpt>
      <trkpt lat="43.39482" lon="6.1025">
        <ele>257.39999389648</ele>
        <time>2016-11-02T15:39:08Z</time>
      </trkpt>
      <trkpt lat="43.39487" lon="6.10244">
        <ele>257</ele>
        <time>2016-11-02T15:39:09Z</time>
      </trkpt>
      <trkpt lat="43.39494" lon="6.1023">
        <ele>256</ele>
        <time>2016-11-02T15:39:11Z</time>
      </trkpt>
      <trkpt lat="43.39499" lon="6.10215">
        <ele>255.39999389648</ele>
        <time>2016-11-02T15:39:13Z</time>
      </trkpt>
      <trkpt lat="43.3951" lon="6.10169">
        <ele>254.80000305176</ele>
        <time>2016-11-02T15:39:19Z</time>
      </trkpt>
      <trkpt lat="43.39515" lon="6.10155">
        <ele>254.39999389648</ele>
        <time>2016-11-02T15:39:21Z</time>
      </trkpt>
      <trkpt lat="43.39522" lon="6.10124">
        <ele>253.60000610352</ele>
        <time>2016-11-02T15:39:25Z</time>
      </trkpt>
      <trkpt lat="43.39524" lon="6.10117">
        <ele>253.39999389648</ele>
        <time>2016-11-02T15:39:26Z</time>
      </trkpt>
      <trkpt lat="43.39534" lon="6.10096">
        <ele>252.60000610352</ele>
        <time>2016-11-02T15:39:29Z</time>
      </trkpt>
      <trkpt lat="43.3954" lon="6.10083">
        <ele>252</ele>
        <time>2016-11-02T15:39:31Z</time>
      </trkpt>
      <trkpt lat="43.39553" lon="6.10045">
        <ele>251</ele>
        <time>2016-11-02T15:39:36Z</time>
      </trkpt>
      <trkpt lat="43.39557" lon="6.1003">
        <ele>250.60000610352</ele>
        <time>2016-11-02T15:39:38Z</time>
      </trkpt>
      <trkpt lat="43.39558" lon="6.10024">
        <ele>250.60000610352</ele>
        <time>2016-11-02T15:39:39Z</time>
      </trkpt>
      <trkpt lat="43.39557" lon="6.10015">
        <ele>250.60000610352</ele>
        <time>2016-11-02T15:39:41Z</time>
      </trkpt>
      <trkpt lat="43.39553" lon="6.10004">
        <ele>251</ele>
        <time>2016-11-02T15:39:46Z</time>
      </trkpt>
      <trkpt lat="43.39555" lon="6.09969">
        <ele>251.60000610352</ele>
        <time>2016-11-02T15:39:55Z</time>
      </trkpt>
      <trkpt lat="43.39555" lon="6.09951">
        <ele>252</ele>
        <time>2016-11-02T15:39:59Z</time>
      </trkpt>
      <trkpt lat="43.39552" lon="6.09939">
        <ele>252.60000610352</ele>
        <time>2016-11-02T15:40:02Z</time>
      </trkpt>
      <trkpt lat="43.39552" lon="6.09936">
        <ele>253.19999694824</ele>
        <time>2016-11-02T15:40:03Z</time>
      </trkpt>
      <trkpt lat="43.3955" lon="6.09931">
        <ele>254.19999694824</ele>
        <time>2016-11-02T15:40:05Z</time>
      </trkpt>
      <trkpt lat="43.3955" lon="6.09929">
        <ele>254.39999389648</ele>
        <time>2016-11-02T15:40:06Z</time>
      </trkpt>
      <trkpt lat="43.39545" lon="6.09922">
        <ele>254.80000305176</ele>
        <time>2016-11-02T15:40:09Z</time>
      </trkpt>
      <trkpt lat="43.39544" lon="6.09913">
        <ele>255.19999694824</ele>
        <time>2016-11-02T15:40:12Z</time>
      </trkpt>
      <trkpt lat="43.39545" lon="6.09906">
        <ele>255.39999389648</ele>
        <time>2016-11-02T15:40:14Z</time>
      </trkpt>
      <trkpt lat="43.39552" lon="6.0989">
        <ele>255.60000610352</ele>
        <time>2016-11-02T15:40:19Z</time>
      </trkpt>
      <trkpt lat="43.39552" lon="6.09887">
        <ele>255.60000610352</ele>
        <time>2016-11-02T15:40:20Z</time>
      </trkpt>
      <trkpt lat="43.39558" lon="6.09845">
        <ele>255.80000305176</ele>
        <time>2016-11-02T15:40:29Z</time>
      </trkpt>
      <trkpt lat="43.39568" lon="6.09797">
        <ele>255.60000610352</ele>
        <time>2016-11-02T15:40:39Z</time>
      </trkpt>
      <trkpt lat="43.39581" lon="6.09751">
        <ele>255.80000305176</ele>
        <time>2016-11-02T15:40:49Z</time>
      </trkpt>
      <trkpt lat="43.39594" lon="6.09703">
        <ele>255.80000305176</ele>
        <time>2016-11-02T15:40:58Z</time>
      </trkpt>
      <trkpt lat="43.39598" lon="6.09675">
        <ele>255.39999389648</ele>
        <time>2016-11-02T15:41:03Z</time>
      </trkpt>
      <trkpt lat="43.39602" lon="6.09658">
        <ele>255.19999694824</ele>
        <time>2016-11-02T15:41:06Z</time>
      </trkpt>
      <trkpt lat="43.39604" lon="6.09643">
        <ele>255.19999694824</ele>
        <time>2016-11-02T15:41:09Z</time>
      </trkpt>
      <trkpt lat="43.39614" lon="6.09602">
        <ele>255</ele>
        <time>2016-11-02T15:41:17Z</time>
      </trkpt>
      <trkpt lat="43.39617" lon="6.09593">
        <ele>255.19999694824</ele>
        <time>2016-11-02T15:41:19Z</time>
      </trkpt>
      <trkpt lat="43.3962" lon="6.09585">
        <ele>255.60000610352</ele>
        <time>2016-11-02T15:41:21Z</time>
      </trkpt>
      <trkpt lat="43.39622" lon="6.09578">
        <ele>256</ele>
        <time>2016-11-02T15:41:25Z</time>
      </trkpt>
      <trkpt lat="43.39622" lon="6.09578">
        <ele>255.80000305176</ele>
        <time>2016-11-02T15:41:29Z</time>
      </trkpt>
      <trkpt lat="43.39622" lon="6.09578">
        <ele>256.79998779297</ele>
        <time>2016-11-02T15:41:43Z</time>
      </trkpt>
      <trkpt lat="43.39622" lon="6.09578">
        <ele>256.39999389648</ele>
        <time>2016-11-02T15:43:19Z</time>
      </trkpt>
      <trkpt lat="43.39622" lon="6.09578">
        <ele>256.79998779297</ele>
        <time>2016-11-02T15:43:29Z</time>
      </trkpt>
      <trkpt lat="43.39622" lon="6.09578">
        <ele>256.79998779297</ele>
        <time>2016-11-02T15:43:39Z</time>
      </trkpt>
      <trkpt lat="43.39623" lon="6.09577">
        <ele>256.79998779297</ele>
        <time>2016-11-02T15:43:41Z</time>
      </trkpt>
      <trkpt lat="43.39624" lon="6.09573">
        <ele>256.60000610352</ele>
        <time>2016-11-02T15:43:43Z</time>
      </trkpt>
      <trkpt lat="43.39626" lon="6.09565">
        <ele>255.39999389648</ele>
        <time>2016-11-02T15:43:45Z</time>
      </trkpt>
      <trkpt lat="43.39629" lon="6.09555">
        <ele>255.19999694824</ele>
        <time>2016-11-02T15:43:47Z</time>
      </trkpt>
      <trkpt lat="43.39636" lon="6.09545">
        <ele>255</ele>
        <time>2016-11-02T15:43:49Z</time>
      </trkpt>
      <trkpt lat="43.39648" lon="6.0953">
        <ele>254.19999694824</ele>
        <time>2016-11-02T15:43:52Z</time>
      </trkpt>
      <trkpt lat="43.39657" lon="6.09519">
        <ele>253</ele>
        <time>2016-11-02T15:43:54Z</time>
      </trkpt>
      <trkpt lat="43.39664" lon="6.09504">
        <ele>251.60000610352</ele>
        <time>2016-11-02T15:43:56Z</time>
      </trkpt>
      <trkpt lat="43.39671" lon="6.09489">
        <ele>250.39999389648</ele>
        <time>2016-11-02T15:43:58Z</time>
      </trkpt>
      <trkpt lat="43.39674" lon="6.09482">
        <ele>249.39999389648</ele>
        <time>2016-11-02T15:43:59Z</time>
      </trkpt>
      <trkpt lat="43.39675" lon="6.09476">
        <ele>248.39999389648</ele>
        <time>2016-11-02T15:44:00Z</time>
      </trkpt>
      <trkpt lat="43.39676" lon="6.09465">
        <ele>247.19999694824</ele>
        <time>2016-11-02T15:44:03Z</time>
      </trkpt>
      <trkpt lat="43.39679" lon="6.09462">
        <ele>246.19999694824</ele>
        <time>2016-11-02T15:44:08Z</time>
      </trkpt>
      <trkpt lat="43.39681" lon="6.09462">
        <ele>246.19999694824</ele>
        <time>2016-11-02T15:44:09Z</time>
      </trkpt>
      <trkpt lat="43.39692" lon="6.09463">
        <ele>244.60000610352</ele>
        <time>2016-11-02T15:44:12Z</time>
      </trkpt>
      <trkpt lat="43.39696" lon="6.09461">
        <ele>243.19999694824</ele>
        <time>2016-11-02T15:44:13Z</time>
      </trkpt>
      <trkpt lat="43.39697" lon="6.09459">
        <ele>242.19999694824</ele>
        <time>2016-11-02T15:44:14Z</time>
      </trkpt>
      <trkpt lat="43.39697" lon="6.09457">
        <ele>241</ele>
        <time>2016-11-02T15:44:16Z</time>
      </trkpt>
      <trkpt lat="43.39698" lon="6.09457">
        <ele>241</ele>
        <time>2016-11-02T15:44:19Z</time>
      </trkpt>
      <trkpt lat="43.39701" lon="6.09449">
        <ele>241</ele>
        <time>2016-11-02T15:44:22Z</time>
      </trkpt>
      <trkpt lat="43.39714" lon="6.09429">
        <ele>240.39999389648</ele>
        <time>2016-11-02T15:44:27Z</time>
      </trkpt>
      <trkpt lat="43.39721" lon="6.09419">
        <ele>240.19999694824</ele>
        <time>2016-11-02T15:44:29Z</time>
      </trkpt>
      <trkpt lat="43.39727" lon="6.0941">
        <ele>240</ele>
        <time>2016-11-02T15:44:31Z</time>
      </trkpt>
      <trkpt lat="43.39744" lon="6.09384">
        <ele>239.80000305176</ele>
        <time>2016-11-02T15:44:36Z</time>
      </trkpt>
      <trkpt lat="43.39754" lon="6.09366">
        <ele>239.80000305176</ele>
        <time>2016-11-02T15:44:39Z</time>
      </trkpt>
      <trkpt lat="43.39768" lon="6.0934">
        <ele>239</ele>
        <time>2016-11-02T15:44:43Z</time>
      </trkpt>
      <trkpt lat="43.39778" lon="6.09319">
        <ele>238.39999389648</ele>
        <time>2016-11-02T15:44:46Z</time>
      </trkpt>
      <trkpt lat="43.39787" lon="6.09298">
        <ele>238.19999694824</ele>
        <time>2016-11-02T15:44:49Z</time>
      </trkpt>
      <trkpt lat="43.39794" lon="6.09259">
        <ele>239</ele>
        <time>2016-11-02T15:44:54Z</time>
      </trkpt>
      <trkpt lat="43.39797" lon="6.09245">
        <ele>239</ele>
        <time>2016-11-02T15:44:56Z</time>
      </trkpt>
      <trkpt lat="43.398" lon="6.09222">
        <ele>239</ele>
        <time>2016-11-02T15:44:59Z</time>
      </trkpt>
      <trkpt lat="43.39801" lon="6.09179">
        <ele>240</ele>
        <time>2016-11-02T15:45:05Z</time>
      </trkpt>
      <trkpt lat="43.39801" lon="6.09157">
        <ele>241.19999694824</ele>
        <time>2016-11-02T15:45:09Z</time>
      </trkpt>
      <trkpt lat="43.39802" lon="6.09151">
        <ele>241.39999389648</ele>
        <time>2016-11-02T15:45:10Z</time>
      </trkpt>
      <trkpt lat="43.39807" lon="6.09115">
        <ele>242</ele>
        <time>2016-11-02T15:45:16Z</time>
      </trkpt>
      <trkpt lat="43.39811" lon="6.09101">
        <ele>242.19999694824</ele>
        <time>2016-11-02T15:45:19Z</time>
      </trkpt>
      <trkpt lat="43.39812" lon="6.09095">
        <ele>242.19999694824</ele>
        <time>2016-11-02T15:45:20Z</time>
      </trkpt>
      <trkpt lat="43.39822" lon="6.09068">
        <ele>242.80000305176</ele>
        <time>2016-11-02T15:45:25Z</time>
      </trkpt>
      <trkpt lat="43.39835" lon="6.09046">
        <ele>242.39999389648</ele>
        <time>2016-11-02T15:45:29Z</time>
      </trkpt>
      <trkpt lat="43.39854" lon="6.09026">
        <ele>241.39999389648</ele>
        <time>2016-11-02T15:45:33Z</time>
      </trkpt>
      <trkpt lat="43.39857" lon="6.09021">
        <ele>240.80000305176</ele>
        <time>2016-11-02T15:45:34Z</time>
      </trkpt>
      <trkpt lat="43.39865" lon="6.09008">
        <ele>239.80000305176</ele>
        <time>2016-11-02T15:45:36Z</time>
      </trkpt>
      <trkpt lat="43.3987" lon="6.09003">
        <ele>239.39999389648</ele>
        <time>2016-11-02T15:45:37Z</time>
      </trkpt>
      <trkpt lat="43.39874" lon="6.08999">
        <ele>239.19999694824</ele>
        <time>2016-11-02T15:45:38Z</time>
      </trkpt>
      <trkpt lat="43.39881" lon="6.08997">
        <ele>238.80000305176</ele>
        <time>2016-11-02T15:45:39Z</time>
      </trkpt>
      <trkpt lat="43.39888" lon="6.08995">
        <ele>238.60000610352</ele>
        <time>2016-11-02T15:45:40Z</time>
      </trkpt>
      <trkpt lat="43.39893" lon="6.08993">
        <ele>238.39999389648</ele>
        <time>2016-11-02T15:45:41Z</time>
      </trkpt>
      <trkpt lat="43.39911" lon="6.08991">
        <ele>238</ele>
        <time>2016-11-02T15:45:44Z</time>
      </trkpt>
      <trkpt lat="43.39922" lon="6.08992">
        <ele>237.39999389648</ele>
        <time>2016-11-02T15:45:46Z</time>
      </trkpt>
      <trkpt lat="43.39944" lon="6.0899">
        <ele>235.80000305176</ele>
        <time>2016-11-02T15:45:49Z</time>
      </trkpt>
      <trkpt lat="43.39951" lon="6.08988">
        <ele>235.19999694824</ele>
        <time>2016-11-02T15:45:50Z</time>
      </trkpt>
      <trkpt lat="43.39958" lon="6.08986">
        <ele>234.80000305176</ele>
        <time>2016-11-02T15:45:51Z</time>
      </trkpt>
      <trkpt lat="43.39965" lon="6.08983">
        <ele>234.60000610352</ele>
        <time>2016-11-02T15:45:52Z</time>
      </trkpt>
      <trkpt lat="43.39992" lon="6.08976">
        <ele>234.19999694824</ele>
        <time>2016-11-02T15:45:56Z</time>
      </trkpt>
      <trkpt lat="43.40009" lon="6.08971">
        <ele>233.80000305176</ele>
        <time>2016-11-02T15:45:59Z</time>
      </trkpt>
      <trkpt lat="43.40014" lon="6.08968">
        <ele>233.80000305176</ele>
        <time>2016-11-02T15:46:00Z</time>
      </trkpt>
      <trkpt lat="43.40023" lon="6.08958">
        <ele>233.60000610352</ele>
        <time>2016-11-02T15:46:02Z</time>
      </trkpt>
      <trkpt lat="43.40029" lon="6.08945">
        <ele>233.60000610352</ele>
        <time>2016-11-02T15:46:04Z</time>
      </trkpt>
      <trkpt lat="43.40035" lon="6.08924">
        <ele>233.60000610352</ele>
        <time>2016-11-02T15:46:07Z</time>
      </trkpt>
      <trkpt lat="43.40039" lon="6.08909">
        <ele>233.80000305176</ele>
        <time>2016-11-02T15:46:09Z</time>
      </trkpt>
      <trkpt lat="43.40048" lon="6.08881">
        <ele>233.80000305176</ele>
        <time>2016-11-02T15:46:13Z</time>
      </trkpt>
      <trkpt lat="43.40054" lon="6.08859">
        <ele>233.80000305176</ele>
        <time>2016-11-02T15:46:16Z</time>
      </trkpt>
      <trkpt lat="43.40063" lon="6.08838">
        <ele>233.80000305176</ele>
        <time>2016-11-02T15:46:19Z</time>
      </trkpt>
      <trkpt lat="43.40086" lon="6.08776">
        <ele>233.39999389648</ele>
        <time>2016-11-02T15:46:28Z</time>
      </trkpt>
      <trkpt lat="43.40088" lon="6.08769">
        <ele>233.39999389648</ele>
        <time>2016-11-02T15:46:29Z</time>
      </trkpt>
      <trkpt lat="43.40097" lon="6.0874">
        <ele>233.39999389648</ele>
        <time>2016-11-02T15:46:33Z</time>
      </trkpt>
      <trkpt lat="43.40104" lon="6.08691">
        <ele>232.80000305176</ele>
        <time>2016-11-02T15:46:39Z</time>
      </trkpt>
      <trkpt lat="43.40103" lon="6.08676">
        <ele>232.39999389648</ele>
        <time>2016-11-02T15:46:41Z</time>
      </trkpt>
      <trkpt lat="43.401" lon="6.0866">
        <ele>232</ele>
        <time>2016-11-02T15:46:43Z</time>
      </trkpt>
      <trkpt lat="43.40099" lon="6.08644">
        <ele>231.39999389648</ele>
        <time>2016-11-02T15:46:45Z</time>
      </trkpt>
      <trkpt lat="43.40106" lon="6.0863">
        <ele>230.39999389648</ele>
        <time>2016-11-02T15:46:47Z</time>
      </trkpt>
      <trkpt lat="43.40111" lon="6.08624">
        <ele>230.19999694824</ele>
        <time>2016-11-02T15:46:48Z</time>
      </trkpt>
      <trkpt lat="43.40151" lon="6.08589">
        <ele>229.39999389648</ele>
        <time>2016-11-02T15:46:56Z</time>
      </trkpt>
      <trkpt lat="43.4016" lon="6.08584">
        <ele>229.19999694824</ele>
        <time>2016-11-02T15:46:58Z</time>
      </trkpt>
      <trkpt lat="43.40166" lon="6.08573">
        <ele>229</ele>
        <time>2016-11-02T15:47:00Z</time>
      </trkpt>
      <trkpt lat="43.40168" lon="6.08561">
        <ele>229</ele>
        <time>2016-11-02T15:47:02Z</time>
      </trkpt>
      <trkpt lat="43.40168" lon="6.08543">
        <ele>229.60000610352</ele>
        <time>2016-11-02T15:47:05Z</time>
      </trkpt>
      <trkpt lat="43.40168" lon="6.0852">
        <ele>230</ele>
        <time>2016-11-02T15:47:09Z</time>
      </trkpt>
      <trkpt lat="43.4017" lon="6.08508">
        <ele>230.39999389648</ele>
        <time>2016-11-02T15:47:11Z</time>
      </trkpt>
      <trkpt lat="43.40171" lon="6.0849">
        <ele>230.60000610352</ele>
        <time>2016-11-02T15:47:14Z</time>
      </trkpt>
      <trkpt lat="43.40173" lon="6.08477">
        <ele>230.60000610352</ele>
        <time>2016-11-02T15:47:16Z</time>
      </trkpt>
      <trkpt lat="43.40175" lon="6.08458">
        <ele>230.80000305176</ele>
        <time>2016-11-02T15:47:19Z</time>
      </trkpt>
      <trkpt lat="43.40176" lon="6.08451">
        <ele>230.80000305176</ele>
        <time>2016-11-02T15:47:20Z</time>
      </trkpt>
      <trkpt lat="43.40181" lon="6.08383">
        <ele>230.60000610352</ele>
        <time>2016-11-02T15:47:29Z</time>
      </trkpt>
      <trkpt lat="43.40184" lon="6.08345">
        <ele>230</ele>
        <time>2016-11-02T15:47:34Z</time>
      </trkpt>
      <trkpt lat="43.40186" lon="6.08308">
        <ele>229.39999389648</ele>
        <time>2016-11-02T15:47:39Z</time>
      </trkpt>
      <trkpt lat="43.40187" lon="6.08296">
        <ele>229</ele>
        <time>2016-11-02T15:47:41Z</time>
      </trkpt>
      <trkpt lat="43.40189" lon="6.08284">
        <ele>228.60000610352</ele>
        <time>2016-11-02T15:47:43Z</time>
      </trkpt>
      <trkpt lat="43.40191" lon="6.08267">
        <ele>229</ele>
        <time>2016-11-02T15:47:49Z</time>
      </trkpt>
      <trkpt lat="43.40191" lon="6.08266">
        <ele>229.39999389648</ele>
        <time>2016-11-02T15:47:59Z</time>
      </trkpt>
      <trkpt lat="43.40193" lon="6.08262">
        <ele>229.39999389648</ele>
        <time>2016-11-02T15:48:01Z</time>
      </trkpt>
      <trkpt lat="43.40197" lon="6.08254">
        <ele>229.39999389648</ele>
        <time>2016-11-02T15:48:03Z</time>
      </trkpt>
      <trkpt lat="43.40213" lon="6.08231">
        <ele>227.80000305176</ele>
        <time>2016-11-02T15:48:07Z</time>
      </trkpt>
      <trkpt lat="43.40224" lon="6.08217">
        <ele>226</ele>
        <time>2016-11-02T15:48:09Z</time>
      </trkpt>
      <trkpt lat="43.40235" lon="6.08202">
        <ele>224.80000305176</ele>
        <time>2016-11-02T15:48:11Z</time>
      </trkpt>
      <trkpt lat="43.40248" lon="6.08188">
        <ele>223.60000610352</ele>
        <time>2016-11-02T15:48:13Z</time>
      </trkpt>
      <trkpt lat="43.40261" lon="6.08174">
        <ele>221.80000305176</ele>
        <time>2016-11-02T15:48:15Z</time>
      </trkpt>
      <trkpt lat="43.40276" lon="6.08161">
        <ele>220.19999694824</ele>
        <time>2016-11-02T15:48:17Z</time>
      </trkpt>
      <trkpt lat="43.40292" lon="6.0815">
        <ele>219.60000610352</ele>
        <time>2016-11-02T15:48:19Z</time>
      </trkpt>
      <trkpt lat="43.40316" lon="6.08139">
        <ele>219.19999694824</ele>
        <time>2016-11-02T15:48:22Z</time>
      </trkpt>
      <trkpt lat="43.40341" lon="6.08132">
        <ele>218.60000610352</ele>
        <time>2016-11-02T15:48:25Z</time>
      </trkpt>
      <trkpt lat="43.40373" lon="6.08132">
        <ele>218</ele>
        <time>2016-11-02T15:48:29Z</time>
      </trkpt>
      <trkpt lat="43.40402" lon="6.08138">
        <ele>217.19999694824</ele>
        <time>2016-11-02T15:48:33Z</time>
      </trkpt>
      <trkpt lat="43.40408" lon="6.08139">
        <ele>217</ele>
        <time>2016-11-02T15:48:34Z</time>
      </trkpt>
      <trkpt lat="43.40436" lon="6.08144">
        <ele>216</ele>
        <time>2016-11-02T15:48:39Z</time>
      </trkpt>
      <trkpt lat="43.40457" lon="6.08146">
        <ele>214.19999694824</ele>
        <time>2016-11-02T15:48:42Z</time>
      </trkpt>
      <trkpt lat="43.40472" lon="6.08146">
        <ele>213</ele>
        <time>2016-11-02T15:48:44Z</time>
      </trkpt>
      <trkpt lat="43.40485" lon="6.08147">
        <ele>211.60000610352</ele>
        <time>2016-11-02T15:48:46Z</time>
      </trkpt>
      <trkpt lat="43.40495" lon="6.08151">
        <ele>211.19999694824</ele>
        <time>2016-11-02T15:48:49Z</time>
      </trkpt>
      <trkpt lat="43.40505" lon="6.08156">
        <ele>211.39999389648</ele>
        <time>2016-11-02T15:48:53Z</time>
      </trkpt>
      <trkpt lat="43.40508" lon="6.0816">
        <ele>211.19999694824</ele>
        <time>2016-11-02T15:48:54Z</time>
      </trkpt>
      <trkpt lat="43.40516" lon="6.08174">
        <ele>211</ele>
        <time>2016-11-02T15:48:57Z</time>
      </trkpt>
      <trkpt lat="43.40524" lon="6.08181">
        <ele>211.19999694824</ele>
        <time>2016-11-02T15:48:59Z</time>
      </trkpt>
      <trkpt lat="43.40533" lon="6.08183">
        <ele>211.39999389648</ele>
        <time>2016-11-02T15:49:01Z</time>
      </trkpt>
      <trkpt lat="43.40545" lon="6.0818">
        <ele>211.60000610352</ele>
        <time>2016-11-02T15:49:03Z</time>
      </trkpt>
      <trkpt lat="43.40565" lon="6.08168">
        <ele>211.80000305176</ele>
        <time>2016-11-02T15:49:07Z</time>
      </trkpt>
      <trkpt lat="43.40577" lon="6.08169">
        <ele>211.19999694824</ele>
        <time>2016-11-02T15:49:09Z</time>
      </trkpt>
      <trkpt lat="43.40596" lon="6.08175">
        <ele>210.60000610352</ele>
        <time>2016-11-02T15:49:12Z</time>
      </trkpt>
      <trkpt lat="43.4063" lon="6.08184">
        <ele>209.39999389648</ele>
        <time>2016-11-02T15:49:17Z</time>
      </trkpt>
      <trkpt lat="43.40644" lon="6.08188">
        <ele>209.19999694824</ele>
        <time>2016-11-02T15:49:19Z</time>
      </trkpt>
      <trkpt lat="43.40678" lon="6.08195">
        <ele>208.39999389648</ele>
        <time>2016-11-02T15:49:24Z</time>
      </trkpt>
      <trkpt lat="43.40716" lon="6.08195">
        <ele>208</ele>
        <time>2016-11-02T15:49:29Z</time>
      </trkpt>
      <trkpt lat="43.40755" lon="6.08189">
        <ele>207</ele>
        <time>2016-11-02T15:49:34Z</time>
      </trkpt>
      <trkpt lat="43.40785" lon="6.08179">
        <ele>206</ele>
        <time>2016-11-02T15:49:38Z</time>
      </trkpt>
      <trkpt lat="43.40792" lon="6.08176">
        <ele>205.80000305176</ele>
        <time>2016-11-02T15:49:39Z</time>
      </trkpt>
      <trkpt lat="43.40842" lon="6.0815">
        <ele>205</ele>
        <time>2016-11-02T15:49:46Z</time>
      </trkpt>
      <trkpt lat="43.40864" lon="6.08138">
        <ele>205</ele>
        <time>2016-11-02T15:49:49Z</time>
      </trkpt>
      <trkpt lat="43.40906" lon="6.08113">
        <ele>204</ele>
        <time>2016-11-02T15:49:55Z</time>
      </trkpt>
      <trkpt lat="43.40933" lon="6.08098">
        <ele>203.19999694824</ele>
        <time>2016-11-02T15:49:59Z</time>
      </trkpt>
      <trkpt lat="43.40985" lon="6.08066">
        <ele>203.39999389648</ele>
        <time>2016-11-02T15:50:07Z</time>
      </trkpt>
      <trkpt lat="43.40998" lon="6.08057">
        <ele>203</ele>
        <time>2016-11-02T15:50:09Z</time>
      </trkpt>
      <trkpt lat="43.41016" lon="6.08042">
        <ele>201.80000305176</ele>
        <time>2016-11-02T15:50:12Z</time>
      </trkpt>
      <trkpt lat="43.41056" lon="6.08008">
        <ele>201.80000305176</ele>
        <time>2016-11-02T15:50:19Z</time>
      </trkpt>
      <trkpt lat="43.41095" lon="6.07969">
        <ele>202.39999389648</ele>
        <time>2016-11-02T15:50:26Z</time>
      </trkpt>
      <trkpt lat="43.41111" lon="6.07951">
        <ele>202.19999694824</ele>
        <time>2016-11-02T15:50:29Z</time>
      </trkpt>
      <trkpt lat="43.41138" lon="6.07919">
        <ele>202.80000305176</ele>
        <time>2016-11-02T15:50:35Z</time>
      </trkpt>
      <trkpt lat="43.41153" lon="6.07898">
        <ele>203</ele>
        <time>2016-11-02T15:50:39Z</time>
      </trkpt>
      <trkpt lat="43.41169" lon="6.07877">
        <ele>204</ele>
        <time>2016-11-02T15:50:43Z</time>
      </trkpt>
      <trkpt lat="43.4119" lon="6.07844">
        <ele>204</ele>
        <time>2016-11-02T15:50:49Z</time>
      </trkpt>
      <trkpt lat="43.41218" lon="6.07795">
        <ele>203.19999694824</ele>
        <time>2016-11-02T15:50:57Z</time>
      </trkpt>
      <trkpt lat="43.41225" lon="6.07783">
        <ele>203</ele>
        <time>2016-11-02T15:50:59Z</time>
      </trkpt>
      <trkpt lat="43.41253" lon="6.07728">
        <ele>201.80000305176</ele>
        <time>2016-11-02T15:51:07Z</time>
      </trkpt>
      <trkpt lat="43.41258" lon="6.07714">
        <ele>202</ele>
        <time>2016-11-02T15:51:09Z</time>
      </trkpt>
      <trkpt lat="43.41286" lon="6.0764">
        <ele>201.80000305176</ele>
        <time>2016-11-02T15:51:19Z</time>
      </trkpt>
      <trkpt lat="43.41309" lon="6.07572">
        <ele>202.19999694824</ele>
        <time>2016-11-02T15:51:29Z</time>
      </trkpt>
      <trkpt lat="43.41325" lon="6.07508">
        <ele>202.39999389648</ele>
        <time>2016-11-02T15:51:39Z</time>
      </trkpt>
      <trkpt lat="43.4133" lon="6.07484">
        <ele>203</ele>
        <time>2016-11-02T15:51:43Z</time>
      </trkpt>
      <trkpt lat="43.41336" lon="6.07449">
        <ele>203</ele>
        <time>2016-11-02T15:51:49Z</time>
      </trkpt>
      <trkpt lat="43.41347" lon="6.07398">
        <ele>203.19999694824</ele>
        <time>2016-11-02T15:51:59Z</time>
      </trkpt>
      <trkpt lat="43.41357" lon="6.0735">
        <ele>203.60000610352</ele>
        <time>2016-11-02T15:52:09Z</time>
      </trkpt>
      <trkpt lat="43.41361" lon="6.07328">
        <ele>204</ele>
        <time>2016-11-02T15:52:14Z</time>
      </trkpt>
      <trkpt lat="43.41366" lon="6.07304">
        <ele>204</ele>
        <time>2016-11-02T15:52:19Z</time>
      </trkpt>
      <trkpt lat="43.41376" lon="6.07252">
        <ele>204.60000610352</ele>
        <time>2016-11-02T15:52:29Z</time>
      </trkpt>
      <trkpt lat="43.41382" lon="6.07228">
        <ele>205</ele>
        <time>2016-11-02T15:52:34Z</time>
      </trkpt>
      <trkpt lat="43.41386" lon="6.07206">
        <ele>204.60000610352</ele>
        <time>2016-11-02T15:52:39Z</time>
      </trkpt>
      <trkpt lat="43.41393" lon="6.07173">
        <ele>205</ele>
        <time>2016-11-02T15:52:47Z</time>
      </trkpt>
      <trkpt lat="43.41395" lon="6.07164">
        <ele>205.19999694824</ele>
        <time>2016-11-02T15:52:49Z</time>
      </trkpt>
      <trkpt lat="43.41403" lon="6.07117">
        <ele>205.60000610352</ele>
        <time>2016-11-02T15:52:59Z</time>
      </trkpt>
      <trkpt lat="43.41407" lon="6.07095">
        <ele>206.19999694824</ele>
        <time>2016-11-02T15:53:04Z</time>
      </trkpt>
      <trkpt lat="43.41411" lon="6.07075">
        <ele>206.60000610352</ele>
        <time>2016-11-02T15:53:09Z</time>
      </trkpt>
      <trkpt lat="43.41422" lon="6.07027">
        <ele>205.80000305176</ele>
        <time>2016-11-02T15:53:19Z</time>
      </trkpt>
      <trkpt lat="43.41431" lon="6.06976">
        <ele>206.60000610352</ele>
        <time>2016-11-02T15:53:29Z</time>
      </trkpt>
      <trkpt lat="43.41445" lon="6.06932">
        <ele>206.60000610352</ele>
        <time>2016-11-02T15:53:39Z</time>
      </trkpt>
      <trkpt lat="43.41451" lon="6.06927">
        <ele>207.19999694824</ele>
        <time>2016-11-02T15:53:41Z</time>
      </trkpt>
      <trkpt lat="43.41461" lon="6.06925">
        <ele>207.60000610352</ele>
        <time>2016-11-02T15:53:44Z</time>
      </trkpt>
      <trkpt lat="43.41474" lon="6.06938">
        <ele>207.60000610352</ele>
        <time>2016-11-02T15:53:48Z</time>
      </trkpt>
      <trkpt lat="43.41478" lon="6.06941">
        <ele>207.60000610352</ele>
        <time>2016-11-02T15:53:49Z</time>
      </trkpt>
      <trkpt lat="43.41502" lon="6.06966">
        <ele>207.60000610352</ele>
        <time>2016-11-02T15:53:57Z</time>
      </trkpt>
      <trkpt lat="43.41507" lon="6.06971">
        <ele>207.60000610352</ele>
        <time>2016-11-02T15:53:59Z</time>
      </trkpt>
      <trkpt lat="43.41517" lon="6.06974">
        <ele>207.39999389648</ele>
        <time>2016-11-02T15:54:02Z</time>
      </trkpt>
      <trkpt lat="43.41531" lon="6.06974">
        <ele>207</ele>
        <time>2016-11-02T15:54:06Z</time>
      </trkpt>
      <trkpt lat="43.41542" lon="6.06972">
        <ele>207</ele>
        <time>2016-11-02T15:54:09Z</time>
      </trkpt>
      <trkpt lat="43.41565" lon="6.06968">
        <ele>207.80000305176</ele>
        <time>2016-11-02T15:54:17Z</time>
      </trkpt>
      <trkpt lat="43.41568" lon="6.06968">
        <ele>207.80000305176</ele>
        <time>2016-11-02T15:54:19Z</time>
      </trkpt>
      <trkpt lat="43.41571" lon="6.06968">
        <ele>208.19999694824</ele>
        <time>2016-11-02T15:54:22Z</time>
      </trkpt>
      <trkpt lat="43.41571" lon="6.06966">
        <ele>208.60000610352</ele>
        <time>2016-11-02T15:54:28Z</time>
      </trkpt>
      <trkpt lat="43.41571" lon="6.06965">
        <ele>208.60000610352</ele>
        <time>2016-11-02T15:54:29Z</time>
      </trkpt>
      <trkpt lat="43.41572" lon="6.06966">
        <ele>208.80000305176</ele>
        <time>2016-11-02T15:54:39Z</time>
      </trkpt>
      <trkpt lat="43.41572" lon="6.06967">
        <ele>208.60000610352</ele>
        <time>2016-11-02T15:54:43Z</time>
      </trkpt>
      <trkpt lat="43.41573" lon="6.06969">
        <ele>208.60000610352</ele>
        <time>2016-11-02T15:54:49Z</time>
      </trkpt>
      <trkpt lat="43.41574" lon="6.06981">
        <ele>208</ele>
        <time>2016-11-02T15:54:56Z</time>
      </trkpt>
      <trkpt lat="43.41577" lon="6.06992">
        <ele>208.19999694824</ele>
        <time>2016-11-02T15:54:59Z</time>
      </trkpt>
      <trkpt lat="43.41581" lon="6.07021">
        <ele>208.39999389648</ele>
        <time>2016-11-02T15:55:08Z</time>
      </trkpt>
      <trkpt lat="43.41581" lon="6.07022">
        <ele>208.60000610352</ele>
        <time>2016-11-02T15:55:09Z</time>
      </trkpt>
      <trkpt lat="43.41581" lon="6.07021">
        <ele>208.39999389648</ele>
        <time>2016-11-02T15:55:19Z</time>
      </trkpt>
      <trkpt lat="43.41581" lon="6.07021">
        <ele>208.19999694824</ele>
        <time>2016-11-02T15:55:26Z</time>
      </trkpt>
      <trkpt lat="43.41581" lon="6.0702">
        <ele>208.19999694824</ele>
        <time>2016-11-02T15:55:29Z</time>
      </trkpt>
      <trkpt lat="43.4158" lon="6.0702">
        <ele>208.19999694824</ele>
        <time>2016-11-02T15:55:39Z</time>
      </trkpt>
      <trkpt lat="43.4158" lon="6.0702">
        <ele>208.19999694824</ele>
        <time>2016-11-02T15:55:42Z</time>
      </trkpt>
      <trkpt lat="43.41581" lon="6.07025">
        <ele>208.19999694824</ele>
        <time>2016-11-02T15:55:49Z</time>
      </trkpt>
      <trkpt lat="43.41582" lon="6.07036">
        <ele>208.19999694824</ele>
        <time>2016-11-02T15:55:56Z</time>
      </trkpt>
      <trkpt lat="43.41582" lon="6.07036">
        <ele>208.39999389648</ele>
        <time>2016-11-02T15:55:59Z</time>
      </trkpt>
      <trkpt lat="43.41582" lon="6.07036">
        <ele>208</ele>
        <time>2016-11-02T15:56:09Z</time>
      </trkpt>
      <trkpt lat="43.41582" lon="6.07037">
        <ele>208</ele>
        <time>2016-11-02T15:56:12Z</time>
      </trkpt>
      <trkpt lat="43.41582" lon="6.07037">
        <ele>208.39999389648</ele>
        <time>2016-11-02T15:56:16Z</time>
      </trkpt>
    </trkseg>
  </trk>
</gpx>